[[{"header":{"parameterUnit":"m.s-1","parameterCategory":1,"la1":31.0,"la2":29.5877,"lo1":-88.7671,"lo2":-86.6584,"dy":0.0162,"dx":0.0185,"nx":115,"ny":88,"refTime":"2024-05-16T06:00:00:Z","depth":0,"parameterNumber":2,"parameterNumberName":"U-component_of_WINDS"},"data":[0.0,0.0,0.0,0.0,0.0,0.0,0.0,0.0,0.0,0.0,0.0,0.0,0.0,0.0,0.0,0.0,0.0,0.0,0.0,0.0,0.0,0.0,0.0,0.0,0.0,0.0,0.0,0.0,0.0,0.0,0.0,0.0,0.0,0.0,0.0,0.0,0.0,0.0,0.0,0.0,0.0,0.0,0.0,0.0,0.0,0.0,0.0,0.0,0.0,0.0,0.0,0.0,0.0,0.0,0.0,0.0,0.0,0.0,0.0,0.0,0.0,0.0,0.0,0.0,0.0,0.0,0.0,0.0,0.0,0.0,0.0,0.0,0.0,0.0,0.0,0.0,0.0,0.0,0.0,0.0,0.0,0.0,0.0,0.0,0.0,0.0,0.0,0.0,0.0,0.0,0.0,0.0,0.0,0.0,0.0,0.0,0.0,0.0,0.0,0.0,0.0,0.0,0.0,0.0,0.0,0.0,0.0,0.0,0.0,0.0,0.0,0.0,0.0,0.0,0.0,0.0,0.0,0.0,0.0,0.0,0.0,0.0,0.0,0.0,0.0,0.0,0.0,0.0,0.0,0.0,0.0,0.0,0.0,0.0,0.0,0.0,0.0,0.0,0.0,0.0,0.0,0.0,0.0,0.0,0.0,0.0,0.0,0.0,0.0,0.0,0.0,0.0,0.0,0.0,0.0,0.0,0.0,0.0,0.0,0.0,0.0,0.0,0.0,0.0,0.0,0.0,0.0,0.0,0.0,0.0,0.0,0.0,0.0,0.0,0.0,0.0,0.0,0.0,0.0,0.0,0.0,0.0,0.0,0.0,0.0,0.0,0.0,0.0,0.0,0.0,0.0,0.0,0.0,0.0,0.0,0.0,0.0,0.0,0.0,0.0,0.0,0.0,0.0,0.0,0.0,0.0,0.0,0.0,0.0,0.0,0.0,0.0,0.0,0.0,0.0,0.0,0.0,0.0,0.0,0.0,0.0,0.0,0.0,0.0,0.0,0.0,0.0,0.0,0.0,0.0,0.0,0.0,0.0,0.0,0.0,0.0,0.0,0.0,0.0,0.0,0.0,0.0,0.0,0.0,0.0,0.0,0.0,0.0,0.0,0.0,0.0,0.0,0.0,0.0,0.0,0.0,0.0,0.0,0.0,0.0,0.0,0.0,0.0,0.0,0.0,0.0,0.0,0.0,0.0,0.0,0.0,0.0,0.0,0.0,0.0,0.0,0.0,0.0,0.0,0.0,0.0,0.0,0.0,0.0,0.0,0.0,0.0,0.0,0.0,0.0,0.0,0.0,0.0,0.0,0.0,0.0,0.0,0.0,0.0,0.0,0.0,0.0,0.0,0.0,0.0,0.0,0.0,0.0,0.0,0.0,0.0,0.0,0.0,0.0,0.0,0.0,0.0,0.0,0.0,0.0,0.0,0.0,0.0,0.0,0.0,0.0,0.0,0.0,0.0,0.0,0.0,0.0,0.0,0.0,0.0,0.0,0.0,0.0,0.0,0.0,0.0,0.0,0.0,0.0,0.0,0.0,0.0,0.0,0.0,0.0,0.0,0.0,0.0,0.0,0.0,0.0,0.0,0.0,0.0,0.0,0.0,0.0,0.0,0.0,0.0,0.0,0.0,0.0,0.0,0.0,0.0,0.0,0.0,0.0,0.0,0.0,0.0,0.0,0.0,0.0,0.0,0.0,0.0,0.0,0.0,0.0,0.0,0.0,0.0,0.0,0.0,0.0,0.0,0.0,0.0,0.0,0.0,0.0,0.0,0.0,0.0,0.0,0.0,0.0,0.0,0.0,0.0,0.0,0.0,0.0,0.0,0.0,0.0,0.0,0.0,0.0,0.0,0.0,0.0,0.0,0.0,0.0,0.0,0.0,0.0,0.0,0.0,0.0,0.0,0.0,0.0,0.0,0.0,0.0,0.0,0.0,0.0,0.0,0.0,0.0,0.0,0.0,0.0,0.0,0.0,0.0,0.0,0.0,0.0,0.0,0.0,0.0,0.0,0.0,0.0,0.0,0.0,0.0,0.0,0.0,0.0,0.0,0.0,0.0,0.0,0.0,0.0,0.0,0.0,0.0,0.0,0.0,0.0,0.0,0.0,0.0,0.0,0.0,0.0,0.0,0.0,0.0,0.0,0.0,0.0,0.0,0.0,0.0,0.0,0.0,0.0,0.0,0.0,0.0,0.0,0.0,0.0,0.0,0.0,0.0,0.0,0.0,0.0,0.0,0.0,0.0,0.0,0.0,0.0,0.0,0.0,0.0,0.0,0.0,0.0,0.0,0.0,0.0,0.0,0.0,0.0,0.0,0.0,0.0,0.0,0.0,0.0,0.0,0.0,0.0,0.0,0.0,0.0,0.0,0.0,0.0,0.0,0.0,0.0,0.0,0.0,0.0,0.0,0.0,0.0,0.0,0.0,0.0,0.0,0.0,0.0,0.0,0.0,0.0,0.0,0.0,0.0,0.0,0.0,0.0,0.0,0.0,0.0,0.0,0.0,0.0,0.0,0.0,0.0,0.0,0.0,0.0,0.0,0.0,0.0,0.0,0.0,0.0,0.0,0.0,0.0,0.0,0.0,0.0,0.0,0.0,0.0,0.0,0.0,0.0,0.0,0.0,0.0,0.0,0.0,0.0,0.0,0.0,0.0,0.0,0.0,0.0,0.0,0.0,0.0,0.0,0.0,0.0,0.0,0.0,0.0,0.0,0.0,0.0,0.0,0.0,0.0,0.0,0.0,0.0,0.0,0.0,0.0,0.0,0.0,0.0,0.0,0.0,0.0,0.0,0.0,0.0,0.0,0.0,0.0,0.0,0.0,0.0,0.0,0.0,0.0,0.0,0.0,0.0,0.0,0.0,0.0,0.0,0.0,0.0,0.0,0.0,0.0,0.0,0.0,0.0,0.0,0.0,0.0,0.0,0.0,0.0,0.0,0.0,0.0,0.0,0.0,0.0,0.0,0.0,0.0,0.0,0.0,0.0,0.0,0.0,0.0,0.0,0.0,0.0,0.0,0.0,0.0,0.0,0.0,0.0,0.0,0.0,0.0,0.0,0.0,0.0,0.0,0.0,0.0,0.0,0.0,0.0,0.0,0.0,0.0,0.0,0.0,0.0,0.0,0.0,0.0,0.0,0.0,0.0,0.0,0.0,0.0,0.0,0.0,0.0,0.0,0.0,0.0,0.0,0.0,0.0,0.0,0.0,0.0,0.0,0.0,0.0,0.0,0.0,0.0,0.0,0.0,0.0,0.0,0.0,0.0,0.0,0.0,0.0,0.0,0.0,0.0,0.0,0.0,0.0,0.0,0.0,0.0,0.0,0.0,0.0,0.0,0.0,0.0,0.0,0.0,0.0,0.0,0.0,0.0,0.0,0.0,0.0,0.0,0.0,0.0,0.0,0.0,0.0,0.0,0.0,0.0,0.0,0.0,0.0,0.0,0.0,0.0,0.0,0.0,0.0,0.0,0.0,0.0,0.0,0.0,0.0,0.0,0.0,0.0,0.0,0.0,0.0,0.0,0.0,0.0,0.0,0.0,0.0,0.0,0.0,0.0,0.0,0.0,0.0,0.0,0.0,0.0,0.0,0.0,0.0,0.0,0.0,0.0,0.0,0.0,0.0,0.0,0.0,0.0,0.0,0.0,0.0,0.0,0.0,0.0,0.0,0.0,0.0,0.0,0.0,0.0,0.0,0.0,0.0,0.0,0.0,0.0,0.0,0.0,0.0,0.0,0.0,0.0,0.0,0.0,0.0,0.0,0.0,0.0,0.0,0.0,0.0,0.0,0.0,0.0,0.0,0.0,0.0,0.0,0.0,0.0,0.0,0.0,0.0,0.0,0.0,0.0,0.0,0.0,0.0,0.0,0.0,0.0,0.0,0.0,0.0,0.0,0.0,0.0,0.0,0.0,0.0,0.0,0.0,0.0,0.0,0.0,0.0,0.0,0.0,0.0,0.0,0.0,0.0,0.0,0.0,0.0,0.0,0.0,0.0,0.0,0.0,0.0,0.0,0.0,0.0,0.0,0.0,0.0,0.0,0.0,0.0,0.0,0.0,0.0,0.0,0.0,0.0,0.0,0.0,0.0,0.0,0.0,0.0,0.0,0.0,0.0,0.0,0.0,0.0,0.0,0.0,0.0,0.0,0.0,0.0,0.0,0.0,0.0,0.0,0.0,0.0,0.0,0.0,0.0,0.0,0.0,0.0,0.0,0.0,0.0,0.0,0.0,0.0,0.0,0.0,0.0,0.0,0.0,0.0,0.0,0.0,0.0,0.0,-5.1538,0.0,0.0,0.0,0.0,0.0,0.0,0.0,0.0,0.0,0.0,0.0,0.0,0.0,0.0,0.0,0.0,0.0,0.0,0.0,0.0,0.0,0.0,0.0,0.0,0.0,0.0,0.0,0.0,0.0,0.0,0.0,0.0,0.0,0.0,0.0,0.0,0.0,0.0,0.0,0.0,0.0,0.0,0.0,0.0,0.0,0.0,0.0,0.0,0.0,0.0,0.0,0.0,0.0,0.0,0.0,0.0,0.0,0.0,0.0,0.0,0.0,0.0,0.0,0.0,0.0,0.0,0.0,0.0,0.0,0.0,0.0,0.0,0.0,0.0,0.0,0.0,0.0,0.0,0.0,0.0,0.0,0.0,0.0,0.0,0.0,0.0,0.0,0.0,0.0,0.0,0.0,0.0,0.0,0.0,0.0,0.0,0.0,0.0,0.0,0.0,0.0,0.0,0.0,0.0,0.0,0.0,0.0,0.0,0.0,0.0,-5.4741,-5.3933,-5.3049,-5.2385,-5.1885,0.0,0.0,0.0,0.0,0.0,0.0,0.0,0.0,0.0,0.0,0.0,0.0,0.0,0.0,0.0,0.0,0.0,0.0,0.0,0.0,0.0,0.0,0.0,0.0,0.0,0.0,0.0,0.0,0.0,0.0,0.0,0.0,0.0,0.0,0.0,0.0,0.0,0.0,0.0,0.0,0.0,0.0,0.0,0.0,0.0,0.0,0.0,0.0,0.0,0.0,0.0,0.0,0.0,0.0,0.0,0.0,0.0,0.0,0.0,0.0,0.0,0.0,0.0,0.0,0.0,0.0,0.0,0.0,0.0,0.0,0.0,0.0,0.0,0.0,0.0,0.0,0.0,0.0,0.0,0.0,0.0,0.0,0.0,0.0,0.0,0.0,0.0,0.0,0.0,0.0,0.0,0.0,0.0,0.0,0.0,0.0,0.0,0.0,0.0,0.0,0.0,0.0,0.0,0.0,0.0,0.0,0.0,0.0,0.0,0.0,0.0,0.0,-5.3933,-5.301,-5.1923,0.0,0.0,0.0,0.0,0.0,0.0,0.0,0.0,0.0,0.0,0.0,0.0,0.0,0.0,0.0,0.0,0.0,0.0,0.0,0.0,0.0,0.0,0.0,0.0,0.0,0.0,0.0,0.0,0.0,0.0,0.0,0.0,0.0,0.0,0.0,0.0,0.0,0.0,0.0,0.0,0.0,0.0,0.0,0.0,0.0,0.0,0.0,0.0,0.0,0.0,0.0,0.0,0.0,0.0,0.0,0.0,0.0,0.0,0.0,0.0,0.0,0.0,0.0,0.0,0.0,0.0,0.0,0.0,0.0,0.0,0.0,0.0,0.0,0.0,0.0,0.0,0.0,0.0,0.0,0.0,0.0,0.0,0.0,0.0,0.0,0.0,0.0,0.0,0.0,0.0,0.0,0.0,0.0,0.0,0.0,0.0,0.0,0.0,0.0,0.0,0.0,0.0,0.0,0.0,0.0,0.0,0.0,0.0,0.0,0.0,-5.5665,-5.5588,-5.478,0.0,-5.2,0.0,0.0,0.0,0.0,0.0,0.0,0.0,0.0,0.0,0.0,0.0,0.0,0.0,0.0,0.0,0.0,0.0,0.0,0.0,0.0,0.0,0.0,0.0,0.0,0.0,0.0,0.0,0.0,0.0,0.0,0.0,0.0,0.0,0.0,0.0,0.0,0.0,0.0,0.0,0.0,0.0,0.0,0.0,0.0,0.0,0.0,0.0,0.0,0.0,0.0,0.0,0.0,0.0,0.0,0.0,0.0,0.0,0.0,0.0,0.0,0.0,0.0,0.0,0.0,0.0,0.0,0.0,0.0,0.0,0.0,0.0,0.0,0.0,0.0,0.0,0.0,0.0,0.0,0.0,0.0,0.0,0.0,0.0,0.0,0.0,0.0,0.0,0.0,0.0,0.0,0.0,0.0,0.0,0.0,0.0,0.0,0.0,0.0,0.0,0.0,0.0,0.0,0.0,0.0,0.0,0.0,0.0,0.0,0.0,0.0,-5.5703,-5.5703,-5.4434,-5.3164,0.0,0.0,0.0,0.0,0.0,0.0,0.0,0.0,0.0,0.0,0.0,0.0,0.0,0.0,0.0,0.0,0.0,0.0,0.0,0.0,0.0,0.0,0.0,0.0,0.0,0.0,0.0,0.0,0.0,0.0,0.0,0.0,0.0,0.0,0.0,0.0,0.0,0.0,0.0,0.0,0.0,0.0,0.0,0.0,0.0,0.0,0.0,0.0,0.0,0.0,0.0,0.0,0.0,0.0,0.0,0.0,0.0,0.0,0.0,0.0,0.0,0.0,0.0,0.0,0.0,0.0,0.0,0.0,0.0,0.0,0.0,0.0,0.0,0.0,0.0,0.0,0.0,0.0,0.0,0.0,0.0,0.0,0.0,0.0,0.0,0.0,0.0,0.0,0.0,0.0,0.0,0.0,0.0,0.0,0.0,0.0,0.0,0.0,0.0,0.0,0.0,0.0,0.0,0.0,0.0,0.0,0.0,0.0,0.0,0.0,-5.5703,-5.5703,-5.5626,-5.4087,-5.2885,-5.2269,0.0,0.0,0.0,0.0,0.0,0.0,0.0,0.0,0.0,0.0,0.0,0.0,0.0,0.0,0.0,0.0,0.0,0.0,0.0,0.0,0.0,0.0,0.0,0.0,0.0,0.0,0.0,0.0,0.0,0.0,0.0,0.0,0.0,0.0,0.0,0.0,0.0,0.0,0.0,0.0,0.0,0.0,0.0,0.0,0.0,0.0,0.0,0.0,0.0,0.0,0.0,0.0,0.0,0.0,0.0,0.0,0.0,0.0,0.0,0.0,0.0,0.0,0.0,0.0,0.0,0.0,0.0,0.0,0.0,0.0,0.0,0.0,0.0,0.0,0.0,0.0,0.0,0.0,0.0,0.0,0.0,0.0,0.0,0.0,0.0,0.0,0.0,0.0,0.0,0.0,0.0,0.0,0.0,0.0,0.0,0.0,0.0,0.0,0.0,0.0,0.0,0.0,0.0,0.0,0.0,0.0,0.0,0.0,-5.5703,-5.5703,-5.5703,-5.5703,-5.4087,-5.3203,0.0,0.0,0.0,0.0,0.0,0.0,0.0,0.0,0.0,0.0,0.0,0.0,0.0,0.0,0.0,0.0,0.0,0.0,0.0,0.0,0.0,0.0,0.0,0.0,0.0,0.0,0.0,0.0,0.0,0.0,0.0,0.0,0.0,0.0,0.0,0.0,0.0,0.0,0.0,0.0,0.0,0.0,0.0,0.0,0.0,0.0,0.0,0.0,0.0,0.0,0.0,0.0,0.0,0.0,0.0,0.0,0.0,0.0,0.0,0.0,0.0,0.0,0.0,0.0,0.0,0.0,0.0,0.0,0.0,0.0,0.0,0.0,0.0,0.0,0.0,0.0,0.0,0.0,0.0,0.0,0.0,0.0,0.0,0.0,0.0,0.0,0.0,0.0,0.0,0.0,0.0,0.0,0.0,0.0,0.0,0.0,0.0,0.0,0.0,0.0,0.0,0.0,0.0,0.0,0.0,0.0,0.0,0.0,0.0,-5.5703,-5.5703,-5.5972,-5.6434,-5.4357,-5.3203,0.0,0.0,0.0,0.0,0.0,0.0,0.0,0.0,0.0,0.0,0.0,0.0,0.0,0.0,0.0,0.0,0.0,0.0,0.0,0.0,0.0,0.0,0.0,0.0,0.0,0.0,0.0,0.0,0.0,0.0,0.0,0.0,0.0,0.0,0.0,0.0,0.0,0.0,0.0,0.0,0.0,0.0,0.0,0.0,0.0,0.0,0.0,0.0,0.0,0.0,0.0,0.0,0.0,0.0,0.0,0.0,0.0,0.0,0.0,0.0,0.0,0.0,0.0,0.0,0.0,0.0,0.0,0.0,0.0,0.0,0.0,0.0,0.0,0.0,0.0,0.0,0.0,0.0,0.0,0.0,0.0,0.0,0.0,0.0,0.0,0.0,0.0,0.0,0.0,0.0,0.0,0.0,0.0,0.0,0.0,0.0,0.0,0.0,0.0,0.0,0.0,0.0,0.0,0.0,0.0,0.0,0.0,0.0,0.0,-5.6126,0.0,-5.6703,0.0,-5.5049,-5.3741,0.0,0.0,0.0,0.0,0.0,0.0,0.0,0.0,0.0,0.0,0.0,0.0,0.0,0.0,0.0,0.0,0.0,0.0,0.0,0.0,0.0,0.0,0.0,0.0,0.0,0.0,0.0,0.0,0.0,0.0,0.0,0.0,0.0,0.0,0.0,0.0,0.0,0.0,0.0,0.0,0.0,0.0,0.0,0.0,0.0,0.0,0.0,0.0,0.0,0.0,0.0,0.0,0.0,0.0,0.0,0.0,0.0,0.0,0.0,0.0,0.0,0.0,0.0,0.0,0.0,0.0,0.0,0.0,0.0,0.0,0.0,0.0,0.0,0.0,0.0,0.0,0.0,0.0,0.0,0.0,0.0,0.0,0.0,0.0,0.0,0.0,0.0,0.0,0.0,0.0,0.0,0.0,0.0,0.0,0.0,0.0,0.0,0.0,0.0,0.0,0.0,0.0,0.0,0.0,0.0,0.0,0.0,0.0,-5.6203,-5.7022,-5.7857,-5.7857,-5.706,-5.6137,-5.4895,0.0,0.0,0.0,0.0,0.0,0.0,0.0,0.0,0.0,0.0,0.0,0.0,0.0,0.0,0.0,0.0,0.0,0.0,0.0,0.0,0.0,0.0,0.0,0.0,0.0,0.0,0.0,0.0,0.0,0.0,0.0,0.0,0.0,0.0,0.0,0.0,0.0,0.0,0.0,0.0,0.0,0.0,0.0,0.0,0.0,0.0,0.0,0.0,0.0,0.0,0.0,0.0,0.0,0.0,0.0,0.0,0.0,0.0,0.0,0.0,0.0,0.0,0.0,0.0,0.0,0.0,0.0,0.0,0.0,0.0,0.0,0.0,0.0,0.0,0.0,0.0,0.0,0.0,0.0,0.0,0.0,0.0,0.0,0.0,0.0,0.0,0.0,0.0,0.0,0.0,0.0,0.0,0.0,0.0,0.0,0.0,0.0,0.0,0.0,0.0,0.0,0.0,0.0,0.0,0.0,0.0,0.0,0.0,0.0,-5.8704,-5.8434,-5.8434,-5.8627,-5.6742,-5.5203,0.0,0.0,0.0,0.0,0.0,0.0,0.0,0.0,0.0,0.0,0.0,0.0,0.0,0.0,0.0,0.0,0.0,0.0,0.0,0.0,0.0,0.0,0.0,0.0,0.0,0.0,0.0,0.0,0.0,0.0,0.0,0.0,0.0,0.0,0.0,0.0,0.0,0.0,0.0,0.0,0.0,0.0,0.0,0.0,0.0,0.0,0.0,0.0,0.0,0.0,0.0,0.0,0.0,0.0,0.0,0.0,0.0,0.0,0.0,0.0,0.0,0.0,0.0,0.0,0.0,0.0,0.0,0.0,0.0,0.0,0.0,0.0,0.0,0.0,0.0,0.0,0.0,0.0,0.0,0.0,0.0,0.0,0.0,0.0,0.0,0.0,0.0,0.0,0.0,0.0,0.0,0.0,0.0,0.0,0.0,0.0,0.0,0.0,0.0,0.0,0.0,0.0,0.0,0.0,0.0,0.0,0.0,0.0,0.0,-6.1396,-6.0589,-6.0089,-6.0012,-5.8434,-5.6742,-5.5011,0.0,0.0,0.0,0.0,0.0,0.0,0.0,0.0,0.0,0.0,0.0,0.0,0.0,0.0,0.0,0.0,0.0,0.0,0.0,0.0,0.0,0.0,0.0,0.0,0.0,0.0,0.0,0.0,0.0,0.0,0.0,0.0,0.0,0.0,0.0,0.0,0.0,0.0,0.0,0.0,0.0,0.0,0.0,0.0,0.0,0.0,0.0,0.0,0.0,0.0,0.0,0.0,0.0,0.0,0.0,0.0,0.0,0.0,0.0,0.0,0.0,0.0,0.0,0.0,0.0,0.0,0.0,0.0,0.0,0.0,0.0,0.0,0.0,0.0,0.0,0.0,0.0,0.0,0.0,0.0,0.0,0.0,0.0,0.0,0.0,0.0,0.0,0.0,0.0,0.0,0.0,0.0,0.0,0.0,0.0,0.0,0.0,0.0,0.0,0.0,0.0,0.0,0.0,0.0,0.0,0.0,0.0,0.0,-6.4705,-6.4012,-6.282,-6.1089,-6.0896,-5.9281,0.0,0.0,0.0,0.0,0.0,0.0,0.0,0.0,0.0,0.0,0.0,0.0,0.0,0.0,0.0,0.0,0.0,0.0,0.0,0.0,0.0,0.0,0.0,0.0,0.0,0.0,0.0,0.0,0.0,0.0,0.0,0.0,0.0,0.0,0.0,0.0,0.0,0.0,0.0,0.0,0.0,0.0,0.0,0.0,0.0,0.0,0.0,0.0,0.0,0.0,0.0,0.0,0.0,0.0,0.0,0.0,0.0,0.0,0.0,0.0,0.0,0.0,0.0,0.0,0.0,0.0,0.0,0.0,0.0,0.0,0.0,0.0,0.0,0.0,0.0,0.0,0.0,0.0,0.0,0.0,0.0,0.0,0.0,0.0,0.0,0.0,0.0,0.0,0.0,0.0,0.0,0.0,0.0,0.0,0.0,0.0,0.0,0.0,0.0,0.0,0.0,0.0,0.0,0.0,0.0,0.0,0.0,0.0,0.0,-6.6397,-6.7475,-6.6628,-6.3705,-6.2397,-6.0435,0.0,0.0,0.0,0.0,0.0,0.0,0.0,0.0,0.0,0.0,0.0,0.0,0.0,0.0,0.0,0.0,0.0,0.0,0.0,0.0,0.0,0.0,0.0,0.0,0.0,0.0,0.0,0.0,0.0,0.0,0.0,0.0,0.0,0.0,0.0,0.0,0.0,0.0,0.0,0.0,0.0,0.0,0.0,0.0,0.0,0.0,0.0,0.0,0.0,0.0,0.0,0.0,0.0,0.0,0.0,0.0,0.0,0.0,0.0,0.0,0.0,0.0,0.0,0.0,0.0,0.0,0.0,0.0,0.0,0.0,0.0,0.0,0.0,0.0,0.0,0.0,0.0,0.0,0.0,0.0,0.0,0.0,0.0,0.0,0.0,0.0,0.0,0.0,0.0,0.0,0.0,0.0,0.0,0.0,0.0,0.0,0.0,0.0,0.0,0.0,0.0,0.0,0.0,0.0,0.0,0.0,0.0,0.0,-6.7013,-6.8667,-7.0398,-7.0014,-6.7321,-6.5243,-6.282,0.0,0.0,0.0,0.0,0.0,0.0,0.0,0.0,0.0,0.0,0.0,0.0,0.0,0.0,0.0,0.0,0.0,0.0,0.0,0.0,0.0,0.0,0.0,0.0,0.0,0.0,0.0,0.0,0.0,0.0,0.0,0.0,0.0,0.0,0.0,0.0,0.0,0.0,0.0,0.0,0.0,0.0,0.0,0.0,0.0,0.0,0.0,0.0,0.0,0.0,0.0,0.0,0.0,0.0,0.0,0.0,0.0,0.0,0.0,0.0,0.0,0.0,0.0,0.0,0.0,0.0,0.0,0.0,0.0,0.0,0.0,0.0,0.0,0.0,0.0,0.0,0.0,0.0,0.0,0.0,0.0,0.0,0.0,0.0,0.0,0.0,0.0,0.0,0.0,0.0,0.0,0.0,0.0,0.0,0.0,0.0,0.0,0.0,0.0,0.0,0.0,0.0,0.0,0.0,0.0,0.0,0.0,0.0,-6.9244,-7.1014,-7.2745,-7.286,-7.1168,-6.8629,-6.5667,0.0,0.0,0.0,0.0,0.0,0.0,0.0,0.0,0.0,0.0,0.0,0.0,0.0,0.0,0.0,0.0,0.0,0.0,0.0,0.0,0.0,0.0,0.0,0.0,0.0,0.0,0.0,0.0,0.0,0.0,0.0,0.0,0.0,0.0,0.0,0.0,0.0,0.0,0.0,0.0,0.0,0.0,0.0,0.0,0.0,0.0,0.0,0.0,0.0,0.0,0.0,0.0,0.0,0.0,0.0,0.0,0.0,0.0,0.0,0.0,0.0,0.0,0.0,0.0,0.0,0.0,0.0,0.0,0.0,0.0,0.0,0.0,0.0,0.0,0.0,0.0,0.0,0.0,0.0,0.0,0.0,0.0,0.0,0.0,0.0,0.0,0.0,0.0,0.0,0.0,0.0,0.0,0.0,0.0,0.0,0.0,0.0,0.0,0.0,0.0,0.0,0.0,0.0,0.0,0.0,0.0,0.0,0.0,-6.9552,-7.1898,-7.3553,-7.3976,-7.2976,-6.9821,-6.6513,0.0,0.0,0.0,0.0,0.0,0.0,0.0,0.0,0.0,0.0,0.0,0.0,0.0,0.0,0.0,0.0,0.0,0.0,0.0,0.0,0.0,0.0,0.0,0.0,0.0,0.0,0.0,0.0,0.0,0.0,0.0,0.0,0.0,0.0,0.0,0.0,0.0,0.0,0.0,0.0,0.0,0.0,0.0,0.0,0.0,0.0,0.0,0.0,-5.5228,0.0,0.0,0.0,0.0,0.0,0.0,0.0,0.0,0.0,0.0,0.0,0.0,0.0,0.0,0.0,0.0,0.0,0.0,0.0,0.0,0.0,0.0,0.0,0.0,0.0,0.0,0.0,0.0,0.0,0.0,0.0,0.0,0.0,0.0,0.0,0.0,0.0,0.0,0.0,0.0,0.0,0.0,0.0,0.0,0.0,0.0,0.0,0.0,0.0,0.0,0.0,0.0,0.0,0.0,0.0,0.0,0.0,0.0,0.0,-7.1245,-7.3322,-7.463,-7.4745,-7.3462,-7.0937,-6.8013,0.0,0.0,0.0,0.0,0.0,0.0,0.0,0.0,0.0,0.0,0.0,0.0,0.0,0.0,0.0,0.0,0.0,0.0,0.0,0.0,0.0,0.0,0.0,0.0,0.0,0.0,0.0,0.0,0.0,0.0,0.0,0.0,0.0,0.0,0.0,0.0,0.0,0.0,0.0,0.0,0.0,0.0,0.0,0.0,0.0,0.0,0.0,0.0,0.0,0.0,0.0,0.0,0.0,0.0,0.0,0.0,0.0,0.0,0.0,0.0,0.0,0.0,0.0,0.0,0.0,0.0,0.0,0.0,0.0,0.0,0.0,0.0,0.0,0.0,0.0,0.0,0.0,0.0,0.0,0.0,0.0,0.0,0.0,0.0,0.0,0.0,0.0,0.0,0.0,0.0,0.0,0.0,0.0,0.0,0.0,0.0,0.0,0.0,0.0,0.0,0.0,0.0,0.0,0.0,0.0,0.0,0.0,-7.1052,-7.3206,-7.4861,-7.5745,-7.5399,-7.3731,-7.186,-6.9321,-6.6013,0.0,0.0,0.0,0.0,0.0,0.0,0.0,0.0,0.0,0.0,0.0,0.0,0.0,0.0,0.0,0.0,0.0,0.0,0.0,0.0,0.0,0.0,0.0,0.0,0.0,0.0,0.0,0.0,0.0,0.0,0.0,0.0,0.0,0.0,0.0,0.0,0.0,0.0,-5.3978,-5.5428,0.0,0.0,0.0,0.0,0.0,0.0,0.0,0.0,-5.7044,0.0,0.0,0.0,0.0,0.0,0.0,0.0,0.0,0.0,0.0,0.0,0.0,0.0,0.0,0.0,0.0,0.0,0.0,0.0,0.0,0.0,0.0,0.0,0.0,0.0,0.0,0.0,0.0,0.0,0.0,0.0,0.0,0.0,0.0,0.0,0.0,0.0,0.0,0.0,0.0,0.0,0.0,0.0,0.0,0.0,0.0,0.0,0.0,0.0,0.0,0.0,0.0,0.0,0.0,0.0,0.0,-6.8385,-7.1629,-7.4091,-7.5745,-7.663,-7.6284,-7.4514,-7.2168,-6.9321,-6.5974,0.0,0.0,0.0,0.0,0.0,0.0,0.0,0.0,0.0,0.0,0.0,0.0,0.0,0.0,0.0,0.0,0.0,0.0,0.0,0.0,0.0,0.0,0.0,0.0,0.0,0.0,0.0,0.0,0.0,0.0,0.0,0.0,0.0,0.0,0.0,0.0,0.0,0.0,0.0,-5.6815,-5.7522,0.0,0.0,0.0,0.0,0.0,0.0,0.0,0.0,-5.6806,0.0,0.0,0.0,0.0,0.0,0.0,0.0,0.0,0.0,0.0,0.0,0.0,0.0,0.0,0.0,0.0,0.0,0.0,0.0,0.0,0.0,0.0,0.0,0.0,0.0,0.0,0.0,0.0,0.0,0.0,0.0,0.0,0.0,0.0,0.0,0.0,0.0,0.0,0.0,0.0,0.0,0.0,0.0,0.0,0.0,0.0,0.0,0.0,0.0,0.0,0.0,0.0,0.0,0.0,0.0,-6.9667,-7.2629,-7.4938,-7.6592,-7.7092,-7.6476,-7.4745,-7.2245,-6.936,0.0,0.0,0.0,0.0,0.0,0.0,0.0,0.0,0.0,0.0,0.0,0.0,0.0,0.0,0.0,0.0,0.0,0.0,0.0,0.0,0.0,0.0,0.0,0.0,0.0,0.0,0.0,0.0,0.0,0.0,0.0,0.0,0.0,0.0,0.0,0.0,0.0,0.0,0.0,0.0,-5.7061,-5.7732,-5.7788,0.0,0.0,0.0,0.0,0.0,0.0,-5.7731,-5.7444,0.0,0.0,0.0,0.0,0.0,0.0,0.0,0.0,0.0,0.0,0.0,0.0,0.0,0.0,0.0,0.0,0.0,0.0,0.0,0.0,0.0,0.0,0.0,0.0,0.0,0.0,0.0,0.0,0.0,0.0,0.0,0.0,0.0,0.0,0.0,0.0,0.0,0.0,0.0,0.0,0.0,0.0,0.0,0.0,0.0,0.0,0.0,0.0,0.0,0.0,0.0,0.0,0.0,0.0,0.0,-7.1091,-7.3668,-7.5784,-7.7438,-7.7515,-7.663,-7.4745,-7.2245,-6.9244,0.0,0.0,0.0,0.0,0.0,0.0,0.0,0.0,0.0,0.0,0.0,0.0,0.0,0.0,0.0,0.0,0.0,0.0,0.0,0.0,0.0,0.0,0.0,0.0,0.0,0.0,0.0,0.0,0.0,0.0,0.0,0.0,0.0,0.0,0.0,0.0,0.0,0.0,0.0,0.0,0.0,-5.8095,-5.8762,-5.9022,0.0,0.0,0.0,0.0,-5.8983,-5.855,0.0,0.0,0.0,0.0,0.0,0.0,0.0,0.0,0.0,0.0,0.0,0.0,0.0,0.0,0.0,0.0,0.0,0.0,0.0,0.0,0.0,0.0,0.0,0.0,0.0,0.0,0.0,0.0,0.0,0.0,0.0,0.0,0.0,0.0,0.0,0.0,0.0,0.0,0.0,0.0,0.0,0.0,0.0,0.0,0.0,0.0,0.0,0.0,0.0,0.0,0.0,0.0,0.0,0.0,0.0,0.0,-7.1937,-7.4553,-7.6669,-7.8261,-7.8376,-7.7169,-7.4745,-7.2245,-6.8975,0.0,0.0,0.0,0.0,0.0,0.0,0.0,0.0,0.0,0.0,0.0,0.0,0.0,0.0,0.0,0.0,0.0,0.0,0.0,0.0,0.0,0.0,0.0,0.0,0.0,0.0,0.0,0.0,0.0,0.0,0.0,0.0,0.0,0.0,0.0,0.0,0.0,0.0,0.0,0.0,0.0,-5.9398,-5.9472,-6.01,-6.0558,0.0,0.0,-6.0285,-5.9642,-5.9492,0.0,0.0,0.0,0.0,0.0,0.0,0.0,0.0,0.0,0.0,0.0,0.0,0.0,0.0,0.0,0.0,0.0,0.0,0.0,0.0,0.0,0.0,0.0,0.0,0.0,0.0,0.0,0.0,0.0,0.0,0.0,0.0,0.0,0.0,0.0,0.0,0.0,0.0,0.0,0.0,0.0,0.0,0.0,0.0,0.0,0.0,0.0,0.0,0.0,0.0,0.0,0.0,0.0,0.0,0.0,-6.7731,-7.1398,-7.3976,-7.6092,-7.7746,-7.7823,-7.6823,-7.4745,-7.2245,-6.8936,0.0,0.0,0.0,0.0,0.0,0.0,0.0,0.0,0.0,0.0,0.0,0.0,0.0,0.0,0.0,0.0,0.0,0.0,0.0,0.0,0.0,0.0,0.0,0.0,0.0,0.0,0.0,0.0,0.0,0.0,0.0,0.0,0.0,0.0,0.0,0.0,0.0,0.0,0.0,0.0,0.0,0.0,-5.9371,-6.007,0.0,0.0,0.0,-6.0475,-6.0107,0.0,0.0,0.0,0.0,0.0,0.0,0.0,0.0,0.0,0.0,0.0,0.0,0.0,0.0,0.0,0.0,0.0,0.0,0.0,0.0,0.0,0.0,0.0,0.0,0.0,0.0,0.0,0.0,0.0,0.0,0.0,0.0,0.0,0.0,0.0,0.0,0.0,0.0,0.0,0.0,0.0,0.0,0.0,0.0,0.0,0.0,0.0,0.0,0.0,0.0,0.0,0.0,0.0,0.0,0.0,0.0,0.0,-7.1168,-7.3514,-7.5553,-7.7246,-7.7284,-7.6361,-7.4437,-7.2129,0.0,0.0,0.0,0.0,0.0,0.0,0.0,0.0,0.0,0.0,0.0,0.0,0.0,0.0,0.0,0.0,0.0,0.0,0.0,0.0,0.0,0.0,0.0,0.0,0.0,0.0,0.0,-4.501,0.0,0.0,0.0,0.0,0.0,0.0,0.0,0.0,0.0,0.0,0.0,0.0,0.0,0.0,-5.9551,-5.9771,-6.0493,-6.1006,0.0,0.0,-6.0933,-6.0713,-6.0147,-5.9568,0.0,0.0,0.0,0.0,0.0,0.0,0.0,0.0,0.0,0.0,0.0,0.0,0.0,0.0,0.0,0.0,0.0,0.0,0.0,0.0,0.0,0.0,0.0,0.0,0.0,0.0,0.0,0.0,0.0,0.0,0.0,0.0,0.0,0.0,0.0,0.0,0.0,0.0,0.0,0.0,0.0,0.0,0.0,0.0,0.0,0.0,0.0,0.0,0.0,0.0,0.0,0.0,0.0,0.0,-6.728,-7.1989,-7.3822,-7.5553,-7.7207,-7.7284,-7.6092,-7.3668,-7.1822,-6.8552,0.0,0.0,0.0,0.0,0.0,0.0,0.0,0.0,0.0,0.0,0.0,0.0,0.0,0.0,0.0,0.0,0.0,0.0,0.0,0.0,0.0,0.0,0.0,0.0,0.0,0.0,0.0,0.0,0.0,0.0,0.0,0.0,0.0,0.0,0.0,0.0,0.0,0.0,0.0,0.0,0.0,-6.0603,-6.1337,-6.2144,-6.2633,0.0,-6.2658,-6.2401,-6.163,-6.086,-6.0028,-5.9151,0.0,0.0,0.0,0.0,0.0,0.0,0.0,0.0,0.0,0.0,0.0,0.0,0.0,0.0,0.0,0.0,0.0,0.0,0.0,0.0,0.0,0.0,0.0,0.0,0.0,0.0,0.0,0.0,0.0,0.0,0.0,0.0,0.0,0.0,0.0,0.0,0.0,0.0,0.0,0.0,0.0,0.0,0.0,0.0,0.0,0.0,0.0,0.0,0.0,0.0,0.0,0.0,0.0,-6.674,-7.0591,-7.286,-7.4784,-7.6399,-7.6515,-7.5515,-7.3553,-7.1822,-6.8783,0.0,0.0,0.0,0.0,0.0,0.0,0.0,0.0,0.0,0.0,0.0,0.0,0.0,0.0,0.0,0.0,0.0,0.0,0.0,0.0,0.0,0.0,0.0,0.0,0.0,0.0,0.0,0.0,-4.519,-4.4904,-4.5244,0.0,0.0,0.0,0.0,0.0,0.0,0.0,0.0,0.0,0.0,-6.086,-6.2144,-6.2622,0.0,0.0,-6.3172,-6.2682,-6.224,-6.1104,-6.014,-5.9688,-5.8203,0.0,0.0,0.0,0.0,0.0,0.0,0.0,0.0,0.0,0.0,0.0,0.0,0.0,0.0,0.0,0.0,0.0,0.0,0.0,0.0,0.0,0.0,0.0,0.0,0.0,0.0,0.0,0.0,0.0,0.0,0.0,0.0,0.0,0.0,0.0,0.0,0.0,0.0,0.0,0.0,0.0,0.0,0.0,0.0,0.0,0.0,0.0,0.0,0.0,0.0,0.0,0.0,-6.6278,-7.0052,-7.236,-7.4322,-7.5976,-7.5976,-7.5207,-7.3538,-7.1822,-6.8936,0.0,0.0,0.0,0.0,0.0,0.0,0.0,0.0,0.0,0.0,0.0,0.0,0.0,0.0,0.0,0.0,0.0,0.0,0.0,0.0,0.0,0.0,0.0,0.0,0.0,0.0,0.0,0.0,-4.5873,-4.5685,-4.6341,0.0,0.0,0.0,0.0,0.0,0.0,0.0,0.0,0.0,0.0,-6.1006,-6.2585,-6.3025,-6.3429,-6.4016,-6.3525,-6.3071,-6.2969,-6.154,-6.038,-6.0253,0.0,0.0,0.0,0.0,0.0,0.0,0.0,0.0,0.0,0.0,0.0,0.0,0.0,0.0,0.0,0.0,0.0,0.0,0.0,0.0,0.0,0.0,0.0,0.0,0.0,0.0,0.0,-6.0342,0.0,0.0,-5.9052,0.0,0.0,0.0,0.0,0.0,0.0,0.0,0.0,0.0,0.0,0.0,0.0,0.0,0.0,0.0,0.0,0.0,0.0,0.0,0.0,0.0,0.0,-6.597,-7.0783,-7.2591,-7.4322,-7.5899,-7.5976,-7.5168,-7.3553,-7.1822,-6.8936,-6.4705,0.0,0.0,0.0,0.0,0.0,0.0,0.0,0.0,0.0,0.0,0.0,0.0,0.0,0.0,0.0,0.0,0.0,0.0,0.0,0.0,0.0,0.0,0.0,0.0,0.0,0.0,-4.6301,-4.6063,-4.6232,0.0,0.0,0.0,0.0,0.0,0.0,0.0,0.0,0.0,-5.8781,-5.9905,-6.1006,-6.2585,-6.3539,-6.4053,-6.409,-6.3925,-6.3811,-6.3748,-6.2162,-6.0933,0.0,0.0,0.0,0.0,0.0,0.0,0.0,0.0,0.0,0.0,0.0,0.0,0.0,0.0,0.0,0.0,0.0,0.0,0.0,0.0,0.0,0.0,0.0,0.0,0.0,0.0,0.0,-6.3162,-6.2041,0.0,0.0,0.0,0.0,0.0,0.0,0.0,0.0,0.0,0.0,0.0,-6.581,-6.5738,0.0,0.0,0.0,0.0,0.0,0.0,0.0,0.0,0.0,0.0,0.0,0.0,-6.5933,-6.9206,-7.2052,-7.4014,-7.5091,-7.513,-7.463,-7.35,-7.1822,-6.8629,-6.3897,0.0,0.0,0.0,0.0,0.0,0.0,0.0,0.0,0.0,0.0,0.0,0.0,0.0,0.0,0.0,0.0,0.0,0.0,0.0,0.0,0.0,0.0,0.0,0.0,0.0,-4.6483,0.0,0.0,0.0,0.0,0.0,0.0,0.0,0.0,0.0,0.0,0.0,-5.7666,-5.9001,-6.0346,-6.1777,-6.3429,-6.3906,-6.4248,0.0,0.0,0.0,0.0,0.0,0.0,0.0,0.0,0.0,0.0,0.0,0.0,0.0,0.0,-5.7127,-5.4484,-5.4049,-5.4021,-5.374,0.0,0.0,0.0,0.0,0.0,0.0,0.0,0.0,0.0,0.0,0.0,0.0,0.0,0.0,-6.5706,-6.4587,-6.3748,0.0,0.0,0.0,0.0,0.0,0.0,0.0,0.0,-6.734,-6.8001,-6.826,-6.8217,-6.8016,0.0,-6.6243,-6.4427,0.0,0.0,0.0,0.0,0.0,0.0,0.0,0.0,-6.6075,-6.8821,-7.1629,-7.3437,-7.4245,-7.4284,-7.3899,-7.3053,-7.0783,-6.759,-6.3423,-6.0358,-5.755,0.0,0.0,0.0,0.0,0.0,0.0,0.0,0.0,0.0,0.0,0.0,0.0,0.0,0.0,0.0,0.0,0.0,0.0,0.0,0.0,0.0,0.0,0.0,-4.7519,0.0,0.0,0.0,0.0,0.0,0.0,0.0,0.0,0.0,-5.4876,-5.6675,-5.851,-5.9869,-6.0933,-6.2181,-6.387,0.0,0.0,0.0,0.0,0.0,0.0,0.0,-6.173,-6.1051,-6.0281,-5.9713,-5.9682,-5.98,-5.9971,-5.9929,0.0,0.0,-5.6382,-5.5991,-5.6116,-5.6041,-5.6145,-5.6283,-5.6396,-5.6418,-5.6418,0.0,0.0,0.0,0.0,0.0,0.0,0.0,0.0,-6.9993,-6.9376,0.0,-6.6947,0.0,0.0,0.0,0.0,-6.4189,-6.5901,0.0,0.0,-6.9541,-7.0738,-7.1416,-7.1366,-7.0919,-7.0106,-6.9164,-6.7884,-6.6102,-6.2132,0.0,0.0,0.0,0.0,0.0,0.0,-6.6371,-6.9552,-7.1321,-7.2629,-7.3437,-7.3462,-7.3053,-7.2091,-6.8898,-6.6051,-6.3474,-6.0973,-5.8434,-5.5934,-5.4203,0.0,0.0,0.0,0.0,0.0,0.0,0.0,0.0,0.0,0.0,0.0,0.0,0.0,0.0,0.0,0.0,0.0,0.0,0.0,0.0,-4.8178,0.0,0.0,0.0,0.0,0.0,0.0,0.0,0.0,0.0,0.0,-5.8143,-5.818,-5.8951,-6.13,0.0,0.0,0.0,0.0,-6.5294,-6.5897,-6.5583,-6.5268,-6.5082,-6.3855,-6.2914,-6.2843,0.0,0.0,-6.2356,-6.2649,-6.2683,-6.2383,-6.1771,-6.0726,-5.8762,-5.8482,-5.8358,-5.7814,-5.7776,-5.793,-5.8047,-5.807,-5.807,-7.5233,0.0,0.0,0.0,0.0,-7.064,-7.0632,-7.067,-7.0941,-7.0464,-6.9386,-6.8558,0.0,0.0,0.0,0.0,0.0,0.0,-6.9592,-7.0409,-7.2035,-7.2872,-7.3037,-7.3017,-7.2877,-7.2607,-7.1116,-7.0115,-6.9475,-6.6542,-6.3913,-6.1509,0.0,0.0,0.0,0.0,-6.7218,-6.8821,-7.1052,-7.2322,-7.2552,-7.2552,-7.1898,-7.0437,-6.8898,-6.7128,-6.5205,-6.2704,-6.0435,-5.8473,-5.6203,0.0,0.0,0.0,0.0,0.0,0.0,0.0,0.0,0.0,0.0,0.0,0.0,0.0,0.0,0.0,0.0,0.0,0.0,0.0,-4.7612,-4.8847,-4.9584,0.0,0.0,0.0,0.0,0.0,0.0,0.0,0.0,0.0,-6.1117,-6.0933,-6.1043,0.0,0.0,-6.3759,-6.4824,-6.5464,-6.5861,-6.5859,-6.5908,0.0,-6.4729,-6.3902,-6.3189,-6.2659,-6.2422,-6.2389,-6.2589,-6.2914,-6.3155,-6.328,-6.2954,-6.2474,-6.1951,-6.0455,-5.9459,-5.9383,-5.9469,-5.9542,-5.9698,-5.9722,-5.9722,-7.8248,-7.5966,-7.405,-7.3237,-7.3275,-7.3635,-7.357,-7.3219,-7.328,-7.28,-7.1921,-7.0782,-6.9776,-6.8826,-6.7213,0.0,0.0,0.0,-7.1288,-7.2379,-7.3632,-7.4371,-7.4629,-7.4628,-7.4409,-7.4023,-7.2713,-7.166,-7.0927,-6.9117,-6.7012,-6.4698,0.0,0.0,-6.4446,-6.6526,-6.8052,-6.8936,-7.0744,-7.1668,-7.1668,-7.136,-7.0744,-6.9706,-6.8513,-6.709,-6.5436,-6.3589,-6.1627,-5.9588,-5.7396,-5.5588,0.0,0.0,0.0,0.0,0.0,0.0,0.0,0.0,0.0,0.0,0.0,-4.9279,-4.9577,0.0,0.0,0.0,-4.8712,-4.8524,-4.8503,-4.972,0.0,0.0,0.0,0.0,0.0,0.0,0.0,-5.7776,-5.8841,-6.0272,-6.2511,-6.2658,-6.2879,-6.3686,-6.4273,-6.4861,-6.5668,0.0,-6.6116,-6.6126,-6.6121,-6.5842,-6.497,-6.4442,-6.3965,-6.3407,-6.3369,-6.3469,-6.3668,-6.4024,-6.4434,-6.4663,-6.4224,-6.3802,-6.3993,-6.2281,-6.0861,-6.109,-6.1189,-6.1239,-6.1312,-6.1374,-6.1374,-8.0708,-7.9723,-7.753,-7.6506,-7.648,-7.7252,-7.7098,-7.6403,-7.6431,-7.5929,-7.4874,-7.342,-7.2184,-7.1093,-6.9745,0.0,-7.0147,-7.1186,-7.2429,-7.3832,-7.4604,-7.5347,-7.5976,-7.5976,-7.5592,-7.4784,-7.3937,-7.2668,-7.1129,-7.0206,-6.936,-6.8462,-6.7051,-6.6244,-6.6167,-6.7705,-6.8898,-6.9667,-7.0514,-7.0898,-7.0898,-7.009,-6.9667,-6.959,-6.7975,-6.632,-6.4666,-6.3782,-6.2204,-5.9819,-5.8138,-5.6791,-5.578,0.0,0.0,0.0,0.0,0.0,0.0,0.0,0.0,0.0,0.0,0.0,0.0,0.0,0.0,0.0,-5.038,0.0,-4.9715,-5.083,0.0,0.0,0.0,-5.3791,-5.4583,-5.6712,-5.8143,-5.8253,0.0,0.0,-6.2915,-6.3759,-6.4567,-6.5411,-6.5448,-6.5705,-6.6476,-6.6345,-6.626,-6.6664,-6.6355,-6.5958,-6.5568,-6.5245,-6.4942,-6.4702,-6.4945,-6.5076,-6.5204,-6.5661,-6.6172,-6.6289,-6.5431,-6.4658,-6.4882,-6.3518,-6.2629,-6.2556,-6.2631,-6.2743,-6.2695,-6.2695,-6.2658,-8.1516,-8.0746,-8.0161,-7.9176,-7.7997,-7.819,-7.8151,-7.7959,-7.7973,-7.7126,-7.5726,-7.5355,-7.3969,-7.1953,-7.2315,-7.2187,-7.1827,-7.3369,-7.4244,-7.4563,-7.5424,-7.5884,-7.5976,-7.5976,-7.5899,-7.5592,-7.4207,-7.3283,-7.2822,-7.136,-7.0206,-6.9436,-6.959,-6.9052,-6.7898,-6.8859,-6.9475,-6.9706,-7.0475,-7.0898,-7.086,-7.009,-6.9398,-6.8744,-6.7667,-6.632,-6.4666,-6.3743,-6.2743,-6.1512,-5.9819,-5.8204,-5.6769,-5.5318,0.0,0.0,0.0,0.0,0.0,0.0,0.0,0.0,0.0,-5.1972,-5.2818,0.0,-5.2536,0.0,-5.2589,-5.2575,-5.2285,-5.3384,0.0,0.0,-5.5227,-5.6271,-5.7079,-5.8217,-5.9391,-6.0603,-6.1777,-6.3062,-6.453,-6.5411,-6.6219,-6.699,-6.6586,-6.6512,-6.7247,-6.7259,-6.7084,-6.6917,-6.6632,-6.6264,-6.5958,-6.5736,-6.5542,-6.5311,-6.5575,-6.5796,-6.5918,-6.6294,-6.651,-6.6183,-6.5469,-6.4819,-6.4416,-6.3452,-6.2828,-6.2755,-6.278,-6.2805,-6.2805,-6.2805,-6.2805,-8.217,-8.1093,-8.1093,-8.0554,-7.9631,-7.9669,-7.9669,-7.9631,-7.9246,-7.8323,-7.7015,-7.5938,-7.463,-7.3374,-7.352,-7.3547,-7.3484,-7.4462,-7.5079,-7.5397,-7.5859,-7.6048,-7.5976,-7.5976,-7.5976,-7.5938,-7.4322,-7.35,-7.3399,-7.1745,-7.0667,-7.0244,-7.0667,-7.0437,-6.959,-7.0014,-7.0244,-7.0244,-7.0667,-7.0898,-7.086,-6.9744,-6.8898,-6.8398,-6.6821,-6.5359,-6.4051,-6.3205,-6.2358,-6.155,-6.0242,-5.9088,-5.8165,-5.6588,-5.5088,0.0,0.0,0.0,0.0,0.0,0.0,0.0,0.0,0.0,0.0,0.0,-5.4265,-5.4081,-5.4468,-5.4754,-5.4777,-5.5604,-5.6354,-5.6826,-5.7516,-5.8249,-5.8988,-5.9795,-6.0603,-6.1484,-6.2328,-6.3441,-6.5081,-6.5705,-6.6402,-6.7504,-6.732,-6.7173,-6.7577,-6.7579,-6.7387,-6.7162,-6.6896,-6.6595,-6.6325,-6.6269,-6.6146,-6.5985,-6.6141,-6.6355,-6.6446,-6.646,-6.6357,-6.6071,-6.5274,-6.4526,-6.4163,-6.3392,-6.2817,-6.2805,-6.2805,-6.2805,-6.2805,-6.2805,-6.2805,-8.2647,-8.1147,-8.1124,-8.1124,-8.1124,-8.1124,-8.1108,-8.1054,-8.0285,-7.9438,-7.8361,-7.5938,-7.4861,-7.4822,-7.42,-7.4304,-7.4973,-7.4988,-7.5438,-7.6076,-7.6076,-7.6048,-7.5976,-7.5976,-7.5976,-7.5938,-7.4284,-7.35,-7.3423,-7.1745,-7.0898,-7.0898,-7.0898,-7.0898,-7.0898,-7.0898,-7.0898,-7.0898,-7.0898,-7.0898,-7.086,-6.9244,-6.8398,-6.8321,-6.5936,-6.4205,-6.332,-6.2512,-6.1716,-6.0819,-6.005,-5.9627,-5.9473,-5.7396,-5.6126,0.0,-5.4664,0.0,0.0,0.0,0.0,0.0,0.0,0.0,0.0,-5.6049,-5.5972,-5.5873,-5.6363,-5.6891,-5.7363,-5.781,-5.8574,-5.9627,-5.9743,-5.9936,-6.0517,-6.1288,-6.1741,-6.1741,-6.2475,-6.3539,-6.4897,-6.5202,-6.5852,-6.7026,-6.721,-6.7173,-6.7357,-6.7459,-6.747,-6.7266,-6.6988,-6.6671,-6.6555,-6.6562,-6.6503,-6.6451,-6.6618,-6.6736,-6.6693,-6.6349,-6.6026,-6.5823,-6.4904,-6.4127,-6.3943,-6.3282,-6.2842,-6.2805,-6.2805,-6.2805,-6.2805,-6.2805,-6.2805,-8.2686,-8.1199,-8.122,-8.1249,-8.1249,-8.1287,-8.1214,-8.1093,-8.0939,-7.9977,-7.84,-7.6553,-7.5745,-7.5745,-7.5606,-7.5606,-7.576,-7.5789,-7.5866,-7.6044,-7.6044,-7.6029,-7.5976,-7.5976,-7.5976,-7.5899,-7.4284,-7.35,-7.3476,-7.1745,-7.0898,-7.0898,-7.0898,-7.0898,-7.0898,0.0,0.0,0.0,-7.0898,-7.0898,-7.0821,-6.9244,-6.8398,-6.8359,-6.5936,0.0,-6.3308,-6.2512,-6.1716,-6.0858,-6.0627,0.0,0.0,0.0,0.0,0.0,0.0,0.0,0.0,0.0,0.0,0.0,-5.7665,-5.7627,-5.778,-5.7774,-5.7923,-5.8438,-5.9035,-5.9548,-5.9993,-6.0471,-6.0787,-6.0905,-6.1186,-6.1395,-6.1555,-6.212,-6.2585,-6.2585,-6.3319,-6.3943,-6.4273,-6.4897,-6.5385,-6.5778,-6.5742,-6.5742,-6.5815,-6.6853,-6.7569,-6.7433,-6.6719,-6.6207,-6.6114,-6.6114,-6.6114,-6.6159,-6.6697,-6.6826,-6.6363,-6.6226,-6.5677,-6.482,-6.431,-6.3833,-6.3209,-6.289,-6.2805,-6.2805,-6.2805,-6.2805,-6.2805,-6.2805,-6.2805,-8.2396,-8.1322,-8.1388,-8.1388,0.0,-8.1388,-8.1349,-8.1253,-8.1161,-8.0138,-7.84,-7.6746,-7.5976,-7.5976,-7.5976,-7.5976,-7.5976,-7.5976,-7.5976,-7.5976,-7.5976,-7.5976,-7.5976,-7.5976,-7.5784,-7.5322,-7.4091,-7.3283,-7.2783,-7.1552,-7.0898,-7.0898,-7.0898,-7.0898,-7.0898,-7.0898,-7.0898,-7.0898,-7.0898,-7.0898,-7.0821,-6.9283,-6.8398,-6.8321,-6.5936,0.0,0.0,0.0,0.0,0.0,0.0,0.0,0.0,0.0,0.0,-5.8896,-5.8511,-5.8269,-5.8308,-5.8665,-5.8896,-5.8896,-5.9704,-6.0012,-5.955,-5.9873,-6.0428,-6.1096,-6.1392,-6.1713,-6.2214,-6.2353,-6.2441,-6.2566,-6.2673,-6.2706,-6.264,-6.2769,-6.2904,-6.2916,-6.3222,-6.3613,-6.4053,-6.442,-6.4861,-6.5228,-6.5338,-6.5301,-6.5375,-6.5962,-6.6486,-6.6406,-6.606,-6.565,-6.565,-6.565,-6.5623,-6.5596,-6.5915,-6.6052,-6.5713,-6.5364,-6.4893,-6.42,-6.3759,-6.3282,-6.2952,-6.2805,-6.2805,-6.2805,-6.2805,-6.2805,-6.2805,-6.2805,-6.2805,-8.2122,-8.1449,-8.1519,-8.1586,-8.1667,-8.1575,-8.1496,-8.14,-8.093,0.0,0.0,-7.6746,-7.5976,-7.5976,-7.5976,-7.5976,-7.5976,-7.5976,-7.5976,-7.5976,-7.5976,-7.5976,-7.5976,-7.5976,-7.5553,-7.4707,-7.3899,-7.3053,-7.2168,-7.1321,-7.0898,-7.0898,-7.0898,-7.0898,-7.0898,-7.0898,-7.0898,-7.0898,-7.0898,-7.0898,-7.086,-6.9398,-6.8552,-6.8398,-6.609,-6.4436,-6.3551,-6.2743,-6.1897,-6.1089,-6.105,-6.0935,-6.0781,-6.0127,-5.9704,-5.9704,-5.9088,-5.8742,-5.8742,-5.9358,-5.9781,-5.9935,-6.1281,-6.1793,-6.11,-6.182,-6.2603,-6.3348,-6.3253,-6.3397,-6.4013,-6.3789,-6.3729,-6.4036,-6.3883,-6.3683,-6.3497,-6.3242,-6.3075,-6.3026,-6.2966,-6.3087,-6.3723,-6.3833,-6.409,-6.4677,-6.4714,-6.4872,-6.4872,-6.5154,-6.5485,-6.5422,-6.5212,-6.5055,-6.5118,-6.5055,-6.5029,-6.4851,-6.5113,-6.5176,-6.4841,-6.4416,-6.409,-6.3833,-6.3246,-6.2915,-6.2842,-6.2805,-6.2805,-6.2805,-6.2805,-6.2805,-6.2805,-6.2805,-6.2805,-8.2321,-8.1639,-8.1728,-8.1792,-8.1873,-8.1792,-8.1669,-8.1344,-7.9698,-7.8782,-7.84,-7.6746,-7.5976,-7.5976,-7.5976,-7.5976,-7.5976,-7.5976,-7.5976,-7.5976,-7.5976,-7.5976,-7.5976,-7.5976,-7.5553,-7.4707,-7.3899,-7.3053,-7.2168,-7.1321,-7.0898,-7.0898,-7.0898,-7.0898,-7.0898,-7.0898,-7.0898,-7.0898,-7.0898,-7.0898,-7.0898,-7.0014,-6.9167,-6.8359,-6.6667,-6.532,-6.4436,-6.3589,-6.2743,-6.1985,-6.1897,-6.1562,-6.0858,-6.0704,-6.0627,-6.0627,-6.0512,-6.0435,-6.0435,-6.055,-6.0935,-6.1678,-6.1985,-6.2062,-6.1947,-6.2666,-6.3437,-6.4219,-6.4254,-6.4408,-6.4908,-6.479,-6.455,-6.4445,-6.4151,-6.3942,-6.3814,-6.3542,-6.3289,-6.3171,-6.3051,-6.2966,-6.305,-6.3062,-6.3099,-6.3172,-6.3429,-6.3246,-6.3514,-6.4395,-6.5228,-6.5228,-6.4714,-6.431,-6.4237,-6.4273,-6.4273,-6.4211,-6.4761,-6.4897,-6.4284,-6.4101,-6.3759,-6.3135,-6.289,-6.2842,-6.2805,-6.2805,-6.2805,-6.2805,-6.2805,-6.2805,-6.2805,-6.2805,-6.2805,-8.2115,-8.1851,-8.1909,-8.1999,-8.2078,-8.1955,-8.1817,-8.1501,-7.9632,-7.8695,-7.8358,-7.6775,-7.5976,-7.5976,-7.5976,-7.5976,-7.5976,-7.5976,-7.5976,-7.5976,-7.5976,-7.5976,-7.5976,-7.5976,-7.5322,-7.4091,-7.3668,-7.2822,-7.1552,-7.1091,-7.0898,-7.0898,-7.0898,-7.0898,-7.0898,-7.0898,-7.0898,-7.0898,-7.0898,-7.0898,-7.0898,-7.0129,-6.9283,-6.8436,-6.7205,-6.5936,-6.4666,-6.4243,-6.3628,-6.2781,-6.2743,-6.2589,-6.2166,-6.1743,-6.1524,-6.1524,-6.1524,-6.1512,-6.1512,-6.1897,-6.232,-6.2743,-6.3205,-6.3474,-6.3435,-6.3782,-6.4385,-6.5154,-6.5166,-6.5277,-6.547,-6.5291,-6.5085,-6.4865,-6.4577,-6.4309,-6.4125,-6.3808,-6.3542,-6.3419,-6.3171,-6.2978,-6.2904,-6.283,-6.2805,-6.2805,-6.2805,-6.2805,-6.2805,-6.3404,-6.398,-6.3906,-6.3649,-6.3429,-6.3392,-6.3392,-6.3392,-6.3392,-6.3686,-6.3759,-6.3429,-6.3429,-6.3246,-6.2915,-6.2805,-6.2805,-6.2805,-6.2805,-6.2805,-6.2805,-6.2805,-6.2805,-6.2805,-6.2805,-6.2658,-8.1916,-8.2065,-8.2088,-8.2156,-8.2176,-8.2104,-8.1941,-8.1657,-7.9833,-7.8885,-7.8434,-7.6818,-7.6029,-7.5976,-7.5976,-7.5976,-7.5976,-7.5976,-7.5976,-7.5976,-7.5976,-7.5976,-7.5976,-7.5976,-7.513,-7.3668,-7.35,-7.2629,-7.1052,-7.0898,-7.0898,-7.0898,-7.0898,-7.0898,-7.0898,-7.0898,-7.0898,-7.0898,-7.0898,-7.0898,-7.0898,-7.0283,-6.9475,-6.8436,-6.7744,-6.659,-6.5013,-6.4897,-6.4474,-6.3666,-6.3589,-6.3512,-6.332,-6.2704,-6.237,-6.237,-6.2358,-6.2358,-6.2397,-6.2935,-6.3385,-6.3589,-6.4205,-6.4666,-6.4859,-6.4897,-6.5166,-6.5782,-6.5808,-6.5768,-6.5767,-6.5576,-6.536,-6.5172,-6.492,-6.4633,-6.4384,-6.4021,-6.3683,-6.3602,-6.3242,-6.3026,-6.2953,-6.2855,-6.2805,-6.2805,-6.2805,-6.2805,-6.2805,-6.2805,-6.2805,-6.2805,-6.2805,-6.2879,-6.2805,-6.2842,-6.2842,-6.2805,-6.2879,-6.2952,-6.2879,-6.2842,-6.2842,-6.2805,-6.2805,-6.2805,-6.2805,-6.2805,-6.2805,-6.2805,-6.2805,-6.2805,-6.2805,-6.2805,-6.2548,-8.207,-8.2166,-8.2185,-8.2193,-8.2191,-8.2195,-8.2078,-8.1671,-7.9911,-7.8973,-7.8606,-7.6878,-7.6048,-7.5976,-7.5976,-7.5976,-7.5976,-7.5976,-7.5976,-7.5976,-7.5976,-7.5976,-7.5976,-7.5976,-7.513,-7.3668,-7.35,-7.2629,-7.0975,-7.0898,-7.0898,-7.0898,-7.0898,-7.0898,-7.0898,-7.0898,-7.0898,-7.0898,-7.0898,-7.0898,-7.0898,-7.0821,-7.0014,-6.8436,-6.8321,-6.7513,-6.582,-6.5782,-6.5397,-6.4589,-6.4474,-6.4128,-6.3423,-6.3243,-6.3205,-6.3205,-6.3205,-6.3205,-6.3205,-6.3269,-6.3705,-6.4397,-6.4589,-6.4936,-6.5628,-6.5743,-6.5782,-6.5897,-6.5897,-6.5859,-6.5793,-6.566,-6.5479,-6.529,-6.5044,-6.4799,-6.4558,-6.4166,-6.3808,-6.3602,-6.3373,-6.3075,-6.2904,-6.2805,-6.2805,-6.2805,-6.2805,-6.2805,-6.2805,-6.2805,-6.2805,-6.2805,-6.2805,-6.2805,-6.2805,-6.2805,-6.2805,-6.2805,-6.2805,-6.2805,-6.2805,-6.2805,-6.2805,-6.2805,-6.2805,-6.2805,-6.2805,-6.2805,-6.2805,-6.2805,-6.2805,-6.2805,-6.2805,-6.2805,-6.2511,-8.2182,-8.225,-8.2253,-8.2254,-8.2253,-8.2232,-8.2144,-8.1855,-8.0022,-7.9126,-7.8704,-7.6971,-7.609,-7.5976,-7.5976,-7.5976,-7.5976,-7.5976,-7.5976,-7.5976,-7.5976,-7.5976,-7.5976,-7.5976,-7.513,-7.3577,-7.35,-7.2629,-7.1168,-7.0898,-7.0898,-7.0898,-7.0898,-7.0898,-7.0898,-7.0898,-7.0898,-7.0898,-7.0898,-7.0898,-7.0898,-7.0898,-7.009,-6.859,-6.8398,-6.7628,-6.609,-6.5897,-6.5743,-6.5397,-6.5359,-6.5205,-6.4859,-6.4359,-6.4089,-6.4051,-6.4089,-6.4282,-6.482,-6.482,-6.4974,-6.5359,-6.5359,-6.5513,-6.5859,-6.5897,-6.5897,-6.5897,-6.5897,-6.5885,-6.5846,-6.5715,-6.5523,-6.5368,-6.5128,-6.4833,-6.4615,-6.4284,-6.3937,-6.3802,-6.3465,-6.3147,-6.3026,-6.288,-6.2805,-6.2805,-6.2805,-6.2805,-6.2805,-6.2805,-6.2805,-6.2805,-6.2805,-6.2805,-6.2805,-6.2805,-6.2805,-6.2805,-6.2805,-6.2805,-6.2805,-6.2805,-6.2805,-6.2805,-6.2805,-6.2805,-6.2805,-6.2805,-6.2805,-6.2805,-6.2805,-6.2805,-6.2805,-6.2805,-6.2475,-8.2256,-8.2303,-8.2303,-8.2303,-8.2302,-8.2251,-8.2176,-8.1831,-8.0129,-7.9194,-7.8789,-7.7022,-7.6118,-7.5991,-7.5976,-7.5976,-7.5976,-7.5976,-7.5976,-7.5976,-7.5976,-7.5976,-7.5976,-7.5976,-7.513,-7.3745,-7.35,-7.2629,-7.1091,-7.0898,-7.0898,-7.0898,-7.0898,-7.0898,-7.0898,-7.0898,-7.0898,-7.0898,-7.0898,-7.0898,-7.0898,-7.0898,-7.009,-6.859,-6.8398,-6.7628,-6.5974,-6.5897,-6.5897,-6.5897,-6.5897,-6.5897,-6.5859,-6.5282,-6.4974,-6.4974,-6.4936,-6.5205,-6.5859,-6.5897,-6.5897,-6.5897,-6.5897,-6.5897,-6.5897,-6.5897,-6.5897,-6.5897,-6.5897,-6.5897,-6.5885,-6.5728,-6.5552,-6.5444,-6.5172,-6.4903,-6.4708,-6.4384,-6.4063,-6.3894,-6.3519,-6.3194,-6.3075,-6.2904,-6.2805,-6.2805,-6.2805,-6.2805,-6.2805,-6.2805,-6.2805,-6.2805,-6.2805,-6.2805,-6.2805,-6.2805,-6.2805,-6.2805,-6.2805,-6.2805,-6.2805,-6.2805,-6.2805,-6.2805,-6.2805,-6.2805,-6.2805,-6.2805,-6.2805,-6.2805,-6.2805,-6.2805,-6.2805,-6.2805,-6.2475,-8.2303,-8.2304,-8.2304,-8.2304,-8.2304,-8.2297,-8.2227,-8.1992,-8.0117,-7.9203,-7.8715,-7.7035,-7.6156,-7.5976,-7.5976,-7.5976,-7.5976,-7.5976,-7.5976,-7.5976,-7.5976,-7.5976,-7.5976,-7.5976,-7.513,-7.3707,-7.3514,-7.2591,-7.0975,-7.0898,-7.0898,-7.0898,-7.0898,-7.0898,-7.0898,-7.0898,-7.0898,-7.0898,-7.0898,-7.0898,-7.0898,-7.0898,-7.009,-6.859,-6.8398,-6.759,-6.6128,-6.5897,-6.5897,-6.5897,-6.5897,-6.5897,-6.5897,-6.582,-6.5782,-6.5782,-6.5782,-6.582,-6.5859,-6.5897,-6.5897,-6.5897,-6.5897,-6.5897,-6.5897,-6.5897,-6.5897,-6.5897,-6.5897,-6.5897,-6.5885,-6.5742,-6.558,-6.5494,-6.5204,-6.4972,-6.4888,-6.4539,-6.4224,-6.3958,-6.361,-6.3242,-6.288,-6.2805,-6.2805,-6.2805,-6.2805,-6.2805,-6.2805,-6.2805,-6.2805,-6.2805,-6.2805,-6.2805,-6.2805,-6.2805,-6.2805,-6.2805,-6.2805,-6.2805,-6.2805,-6.2805,-6.2805,-6.2805,-6.2805,-6.2805,-6.2805,-6.2805,-6.2805,-6.2805,-6.2805,-6.2805,-6.2805,-6.2805,-6.2475,-8.2304,-8.2304,-8.2304,-8.2304,-8.2303,-8.2251,-8.2176,-8.1987,-8.0713,-7.9698,-7.8839,-7.7602,-7.6657,-7.5976,-7.5976,-7.5976,-7.5976,-7.5976,-7.5976,-7.5976,-7.5976,-7.5976,-7.5976,-7.5976,-7.5438,-7.4361,-7.3745,-7.2591,-7.1052,-7.0898,-7.0898,-7.0898,-7.0898,-7.0898,-7.0898,-7.0898,-7.0898,-7.0898,-7.0898,-7.0898,-7.0898,-7.0898,-7.0129,-6.8513,-6.8398,-6.7628,-6.5936,-6.5897,-6.5897,-6.5897,-6.5897,-6.5897,-6.5897,-6.5897,-6.5897,-6.5897,-6.5897,-6.5897,-6.5897,-6.5897,-6.5897,-6.5897,-6.5897,-6.5897,-6.5897,-6.5897,-6.5897,-6.5897,-6.5897,-6.5897,-6.5885,-6.5768,-6.5688,-6.5552,-6.5291,-6.5123,-6.4989,-6.4669,-6.4348,-6.4186,-6.3764,-6.3265,-6.3002,-6.2855,-6.2805,-6.2805,-6.2805,-6.2805,-6.2805,-6.2805,-6.2805,-6.2805,-6.2805,-6.2805,-6.2805,-6.2805,-6.2805,-6.2805,-6.2805,-6.2805,-6.2805,-6.2805,-6.2805,-6.2805,-6.2805,-6.2805,-6.2805,-6.2805,-6.2805,-6.2805,-6.2805,-6.2805,-6.2805,-6.2805,-6.2438,-8.2304,-8.2304,-8.2304,-8.2304,-8.2261,-8.2207,-8.2127,-8.1961,-8.1026,-7.9961,-7.8882,-7.7911,-7.6913,-7.6106,-7.5976,-7.5976,-7.5976,-7.5976,-7.5976,-7.5976,-7.5976,-7.5976,-7.5976,-7.5976,-7.5553,-7.463,-7.3553,-7.2437,-7.1398,-7.1052,-7.0898,-7.0898,-7.0898,-7.0898,-7.0898,-7.0898,-7.0898,-7.0898,-7.0898,-7.0898,-7.0898,-7.0898,-7.009,-6.8667,-6.8398,-6.7628,-6.5974,-6.5897,-6.5897,-6.5897,-6.5897,-6.5897,-6.5897,-6.5897,-6.5897,-6.5897,-6.5897,-6.5897,-6.5897,-6.5897,-6.5897,-6.5897,-6.5897,-6.5897,-6.5897,-6.5897,-6.5897,-6.5897,-6.5897,-6.5897,-6.5897,-6.5859,-6.5793,-6.5674,-6.545,-6.5276,-6.5213,-6.4934,-6.4595,-6.4229,-6.3727,-6.3312,-6.3051,-6.288,-6.2805,-6.2805,-6.2805,-6.2805,-6.2805,-6.2805,-6.2805,-6.2805,-6.2805,-6.2805,-6.2805,-6.2805,-6.2805,-6.2805,-6.2805,-6.2805,-6.2805,-6.2805,-6.2805,-6.2805,-6.2805,-6.2805,-6.2805,-6.2805,-6.2805,-6.2805,-6.2805,-6.2805,-6.2805,-6.2805,-6.2254,-8.2304,-8.2304,-8.2304,-8.2304,-8.23,-8.2205,-8.2109,-8.187,-8.1009,-7.9968,-7.8811,-7.7855,-7.6987,-7.6145,-7.5976,-7.5976,-7.5976,-7.5976,-7.5976,-7.5976,-7.5976,-7.5976,-7.5976,-7.5976,-7.5553,-7.4668,-7.3053,-7.2283,-7.2052,-7.1283,-7.0898,-7.0898,-7.0898,-7.0898,-7.0898,-7.0898,-7.0898,-7.0898,-7.0898,-7.0898,-7.0898,-7.0898,-7.009,-6.859,-6.8398,-6.7628,-6.5974,-6.5897,-6.5897,-6.5897,-6.5897,-6.5897,-6.5897,-6.5897,-6.5897,-6.5897,-6.5897,-6.5897,-6.5897,-6.5897,-6.5897,-6.5897,-6.5897,-6.5897,-6.5897,-6.5897,-6.5897,-6.5897,-6.5897,-6.5897,-6.5897,-6.5897,-6.5872,-6.5793,-6.5618,-6.5494,-6.545,-6.5229,-6.481,-6.4192,-6.3705,-6.3336,-6.3075,-6.2929,-6.2855,-6.283,-6.283,-6.2805,-6.2805,-6.2805,-6.2805,-6.2805,-6.2805,-6.2805,-6.2805,-6.2805,-6.2805,-6.2805,-6.2805,-6.2805,-6.2805,-6.2805,-6.2805,-6.2805,-6.2805,-6.2805,-6.2805,-6.2805,-6.2805,-6.2805,-6.2805,-6.2805,-6.2805,-6.2658,-6.1924,-8.2304,-8.2304,-8.2304,-8.2303,-8.2293,-8.2185,-8.207,-8.1973,-8.1426,-8.0318,-7.8941,-7.8395,-7.7396,-7.6222,-7.5976,-7.5976,-7.5976,-7.5976,-7.5976,-7.5976,-7.5976,-7.5976,-7.5976,-7.5976,-7.5553,-7.4668,-7.363,-7.2783,-7.2129,-7.136,-7.0898,-7.0898,-7.0898,-7.0898,-7.0898,-7.0898,-7.0898,-7.0898,-7.0898,-7.0898,-7.0898,-7.0898,-7.009,-6.8629,-6.8398,-6.7628,-6.6013,-6.5897,-6.5897,-6.5897,-6.5897,-6.5897,-6.5897,-6.5897,-6.5897,-6.5897,-6.5897,-6.5897,-6.5897,-6.5897,-6.5897,-6.5897,-6.5897,-6.5897,-6.5897,-6.5897,-6.5897,-6.5897,-6.5897,-6.5897,-6.5897,-6.5897,-6.5885,-6.5872,-6.578,-6.5688,-6.5632,-6.5345,-6.4917,-6.4407,-6.4004,-6.3661,-6.3428,-6.3255,-6.3051,-6.2953,-6.2953,-6.2929,-6.283,-6.283,-6.2805,-6.2805,-6.2805,-6.2805,-6.2805,-6.2805,-6.2805,-6.2805,-6.2805,-6.2805,-6.2805,-6.2805,-6.2805,-6.2805,-6.2805,-6.2805,-6.2805,-6.2805,-6.2805,-6.2805,-6.2805,-6.2805,-6.2805,-6.2475,-6.1924,-8.2304,-8.2304,-8.2304,-8.2301,-8.2244,-8.2117,-8.2011,-8.1851,-8.1628,-8.0484,-7.8978,-7.8609,-7.7612,-7.626,-7.5976,-7.5976,-7.5976,-7.5976,-7.5976,-7.5976,-7.5976,-7.5976,-7.5976,-7.5976,-7.5745,-7.513,-7.4322,-7.3514,-7.2668,-7.1822,-7.1245,-7.0937,-7.0898,-7.0898,-7.0898,-7.0898,-7.0898,-7.0898,-7.0898,-7.0898,-7.0898,-7.0898,-7.0244,-6.9052,-6.859,-6.7705,-6.6436,-6.609,-6.5897,-6.5897,-6.5897,-6.5897,-6.5897,-6.5897,-6.5897,-6.5897,-6.5897,-6.5897,-6.5897,-6.5897,-6.5897,-6.5897,-6.5897,-6.5897,-6.5897,-6.5897,-6.5897,-6.5897,-6.5897,-6.5897,-6.5897,-6.5897,-6.5897,-6.5897,-6.5859,-6.5807,-6.5688,-6.542,-6.5052,-6.4669,-6.4309,-6.4021,-6.3742,-6.3542,-6.3359,-6.3242,-6.3171,-6.3147,-6.3026,-6.2953,-6.2904,-6.2855,-6.283,-6.2805,-6.2805,-6.2805,-6.2805,-6.2805,-6.2805,-6.2805,-6.2805,-6.2805,-6.2805,-6.2805,-6.2805,-6.2805,-6.2805,-6.2805,-6.2805,-6.2805,-6.2805,-6.2805,-6.2805,-6.2805,-6.2328,-8.2304,-8.2304,-8.2303,-8.2256,-8.2191,-8.2079,-8.1902,-8.1689,-8.1507,-8.0435,-7.897,-7.8575,-7.7645,-7.6361,-7.6092,-7.5976,-7.5976,-7.5976,-7.5976,-7.5976,-7.5976,-7.5976,-7.5976,-7.5976,-7.5938,-7.5745,-7.5014,-7.4284,-7.3553,-7.2552,-7.1783,-7.1129,-7.0975,-7.0898,-7.0898,-7.0898,-7.0898,-7.0898,-7.0898,-7.0898,-7.0898,-7.0898,-7.0475,-6.9667,-6.8936,-6.809,-6.7051,-6.6282,-6.5897,-6.5897,-6.5897,-6.5897,-6.5897,-6.5897,-6.5897,-6.5897,-6.5897,-6.5897,-6.5897,-6.5897,-6.5897,-6.5897,-6.5897,-6.5897,-6.5897,-6.5897,-6.5897,-6.5897,-6.5897,-6.5897,-6.5897,-6.5897,-6.5897,-6.5897,-6.5897,-6.5795,-6.5622,-6.5479,-6.5252,-6.49,-6.4577,-6.4309,-6.4025,-6.3857,-6.3742,-6.3632,-6.3519,-6.3474,-6.3359,-6.3242,-6.3075,-6.3002,-6.2953,-6.288,-6.288,-6.2805,-6.2805,-6.2805,-6.2805,-6.2805,-6.2805,-6.2805,-6.2805,-6.2805,-6.2805,-6.2805,-6.2805,-6.2805,-6.2805,-6.2805,-6.2805,-6.2805,-6.2805,-6.2805,-6.2548,-8.2304,-8.2304,-8.2303,-8.2253,-8.2176,-8.205,-8.1898,-8.1669,-8.1463,-8.0677,-7.9611,-7.8791,-7.7938,-7.6938,-7.6284,-7.5976,-7.5976,-7.5976,-7.5976,-7.5976,-7.5976,-7.5976,-7.5976,-7.5976,-7.5976,-7.5861,-7.5168,-7.4591,-7.4284,-7.3014,-7.2129,-7.1822,-7.1206,-7.0937,-7.0898,-7.0898,-7.0898,-7.0898,-7.0898,-7.0898,-7.0898,-7.0898,-7.0514,-6.9783,-6.9475,-6.8552,-6.7205,-6.632,-6.5897,-6.5897,-6.5897,-6.5897,-6.5897,-6.5897,-6.5897,-6.5897,-6.5897,-6.5897,-6.5897,-6.5897,-6.5897,-6.5897,-6.5897,-6.5897,-6.5897,-6.5897,-6.5897,-6.5897,-6.5897,-6.5897,-6.5897,-6.5897,-6.5897,-6.5897,-6.5897,-6.5859,-6.5728,-6.5632,-6.5435,-6.515,-6.4896,-6.4686,-6.4521,-6.4328,-6.4169,-6.4104,-6.3979,-6.3851,-6.3705,-6.3527,-6.3368,-6.3242,-6.3147,-6.3026,-6.2929,-6.2855,-6.2805,-6.2805,-6.2805,-6.2805,-6.2805,-6.2805,-6.2805,-6.2805,-6.2805,-6.2805,-6.2805,-6.2805,-6.2805,-6.2805,-6.2805,-6.2805,-6.2805,-6.2805,-6.2475,-8.2304,-8.2304,-8.2258,-8.2237,-8.2144,-8.1987,-8.1809,-8.1624,-8.1427,-8.08,-7.9899,-7.9315,-7.84,-7.7284,-7.6784,-7.6322,-7.6015,-7.5976,-7.5976,-7.5976,-7.5976,-7.5976,-7.5976,-7.5976,-7.5976,-7.5976,-7.5476,-7.5053,-7.463,-7.3668,-7.2937,-7.2206,-7.1706,-7.1283,-7.0898,-7.0898,-7.0898,-7.0898,-7.0898,-7.0898,-7.0898,-7.0898,-7.0706,-7.0167,-6.9898,-6.8898,-6.7282,-6.6628,-6.6282,-6.6013,-6.5897,-6.5897,-6.5897,-6.5897,-6.5897,-6.5897,-6.5897,-6.5897,-6.5897,-6.5897,-6.5897,-6.5897,-6.5897,-6.5897,-6.5897,-6.5897,-6.5897,-6.5897,-6.5897,-6.5897,-6.5897,-6.5897,-6.5897,-6.5897,-6.5897,-6.5872,-6.5807,-6.5715,-6.5604,-6.5367,-6.5229,-6.5101,-6.4934,-6.4795,-6.4687,-6.4558,-6.4445,-6.4289,-6.4091,-6.3883,-6.3668,-6.3572,-6.3405,-6.3265,-6.3123,-6.3026,-6.2904,-6.288,-6.2805,-6.2805,-6.2805,-6.2805,-6.2805,-6.2805,-6.2805,-6.2805,-6.2805,-6.2805,-6.2805,-6.2805,-6.2805,-6.2805,-6.2805,-6.2805,-6.2438,-8.2304,-8.2301,-8.2207,-8.217,-8.2055,-8.1851,-8.1689,-8.1499,-8.1335,-8.0805,-8.0123,-7.9862,-7.8977,-7.7553,-7.7553,-7.6976,-7.6207,-7.6284,-7.6092,-7.6053,-7.5976,-7.5976,-7.5976,-7.5976,-7.5976,-7.5976,-7.5976,-7.5553,-7.5014,-7.4745,-7.3899,-7.286,-7.2399,-7.1783,-7.1245,-7.1014,-7.0898,-7.0898,-7.0898,-7.0898,-7.0898,-7.0898,-7.0821,-7.0667,-7.0014,-6.909,-6.7936,-6.7282,-6.6898,-6.609,-6.5936,-6.5897,-6.5897,-6.5897,-6.5897,-6.5897,-6.5897,-6.5897,-6.5897,-6.5897,-6.5897,-6.5897,-6.5897,-6.5897,-6.5897,-6.5897,-6.5897,-6.5897,-6.5897,-6.5974,-6.6167,-6.6128,-6.6359,-6.6474,-6.632,-6.6141,-6.5935,-6.5845,-6.5715,-6.559,-6.5523,-6.5435,-6.5307,-6.5229,-6.5242,-6.5458,-6.5317,-6.5176,-6.4955,-6.482,-6.4434,-6.3984,-6.3749,-6.3474,-6.3359,-6.3218,-6.3099,-6.2978,-6.2855,-6.2805,-6.2805,-6.2805,-6.2805,-6.2805,-6.2805,-6.2805,-6.2805,-6.2805,-6.2805,-6.2805,-6.2805,-6.2805,-6.2805,-6.2805,-6.2585,-8.2304,-8.2301,-8.2207,-8.2117,-8.1999,-8.1795,-8.1607,-8.1401,-8.1277,-8.103,-8.0685,-8.0131,-7.9592,-7.9169,-7.8477,-7.7784,-7.7053,-7.6938,-7.6707,-7.6015,-7.5976,-7.5976,-7.5976,-7.5976,-7.5976,-7.5976,-7.5976,-7.5861,-7.5592,-7.5053,-7.4553,-7.4053,-7.2899,-7.2129,-7.1898,-7.1283,-7.0898,-7.0898,-7.0898,-7.0898,-7.0898,-7.0898,-7.0898,-7.0821,-7.0167,-6.9629,-6.9129,-6.8475,-6.7744,-6.6936,-6.6295,-6.5974,-6.5897,-6.5897,-6.5897,-6.5897,-6.5897,-6.5897,-6.5897,-6.5897,-6.5897,-6.5974,-6.6013,-6.5897,-6.5897,-6.5974,-6.5974,-6.5897,-6.5897,-6.6282,-6.6782,-6.7475,-6.7628,-6.7628,-6.7667,-6.7462,-6.6923,-6.6295,-6.5948,-6.5767,-6.574,-6.5712,-6.5537,-6.5556,-6.5741,-6.6193,-6.6291,-6.6157,-6.5952,-6.574,-6.5256,-6.4727,-6.4169,-6.3899,-6.3676,-6.3474,-6.3194,-6.3051,-6.2904,-6.2805,-6.2805,-6.2805,-6.2805,-6.2805,-6.2805,-6.2805,-6.2805,-6.2805,-6.2805,-6.2805,-6.2805,-6.2805,-6.2805,-6.2805,-6.2805,-8.2262,-8.2251,-8.2182,-8.2065,-8.1927,-8.1756,-8.1569,-8.14,-8.1234,-8.1169,-8.1031,-8.0554,-8.0208,-7.9785,-7.9285,-7.8669,-7.79,-7.7438,-7.6823,-7.6169,-7.5976,-7.5976,-7.5976,-7.5976,-7.5976,-7.5976,-7.5976,-7.5976,-7.5822,-7.5515,-7.513,-7.4707,-7.3745,-7.3245,-7.2745,-7.1898,-7.1591,-7.1398,-7.1091,-7.0898,-7.0898,-7.0898,-7.0898,-7.086,-7.0475,-7.0129,-6.9629,-6.9283,-6.859,-6.7744,-6.6936,-6.6282,-6.5974,-6.5897,-6.5897,-6.5897,-6.5897,-6.5897,-6.5897,-6.5897,-6.6051,-6.6436,-6.6436,-6.6705,-6.6936,-6.7051,-6.7051,-6.7051,-6.7128,-6.7321,-6.7667,-6.8013,-6.8359,-6.8398,-6.8436,-6.8205,-6.7705,-6.6974,-6.6282,-6.6013,-6.5846,-6.605,-6.6087,-6.6186,-6.6657,-6.7266,-6.7443,-6.7316,-6.6949,-6.6674,-6.6121,-6.5513,-6.4784,-6.4328,-6.4025,-6.3742,-6.3336,-6.3147,-6.2978,-6.288,-6.2805,-6.2805,-6.2805,-6.2805,-6.2805,-6.2805,-6.2805,-6.2805,-6.2805,-6.2805,-6.2805,-6.2805,-6.2805,-6.2805,-6.2805,-8.2256,-8.2193,-8.2101,-8.1999,-8.1843,-8.1649,-8.1475,-8.136,-8.1258,-8.1154,-8.1108,-8.1093,-8.0631,-8.0131,-8.0015,-7.9515,-7.8631,-7.763,-7.6861,-7.6399,-7.6053,-7.6015,-7.5976,-7.5976,-7.5976,-7.5976,-7.5976,-7.5976,-7.5976,-7.5938,-7.5553,-7.4976,-7.4707,-7.4207,-7.3591,-7.2668,-7.2091,-7.1975,-7.1283,-7.0898,-7.0898,-7.0898,-7.0898,-7.086,-7.0821,-7.0552,-7.0129,-6.986,-6.9475,-6.8629,-6.7898,-6.7128,-6.6436,-6.5936,-6.5897,-6.5897,-6.6051,-6.6205,-6.6282,-6.6359,-6.6705,-6.7244,-6.7282,-6.759,-6.809,-6.8167,-6.8129,-6.8282,-6.8321,-6.8513,-6.8629,-6.8936,-6.8936,-6.8898,-6.8859,-6.8744,-6.8513,-6.7898,-6.7321,-6.6628,-6.6692,-6.6949,-6.7102,-6.7268,-6.7806,-6.8254,-6.8433,-6.843,-6.8071,-6.7546,-6.6949,-6.6102,-6.5314,-6.4614,-6.4309,-6.3958,-6.3565,-6.3363,-6.3136,-6.2966,-6.2867,-6.2805,-6.2805,-6.2805,-6.2805,-6.2805,-6.2805,-6.2805,-6.2805,-6.2805,-6.2805,-6.2805,-6.2805,-6.2805,-6.2805,-8.2256,-8.2193,-8.2084,-8.1909,-8.1708,-8.153,-8.135,-8.122,-8.1169,-8.1108,-8.1093,-8.1093,-8.1016,-8.0862,-8.0862,-8.0362,-7.9323,-7.8207,-7.7361,-7.6976,-7.6553,-7.6207,-7.613,-7.6169,-7.6053,-7.5976,-7.5976,-7.5976,-7.5976,-7.5976,-7.5861,-7.563,-7.5091,-7.4615,-7.4168,-7.3091,-7.2437,-7.236,-7.1552,-7.1052,-7.1052,-7.0937,-7.0898,-7.0898,-7.0898,-7.0783,-7.0706,-7.0629,-7.0321,-6.959,-6.936,-6.8783,-6.7859,-6.6744,-6.6167,-6.6205,-6.6628,-6.6898,-6.6974,-6.7513,-6.7936,-6.8167,-6.8167,-6.8205,-6.8475,-6.8513,-6.8706,-6.8783,-6.9129,-6.9475,-6.9513,-6.9898,-7.036,-7.0437,-7.0283,-7.009,-6.959,-6.9244,-6.8859,-6.8129,-6.8013,-6.7936,-6.809,-6.8282,-6.8692,-6.9102,-6.9358,-6.9407,-6.9222,-6.8513,-6.7741,-6.6789,-6.5741,-6.5107,-6.4502,-6.4149,-6.3786,-6.3608,-6.3376,-6.3113,-6.3015,-6.2867,-6.2805,-6.2805,-6.2805,-6.2805,-6.2805,-6.2805,-6.2805,-6.2805,-6.2805,-6.2805,-6.2805,-6.2805,-6.2805,-8.2246,-8.2127,-8.2034,-8.1875,-8.1649,-8.1475,-8.1308,-8.1176,-8.1124,-8.1093,-8.1093,-8.1093,-8.1093,-8.1093,-8.1093,-8.0631,-7.9708,-7.9092,-7.8361,-7.7938,-7.7476,-7.7015,-7.6746,-7.6669,-7.6361,-7.613,-7.5976,-7.6015,-7.5976,-7.5976,-7.5976,-7.5899,-7.5515,-7.5399,-7.513,-7.4207,-7.3514,-7.3206,-7.2245,-7.1514,-7.1475,-7.1168,-7.0898,-7.0898,-7.0898,-7.0898,-7.0898,-7.0898,-7.0744,-7.0321,-6.9937,-6.9513,-6.8859,-6.8052,-6.7205,-6.7282,-6.7552,-6.7782,-6.7782,-6.8244,-6.8513,-6.9013,-6.909,-6.9321,-6.9552,-6.9744,-6.9629,-6.9744,-6.9898,-7.0321,-7.0321,-7.0667,-7.086,-7.0898,-7.0898,-7.0706,-7.0437,-7.0321,-6.9975,-6.9475,-6.8821,-6.8629,-6.9013,-6.9244,-6.9552,-6.9898,-7.0244,-7.0256,-7.019,-6.9393,-6.8482,-6.7487,-6.643,-6.5683,-6.5136,-6.4841,-6.457,-6.4286,-6.3896,-6.3614,-6.3321,-6.3284,-6.3014,-6.2805,-6.2805,-6.2805,-6.2805,-6.2805,-6.2805,-6.2805,-6.2805,-6.2805,-6.2805,-6.2805,-6.2805,-8.2237,-8.2105,-8.2026,-8.1839,-8.1613,-8.1427,-8.1291,-8.1199,-8.1124,-8.1093,-8.1093,-8.1093,-8.1093,-8.1093,-8.1016,-8.0708,-8.0054,-7.99,-7.9323,-7.8823,-7.8438,-7.8054,-7.7707,-7.7438,-7.7169,-7.6476,-7.6361,-7.6169,-7.6015,-7.5976,-7.5976,-7.5976,-7.5976,-7.5976,-7.5707,-7.4899,-7.4822,-7.4207,-7.3091,-7.2206,-7.1783,-7.1283,-7.0898,-7.0898,-7.0898,-7.0898,-7.0898,-7.0898,-7.0898,-7.0667,-7.036,-6.9975,-6.9821,-6.9283,-6.8936,-6.8898,-6.8769,-6.8654,-6.8706,-6.8975,-6.9398,-6.986,-6.9937,-7.0283,-7.0552,-7.0629,-7.0744,-7.0898,-7.086,-7.0821,-7.0744,-7.086,-7.0898,-7.0898,-7.0898,-7.086,-7.0821,-7.0783,-7.0744,-7.0167,-6.9436,-6.9398,-6.9783,-6.9937,-7.0206,-7.0283,-7.0591,-7.0629,-7.0486,-6.991,-6.9036,-6.8109,-6.7199,-6.6376,-6.5927,-6.5762,-6.5592,-6.5486,-6.5024,-6.4591,-6.418,-6.3873,-6.3529,-6.3197,-6.2805,-6.2805,-6.2805,-6.2805,-6.2805,-6.2805,-6.2805,-6.2805,-6.2805,-6.2805,-6.2805,-8.224,-8.2163,-8.2007,-8.1774,-8.1602,-8.1388,-8.1258,-8.1124,-8.1108,-8.1093,-8.1093,-8.1093,-8.1093,-8.1093,-8.1093,-8.1016,-8.0746,-8.0246,-7.9862,-7.9592,-7.9054,-7.8669,-7.8361,-7.8376,-7.79,-7.7207,-7.7092,-7.6669,-7.6284,-7.6092,-7.5976,-7.5976,-7.5976,-7.5976,-7.5899,-7.5284,-7.4745,-7.4437,-7.3129,-7.1937,-7.1321,-7.1052,-7.0975,-7.0898,-7.0898,-7.0898,-7.0898,-7.0898,-7.0898,-7.086,-7.0821,-7.0744,-7.0744,-7.0706,-7.0629,-7.0398,-7.0014,-6.9552,-6.9629,-6.9975,-7.0321,-7.0552,-7.0629,-7.0783,-7.086,-7.0898,-7.0898,-7.0898,-7.0898,-7.0898,-7.0898,-7.0898,-7.0898,-7.0898,-7.0898,-7.0898,-7.0898,-7.0898,-7.0898,-7.086,-7.0129,-7.0283,-7.0591,-7.0706,-7.0783,-7.086,-7.0898,-7.0898,-7.0706,-7.009,-6.9629,-6.874,-6.7965,-6.7178,-6.6765,-6.6615,-6.6654,-6.6643,-6.6042,-6.5514,-6.5197,-6.4771,-6.4131,-6.3787,-6.3296,-6.2842,-6.2805,-6.2805,-6.2805,-6.2805,-6.2805,-6.2805,-6.2805,-6.2805,-6.2805,-8.2246,-8.2205,-8.2011,-8.1834,-8.1646,-8.1427,-8.1301,-8.1169,-8.1108,-8.1093,-8.1093,-8.1093,-8.1093,-8.1093,-8.1093,-8.1093,-8.1016,-8.0669,-8.0516,-8.0477,-8.0054,-7.9669,-7.9323,-7.9169,-7.8784,-7.8054,-7.7515,-7.713,-7.6669,-7.6245,-7.5976,-7.5976,-7.5976,-7.5976,-7.5976,-7.563,-7.5476,-7.513,-7.4207,-7.2976,-7.2014,-7.1591,-7.1398,-7.0937,-7.0898,-7.0898,-7.0898,-7.0898,-7.0898,-7.0898,-7.0898,-7.0898,-7.0898,-7.0898,-7.086,-7.086,-7.0591,-7.0398,-7.0437,-7.0744,-7.086,-7.0898,-7.0898,-7.086,-7.0898,-7.0898,-7.0898,-7.0898,-7.0898,-7.0898,-7.0898,-7.0898,-7.0898,-7.0898,-7.0898,-7.0898,-7.0898,-7.0898,-7.0898,-7.0898,-7.0898,-7.0898,-7.0898,-7.0898,-7.086,-7.086,-7.0898,-7.0898,-7.0629,-7.0129,-6.9731,-6.9333,-6.8649,-6.8028,-6.7752,-6.755,-6.7683,-6.7524,-6.6808,-6.6372,-6.6212,-6.579,-6.5017,-6.4119,-6.3394,-6.305,-6.2879,-6.2805,-6.2805,-6.2805,-6.2805,-6.2805,-6.2805,-6.2805,-6.2805,-8.2295,-8.2188,-8.2055,-8.1898,-8.1718,-8.1487,-8.136,-8.1244,-8.1154,-8.1108,-8.1093,-8.1093,-8.1093,-8.1093,-8.1093,-8.1093,-8.1093,-8.1093,-8.1093,-8.1093,-8.1016,-8.0669,-8.0285,-8.0054,-7.9669,-7.8784,-7.8054,-7.7515,-7.7053,-7.6515,-7.5976,-7.5976,-7.5976,-7.5976,-7.5976,-7.5899,-7.5822,-7.5361,-7.4861,-7.3707,-7.2437,-7.2129,-7.1629,-7.1168,-7.0898,-7.0898,-7.0898,-7.0898,-7.0898,-7.0898,-7.0898,-7.0898,-7.0898,-7.0898,-7.0898,-7.0898,-7.0783,-7.0783,-7.0783,-7.086,-7.0898,-7.0898,-7.0898,-7.0898,-7.0898,-7.0898,-7.0898,-7.0898,-7.0898,-7.0898,-7.0898,-7.0898,-7.0898,-7.0898,-7.0898,-7.0898,-7.0898,-7.0898,-7.0898,-7.0898,-7.0898,-7.0898,-7.0898,-7.0898,-7.0898,-7.0898,-7.0898,-7.0898,-7.0629,-7.0283,-7.0167,-6.9923,-6.9704,-6.9226,-6.9035,-6.8855,-6.8841,-6.856,-6.7826,-6.7464,-6.7382,-6.6607,-6.5655,-6.4721,-6.3788,-6.3222,-6.2977,-6.2879,-6.2805,-6.2805,-6.2805,-6.2805,-6.2805,-6.2805,-6.2805,-8.2304,-8.2258,-8.2097,-8.1922,-8.1792,-8.1575,-8.1401,-8.1291,-8.1244,-8.1154,-8.1093,-8.1093,-8.1093,-8.1093,-8.1093,-8.1093,-8.1093,-8.1093,-8.1093,-8.1093,-8.1054,-8.1016,-8.0823,-8.0708,-8.0477,-7.9669,-7.8707,-7.79,-7.7284,-7.6476,-7.6092,-7.5976,-7.5976,-7.5976,-7.5976,-7.5976,-7.5668,-7.5322,-7.4938,-7.4091,-7.2937,-7.236,-7.1975,-7.1206,-7.0937,-7.0898,-7.0898,-7.0898,-7.0898,-7.0898,-7.0898,-7.0898,-7.0898,-7.0898,-7.0898,-7.0898,-7.0898,-7.0898,-7.0898,-7.0898,-7.0898,-7.0898,-7.0898,-7.0898,-7.0898,-7.0898,-7.0898,-7.0898,-7.0898,-7.0898,-7.0898,-7.0898,-7.0898,-7.0898,-7.0898,-7.0898,-7.0898,-7.0898,-7.0898,-7.0898,-7.0898,-7.0898,-7.0898,-7.0898,-7.0898,-7.0898,-7.0898,-7.0898,-7.0898,-7.0629,-7.0706,-7.0629,-7.0667,-7.0549,-7.0518,-7.0294,-6.9872,-6.9637,-6.9167,-6.8884,-6.8779,-6.7741,-6.6407,-6.5557,-6.4697,-6.3886,-6.3087,-6.2977,-6.2879,-6.2842,-6.2805,-6.2805,-6.2805,-6.2805,-6.2805,-8.2304,-8.2301,-8.2235,-8.2088,-8.1909,-8.1746,-8.1591,-8.1401,-8.1319,-8.1214,-8.1093,-8.1093,-8.1093,-8.1093,-8.1093,-8.1093,-8.1093,-8.1093,-8.1093,-8.1093,-8.1093,-8.1093,-8.1093,-8.1054,-8.09,-8.0323,-7.9246,-7.84,-7.7977,-7.6669,-7.613,-7.5976,-7.5976,-7.5976,-7.5976,-7.5976,-7.5745,-7.563,-7.5399,-7.4822,-7.4091,-7.3668,-7.3091,-7.1822,-7.1706,-7.136,-7.1014,-7.0898,-7.0898,-7.0937,-7.0937,-7.0937,-7.0898,-7.0898,-7.0898,-7.0898,-7.0898,-7.0898,-7.0898,-7.0898,-7.0898,-7.0898,-7.0898,-7.0898,-7.0898,-7.0898,-7.0898,-7.0898,-7.0898,-7.0898,-7.0898,-7.0898,-7.0898,-7.0898,-7.0898,-7.0898,-7.0898,-7.0898,-7.0898,-7.0898,-7.0898,-7.0898,-7.0898,-7.0898,-7.0898,-7.0898,-7.0898,-7.0898,-7.0898,-7.0898,-7.0898,-7.0898,-7.0898,-7.0898,-7.0843,-7.0772,-7.0684,-7.0515,-7.0302,-6.9909,-6.9488,-6.8403,-6.7195,-6.643,-6.5557,-6.4623,-6.3849,-6.3185,-6.2915,-6.2879,-6.2842,-6.2805,-6.2805,-6.2805,-6.2805,-8.2304,-8.2303,-8.2299,-8.2227,-8.205,-8.1905,-8.1767,-8.1569,-8.1414,-8.1234,-8.1093,-8.1093,-8.1093,-8.1093,-8.1093,-8.1093,-8.1093,-8.1093,-8.1093,-8.1093,-8.1093,-8.1093,-8.1093,-8.1093,-8.1016,-8.0669,-7.9477,-7.8453,-7.8338,-7.6784,-7.6169,-7.5976,-7.5976,-7.5976,-7.5976,-7.5976,-7.5976,-7.5976,-7.5938,-7.5553,-7.4784,-7.4591,-7.4091,-7.2783,-7.2591,-7.2399,-7.2014,-7.1937,-7.1629,-7.1475,-7.1321,-7.1168,-7.1014,-7.0898,-7.0898,-7.0898,-7.0898,-7.0898,-7.0898,-7.0898,-7.0898,-7.0898,-7.0898,-7.0898,-7.0898,-7.0898,-7.0898,-7.0898,-7.0898,-7.0898,-7.0898,-7.0898,-7.0898,-7.0898,-7.0898,-7.0898,-7.0898,-7.0898,-7.0898,-7.0898,-7.0898,-7.0898,-7.0898,-7.0898,-7.0898,-7.0898,-7.0898,-7.0898,-7.0898,-7.0898,-7.0898,-7.0898,-7.0898,-7.0898,-7.0885,-7.0829,-7.0772,-7.0699,-7.0499,-7.0302,-6.9737,-6.877,-6.8027,-6.7292,-6.6379,-6.5382,-6.4734,-6.4266,-6.3578,-6.2915,-6.2915,-6.2989,-6.2805,-6.2805,-6.2805,-8.2304,-8.2304,-8.2303,-8.2246,-8.2187,-8.2028,-8.1882,-8.1659,-8.1449,-8.1294,-8.1124,-8.1093,-8.1093,-8.1093,-8.1093,-8.1093,-8.1093,-8.1093,-8.1093,-8.1093,-8.1093,-8.1093,-8.1093,-8.1093,-8.1093,-8.0669,-7.9592,-7.8707,-7.8453,-7.7015,-7.6284,-7.6015,-7.5976,-7.5976,-7.5976,-7.5976,-7.5976,-7.5976,-7.5976,-7.5515,-7.5053,-7.4899,-7.4361,-7.3707,-7.3476,-7.3322,-7.3014,-7.2937,-7.2629,-7.2283,-7.2168,-7.1898,-7.1398,-7.1321,-7.1283,-7.1206,-7.1091,-7.0975,-7.0898,-7.0898,-7.0898,-7.0898,-7.0898,-7.0898,-7.0898,-7.0898,-7.0898,-7.0898,-7.0898,-7.0898,-7.0898,-7.0898,-7.0898,-7.0898,-7.0898,-7.0898,-7.0898,-7.0898,-7.0898,-7.0898,-7.0898,-7.0898,-7.0898,-7.0898,-7.0898,-7.0898,-7.0898,-7.0898,-7.0898,-7.0898,-7.0898,-7.0898,-7.0898,-7.0898,-7.0898,-7.0898,-7.0857,-7.0787,-7.0684,-7.0499,-7.0247,-6.9681,-6.8922,-6.8161,-6.7285,-6.6337,-6.5865,-6.5471,-6.4609,-6.3723,-6.3319,-6.3184,-6.2989,-6.3062,-6.3356,-8.2304,-8.2304,-8.2304,-8.2261,-8.2244,-8.2187,-8.1999,-8.1779,-8.1519,-8.1333,-8.1199,-8.1124,-8.1093,-8.1093,-8.1093,-8.1093,-8.1093,-8.1093,-8.1093,-8.1093,-8.1093,-8.1093,-8.1093,-8.1093,-8.1093,-8.0785,-7.9862,-7.8938,-7.8492,-7.7246,-7.6515,-7.6169,-7.5976,-7.5976,-7.5976,-7.5976,-7.5976,-7.5976,-7.5976,-7.5861,-7.5592,-7.5476,-7.513,-7.4361,-7.4322,-7.413,-7.3745,-7.3745,-7.3476,-7.3129,-7.3053,-7.2822,-7.2514,-7.2437,-7.2514,-7.236,-7.2206,-7.1437,-7.1129,-7.0898,-7.0898,-7.0898,-7.0898,-7.0898,-7.0898,-7.0898,-7.0898,-7.0898,-7.0898,-7.0898,-7.0898,-7.0898,-7.0898,-7.0898,-7.0898,-7.0898,-7.0898,-7.0898,-7.0898,-7.0898,-7.0898,-7.0898,-7.0898,-7.0898,-7.0898,-7.0898,-7.0898,-7.0898,-7.0898,-7.0898,-7.0898,-7.0898,-7.0898,-7.0898,-7.0898,-7.0898,-7.0898,-7.0843,-7.0772,-7.0654,-7.0413,-7.0196,-6.9739,-6.8955,-6.8125,-6.7342,-6.6826,-6.621,-6.5393,-6.464,-6.4494,-6.4273,-6.4163,-6.4347,-6.464,-8.2304,-8.2304,-8.2304,-8.2304,-8.2301,-8.2232,-8.206,-8.1828,-8.158,-8.1335,-8.122,-8.1169,-8.1124,-8.1093,-8.1093,-8.1093,-8.1093,-8.1093,-8.1093,-8.1093,-8.1093,-8.1093,-8.1093,-8.1093,-8.1093,-8.0862,-8.0208,-7.9361,-7.8477,-7.7669,-7.6823,-7.6169,-7.5976,-7.5976,-7.5976,-7.5976,-7.5976,-7.5976,-7.5976,-7.5976,-7.5899,-7.5861,-7.5707,-7.5284,-7.5091,-7.4938,-7.4553,-7.4322,-7.4207,-7.4014,-7.3899,-7.3769,-7.3668,-7.35,-7.35,-7.3283,-7.3014,-7.2206,-7.1629,-7.1398,-7.1321,-7.0937,-7.0898,-7.0898,-7.0898,-7.0898,-7.0898,-7.0898,-7.0898,-7.0898,-7.0898,-7.0898,-7.0898,-7.0898,-7.0898,-7.0898,-7.0898,-7.0898,-7.0898,-7.0898,-7.0898,-7.0898,-7.0898,-7.0898,-7.0898,-7.0898,-7.0898,-7.0898,-7.0898,-7.0898,-7.0898,-7.0898,-7.0898,-7.0898,-7.0898,-7.0898,-7.0898,-7.0898,-7.0829,-7.0758,-7.0654,-7.0413,-7.0109,-6.9778,-6.8984,-6.8219,-6.759,-6.6925,-6.639,-6.6161,-6.6145,-6.5852,-6.5485,-6.5448,-6.5558,-8.2304,-8.2304,-8.2304,-8.2304,-8.2304,-8.225,-8.2075,-8.1817,-8.1596,-8.1426,-8.1291,-8.1205,-8.1169,-8.1093,-8.1093,-8.1093,-8.1093,-8.1093,-8.1093,-8.1093,-8.1093,-8.1093,-8.1093,-8.1093,-8.1093,-8.0823,-8.0362,-7.9669,-7.8592,-7.7669,-7.6861,-7.6169,-7.6015,-7.5976,-7.5976,-7.5976,-7.5976,-7.5976,-7.5976,-7.5976,-7.5976,-7.5976,-7.5899,-7.5745,-7.5707,-7.5707,-7.5553,-7.5592,-7.5284,-7.5014,-7.4745,-7.4284,-7.3937,-7.3615,-7.3577,-7.3553,-7.3553,-7.3053,-7.2437,-7.2245,-7.1783,-7.1321,-7.1129,-7.1014,-7.0898,-7.0898,-7.0898,-7.0898,-7.0898,-7.0898,-7.0898,-7.0898,-7.0898,-7.0898,-7.0898,-7.0898,-7.0898,-7.0898,-7.0898,-7.0898,-7.0898,-7.0898,-7.0898,-7.0898,-7.0898,-7.0898,-7.0898,-7.0898,-7.0898,-7.0898,-7.0898,-7.0898,-7.0898,-7.0898,-7.0898,-7.0898,-7.0898,-7.0898,-7.0898,-7.0829,-7.0743,-7.0586,-7.0298,-7.0001,-6.97,-6.9064,-6.8179,-6.7813,-6.7657,-6.7516,-6.7206,-6.6869,-6.6319,-6.5999,-6.5999,-8.2304,-8.2304,-8.2304,-8.2304,-8.2304,-8.2296,-8.2124,-8.1929,-8.1708,-8.1546,-8.1363,-8.1249,-8.1184,-8.1093,-8.1093,-8.1093,-8.1093,-8.1093,-8.1093,-8.1093,-8.1093,-8.1093,-8.1093,-8.1093,-8.1093,-8.1016,-8.0708,-8.0131,-7.9246,-7.8092,-7.6861,-7.613,-7.6015,-7.6015,-7.5976,-7.5976,-7.5976,-7.5976,-7.5976,-7.5976,-7.5976,-7.5976,-7.5976,-7.5976,-7.5976,-7.5976,-7.5976,-7.5976,-7.5707,-7.5668,-7.5592,-7.5399,-7.5361,-7.5245,-7.5168,-7.4437,-7.4284,-7.4014,-7.3322,-7.3129,-7.2745,-7.2052,-7.1822,-7.1398,-7.1129,-7.0975,-7.0975,-7.0898,-7.0898,-7.0898,-7.0898,-7.0898,-7.0898,-7.0898,-7.0975,-7.1129,-7.1168,-7.1321,-7.1283,-7.1091,-7.1091,-7.0898,-7.0898,-7.0898,-7.0898,-7.0898,-7.0898,-7.0898,-7.0898,-7.0898,-7.0898,-7.0898,-7.0898,-7.0898,-7.0898,-7.0898,-7.0898,-7.0898,-7.0898,-7.0871,-7.0787,-7.0616,-7.0467,-7.0161,-6.9778,-6.923,-6.8552,-6.8297,-6.8171,-6.7993,-6.7694,-6.7479,-6.719,-6.6833,-6.6659,-8.2304,-8.2304,-8.2304,-8.2304,-8.2304,-8.2301,-8.2196,-8.2079,-8.1851,-8.1689,-8.1484,-8.1349,-8.1244,-8.1139,-8.1108,-8.1093,-8.1093,-8.1093,-8.1093,-8.1093,-8.1093,-8.1093,-8.1093,-8.1093,-8.1093,-8.1093,-8.0977,-8.0554,-7.9592,-7.8246,-7.6938,-7.6592,-7.6284,-7.6015,-7.5976,-7.5976,-7.5976,-7.5976,-7.5976,-7.5976,-7.5976,-7.5976,-7.5976,-7.5976,-7.5976,-7.5976,-7.5976,-7.5976,-7.5976,-7.5976,-7.5976,-7.5976,-7.5976,-7.5938,-7.5861,-7.5245,-7.5207,-7.4745,-7.4168,-7.3976,-7.3476,-7.2976,-7.2706,-7.2476,-7.186,-7.1475,-7.1168,-7.0898,-7.0898,-7.0898,-7.0898,-7.0898,-7.0898,-7.0898,-7.1168,-7.1437,-7.1629,-7.1822,-7.1706,-7.1437,-7.1245,-7.0975,-7.0898,-7.0898,-7.0898,-7.0898,-7.0898,-7.0898,-7.0898,-7.0898,-7.0898,-7.0898,-7.0898,-7.0898,-7.0898,-7.0898,-7.0898,-7.0898,-7.0898,-7.0871,-7.0815,-7.0714,-7.0562,-7.0213,-6.9797,-6.9336,-6.8877,-6.866,-6.8456,-6.8284,-6.8146,-6.7908,-6.7642,-6.7447,-6.7383,-8.2304,-8.2304,-8.2304,-8.2304,-8.2304,-8.2303,-8.2256,-8.2191,-8.199,-8.1812,-8.1649,-8.149,-8.1319,-8.1214,-8.1124,-8.1093,-8.1093,-8.1093,-8.1093,-8.1093,-8.1093,-8.1093,-8.1093,-8.1093,-8.1093,-8.1093,-8.0977,-8.0631,-7.9631,-7.8554,-7.7784,-7.7323,-7.6592,-7.6207,-7.6015,-7.6015,-7.5976,-7.5976,-7.5976,-7.5976,-7.5976,-7.5976,-7.5976,-7.5976,-7.5976,-7.5976,-7.5976,-7.5976,-7.5976,-7.5976,-7.5976,-7.5976,-7.5976,-7.5976,-7.5938,-7.5899,-7.5784,-7.5476,-7.5014,-7.4822,-7.4361,-7.3899,-7.3577,-7.336,-7.2783,-7.2206,-7.1822,-7.1706,-7.1822,-7.1822,-7.1822,-7.1822,-7.1822,-7.1898,-7.2091,-7.2245,-7.2399,-7.2514,-7.2399,-7.2091,-7.1591,-7.1321,-7.0898,-7.0898,-7.0898,-7.0898,-7.0898,-7.0898,-7.0898,-7.0898,-7.0898,-7.0898,-7.0898,-7.0898,-7.0898,-7.0898,-7.0898,-7.0898,-7.0898,-7.0898,-7.0857,-7.0772,-7.0669,-7.0315,-6.9947,-6.97,-6.9319,-6.9063,-6.8855,-6.8633,-6.848,-6.8272,-6.807,-6.7915,-6.7767,-8.2304,-8.2304,-8.2304,-8.2304,-8.2304,-8.2304,-8.2262,-8.2248,-8.2113,-8.1929,-8.1718,-8.1484,-8.1335,-8.1244,-8.1139,-8.1093,-8.1093,-8.1093,-8.1093,-8.1093,-8.1093,-8.1093,-8.1093,-8.1093,-8.1093,-8.1093,-8.0977,-8.0708,-7.9939,-7.9246,-7.8477,-7.7476,-7.6938,-7.6669,-7.613,-7.6092,-7.5976,-7.5976,-7.5976,-7.5976,-7.5976,-7.5976,-7.5976,-7.5976,-7.5976,-7.5976,-7.5976,-7.5976,-7.5976,-7.5976,-7.5976,-7.5976,-7.5976,-7.5976,-7.5976,-7.5976,-7.5976,-7.5784,-7.5668,-7.5515,-7.513,-7.4707,-7.4361,-7.3976,-7.3577,-7.3129,-7.286,-7.286,-7.2783,-7.2745,-7.2706,-7.2706,-7.2745,-7.286,-7.3053,-7.3129,-7.3206,-7.3168,-7.3168,-7.2668,-7.2129,-7.1668,-7.1206,-7.0975,-7.0898,-7.0898,-7.0898,-7.0898,-7.0898,-7.0898,-7.0898,-7.0898,-7.0898,-7.0898,-7.0898,-7.0898,-7.0898,-7.0898,-7.0898,-7.0898,-7.0898,-7.0815,-7.0699,-7.0451,-7.0164,-6.9947,-6.9758,-6.9521,-6.9256,-6.9085,-6.884,-6.867,-6.8456,-6.8309,-6.8018,-8.2304,-8.2304,-8.2304,-8.2304,-8.2304,-8.2304,-8.2303,-8.2295,-8.2191,-8.2021,-8.1812,-8.1618,-8.1401,-8.1277,-8.1199,-8.1108,-8.1108,-8.1093,-8.1093,-8.1093,-8.1093,-8.1093,-8.1093,-8.1093,-8.1093,-8.1093,-8.1054,-8.0785,-8.0323,-7.9823,-7.9054,-7.8284,-7.7861,-7.7092,-7.6515,-7.6284,-7.6015,-7.5976,-7.5976,-7.5976,-7.5976,-7.5976,-7.5976,-7.5976,-7.5976,-7.5976,-7.5976,-7.5976,-7.5976,-7.5976,-7.5976,-7.5976,-7.5976,-7.5976,-7.5976,-7.5976,-7.5976,-7.5976,-7.5976,-7.5899,-7.5784,-7.5361,-7.5245,-7.4938,-7.4976,-7.4514,-7.386,-7.3745,-7.3283,-7.3168,-7.3168,-7.3168,-7.3168,-7.3245,-7.3783,-7.413,-7.4245,-7.4322,-7.413,-7.3822,-7.3245,-7.2706,-7.2283,-7.1783,-7.1668,-7.1437,-7.136,-7.1052,-7.1014,-7.1245,-7.1129,-7.1091,-7.1245,-7.1014,-7.0898,-7.0898,-7.0898,-7.0898,-7.0898,-7.0898,-7.0885,-7.0829,-7.0714,-7.0562,-7.0419,-7.0281,-7.0109,-6.9891,-6.972,-6.9546,-6.9282,-6.9041,-6.8863,-6.8679,-6.8456,-8.2304,-8.2304,-8.2304,-8.2304,-8.2304,-8.2304,-8.2304,-8.2301,-8.2246,-8.2117,-8.1981,-8.1746,-8.1546,-8.1414,-8.1249,-8.1184,-8.1108,-8.1093,-8.1093,-8.1093,-8.1093,-8.1093,-8.1093,-8.1093,-8.1093,-8.1093,-8.1093,-8.1093,-8.0939,-8.0439,-7.9977,-7.9554,-7.8631,-7.7515,-7.713,-7.6669,-7.6245,-7.6053,-7.5976,-7.5976,-7.5976,-7.5976,-7.5976,-7.5976,-7.5976,-7.5976,-7.5976,-7.5976,-7.5976,-7.5976,-7.5976,-7.5976,-7.5976,-7.5976,-7.5976,-7.5976,-7.5976,-7.5976,-7.5976,-7.5976,-7.5938,-7.5938,-7.5976,-7.5976,-7.5899,-7.5553,-7.4899,-7.4514,-7.4053,-7.386,-7.386,-7.3899,-7.3899,-7.3937,-7.4591,-7.5053,-7.5168,-7.5245,-7.4976,-7.4707,-7.4207,-7.3668,-7.3168,-7.2706,-7.2437,-7.2206,-7.1898,-7.1514,-7.1398,-7.1822,-7.2014,-7.1937,-7.1975,-7.1668,-7.1091,-7.1014,-7.1052,-7.0898,-7.0898,-7.0898,-7.0885,-7.0857,-7.0815,-7.0758,-7.0654,-7.0585,-7.0451,-7.0247,-7.0106,-6.9999,-6.9759,-6.9504,-6.934,-6.9112,-6.893,-8.2304,-8.2304,-8.2304,-8.2304,-8.2304,-8.2304,-8.2304,-8.2301,-8.2246,-8.2166,-8.2045,-8.1875,-8.1656,-8.1387,-8.1249,-8.1169,-8.1108,-8.1093,-8.1093,-8.1093,-8.1093,-8.1093,-8.1093,-8.1093,-8.1093,-8.1093,-8.1093,-8.1093,-8.1093,-8.0862,-8.0477,-7.9823,-7.9708,-7.8631,-7.7361,-7.7015,-7.6823,-7.6515,-7.6169,-7.6169,-7.6053,-7.6053,-7.5976,-7.5976,-7.5976,-7.5976,-7.5976,-7.5976,-7.5976,-7.5976,-7.5976,-7.5976,-7.5976,-7.5976,-7.5976,-7.5976,-7.5976,-7.5976,-7.5976,-7.5976,-7.5976,-7.5976,-7.5976,-7.5976,-7.5938,-7.5938,-7.5553,-7.5553,-7.5245,-7.5245,-7.5245,-7.5245,-7.5245,-7.5245,-7.563,-7.5668,-7.5707,-7.563,-7.5476,-7.513,-7.4707,-7.4207,-7.3745,-7.3437,-7.3322,-7.3129,-7.2976,-7.2629,-7.2514,-7.2706,-7.286,-7.2783,-7.2706,-7.1937,-7.1245,-7.1321,-7.1321,-7.1091,-7.1091,-7.1398,-7.1398,-7.0937,-7.0895,-7.1314,-7.1132,-7.0944,-7.0777,-7.0776,-7.0483,-7.0369,-7.0144,-6.9927,-6.9778,-6.9604,-6.9385]},{"header":{"parameterUnit":"m.s-1","parameterCategory":1,"la1":31.0,"la2":29.5877,"lo1":-88.7671,"lo2":-86.6584,"dy":0.0162,"dx":0.0185,"nx":115,"ny":88,"refTime":"2024-05-16T06:00:00:Z","depth":0,"parameterNumber":3,"parameterNumberName":"V-component_of_WINDS"},"data":[0.0,0.0,0.0,0.0,0.0,0.0,0.0,0.0,0.0,0.0,0.0,0.0,0.0,0.0,0.0,0.0,0.0,0.0,0.0,0.0,0.0,0.0,0.0,0.0,0.0,0.0,0.0,0.0,0.0,0.0,0.0,0.0,0.0,0.0,0.0,0.0,0.0,0.0,0.0,0.0,0.0,0.0,0.0,0.0,0.0,0.0,0.0,0.0,0.0,0.0,0.0,0.0,0.0,0.0,0.0,0.0,0.0,0.0,0.0,0.0,0.0,0.0,0.0,0.0,0.0,0.0,0.0,0.0,0.0,0.0,0.0,0.0,0.0,0.0,0.0,0.0,0.0,0.0,0.0,0.0,0.0,0.0,0.0,0.0,0.0,0.0,0.0,0.0,0.0,0.0,0.0,0.0,0.0,0.0,0.0,0.0,0.0,0.0,0.0,0.0,0.0,0.0,0.0,0.0,0.0,0.0,0.0,0.0,0.0,0.0,0.0,0.0,0.0,0.0,0.0,0.0,0.0,0.0,0.0,0.0,0.0,0.0,0.0,0.0,0.0,0.0,0.0,0.0,0.0,0.0,0.0,0.0,0.0,0.0,0.0,0.0,0.0,0.0,0.0,0.0,0.0,0.0,0.0,0.0,0.0,0.0,0.0,0.0,0.0,0.0,0.0,0.0,0.0,0.0,0.0,0.0,0.0,0.0,0.0,0.0,0.0,0.0,0.0,0.0,0.0,0.0,0.0,0.0,0.0,0.0,0.0,0.0,0.0,0.0,0.0,0.0,0.0,0.0,0.0,0.0,0.0,0.0,0.0,0.0,0.0,0.0,0.0,0.0,0.0,0.0,0.0,0.0,0.0,0.0,0.0,0.0,0.0,0.0,0.0,0.0,0.0,0.0,0.0,0.0,0.0,0.0,0.0,0.0,0.0,0.0,0.0,0.0,0.0,0.0,0.0,0.0,0.0,0.0,0.0,0.0,0.0,0.0,0.0,0.0,0.0,0.0,0.0,0.0,0.0,0.0,0.0,0.0,0.0,0.0,0.0,0.0,0.0,0.0,0.0,0.0,0.0,0.0,0.0,0.0,0.0,0.0,0.0,0.0,0.0,0.0,0.0,0.0,0.0,0.0,0.0,0.0,0.0,0.0,0.0,0.0,0.0,0.0,0.0,0.0,0.0,0.0,0.0,0.0,0.0,0.0,0.0,0.0,0.0,0.0,0.0,0.0,0.0,0.0,0.0,0.0,0.0,0.0,0.0,0.0,0.0,0.0,0.0,0.0,0.0,0.0,0.0,0.0,0.0,0.0,0.0,0.0,0.0,0.0,0.0,0.0,0.0,0.0,0.0,0.0,0.0,0.0,0.0,0.0,0.0,0.0,0.0,0.0,0.0,0.0,0.0,0.0,0.0,0.0,0.0,0.0,0.0,0.0,0.0,0.0,0.0,0.0,0.0,0.0,0.0,0.0,0.0,0.0,0.0,0.0,0.0,0.0,0.0,0.0,0.0,0.0,0.0,0.0,0.0,0.0,0.0,0.0,0.0,0.0,0.0,0.0,0.0,0.0,0.0,0.0,0.0,0.0,0.0,0.0,0.0,0.0,0.0,0.0,0.0,0.0,0.0,0.0,0.0,0.0,0.0,0.0,0.0,0.0,0.0,0.0,0.0,0.0,0.0,0.0,0.0,0.0,0.0,0.0,0.0,0.0,0.0,0.0,0.0,0.0,0.0,0.0,0.0,0.0,0.0,0.0,0.0,0.0,0.0,0.0,0.0,0.0,0.0,0.0,0.0,0.0,0.0,0.0,0.0,0.0,0.0,0.0,0.0,0.0,0.0,0.0,0.0,0.0,0.0,0.0,0.0,0.0,0.0,0.0,0.0,0.0,0.0,0.0,0.0,0.0,0.0,0.0,0.0,0.0,0.0,0.0,0.0,0.0,0.0,0.0,0.0,0.0,0.0,0.0,0.0,0.0,0.0,0.0,0.0,0.0,0.0,0.0,0.0,0.0,0.0,0.0,0.0,0.0,0.0,0.0,0.0,0.0,0.0,0.0,0.0,0.0,0.0,0.0,0.0,0.0,0.0,0.0,0.0,0.0,0.0,0.0,0.0,0.0,0.0,0.0,0.0,0.0,0.0,0.0,0.0,0.0,0.0,0.0,0.0,0.0,0.0,0.0,0.0,0.0,0.0,0.0,0.0,0.0,0.0,0.0,0.0,0.0,0.0,0.0,0.0,0.0,0.0,0.0,0.0,0.0,0.0,0.0,0.0,0.0,0.0,0.0,0.0,0.0,0.0,0.0,0.0,0.0,0.0,0.0,0.0,0.0,0.0,0.0,0.0,0.0,0.0,0.0,0.0,0.0,0.0,0.0,0.0,0.0,0.0,0.0,0.0,0.0,0.0,0.0,0.0,0.0,0.0,0.0,0.0,0.0,0.0,0.0,0.0,0.0,0.0,0.0,0.0,0.0,0.0,0.0,0.0,0.0,0.0,0.0,0.0,0.0,0.0,0.0,0.0,0.0,0.0,0.0,0.0,0.0,0.0,0.0,0.0,0.0,0.0,0.0,0.0,0.0,0.0,0.0,0.0,0.0,0.0,0.0,0.0,0.0,0.0,0.0,0.0,0.0,0.0,0.0,0.0,0.0,0.0,0.0,0.0,0.0,0.0,0.0,0.0,0.0,0.0,0.0,0.0,0.0,0.0,0.0,0.0,0.0,0.0,0.0,0.0,0.0,0.0,0.0,0.0,0.0,0.0,0.0,0.0,0.0,0.0,0.0,0.0,0.0,0.0,0.0,0.0,0.0,0.0,0.0,0.0,0.0,0.0,0.0,0.0,0.0,0.0,0.0,0.0,0.0,0.0,0.0,0.0,0.0,0.0,0.0,0.0,0.0,0.0,0.0,0.0,0.0,0.0,0.0,0.0,0.0,0.0,0.0,0.0,0.0,0.0,0.0,0.0,0.0,0.0,0.0,0.0,0.0,0.0,0.0,0.0,0.0,0.0,0.0,0.0,0.0,0.0,0.0,0.0,0.0,0.0,0.0,0.0,0.0,0.0,0.0,0.0,0.0,0.0,0.0,0.0,0.0,0.0,0.0,0.0,0.0,0.0,0.0,0.0,0.0,0.0,0.0,0.0,0.0,0.0,0.0,0.0,0.0,0.0,0.0,0.0,0.0,0.0,0.0,0.0,0.0,0.0,0.0,0.0,0.0,0.0,0.0,0.0,0.0,0.0,0.0,0.0,0.0,0.0,0.0,0.0,0.0,0.0,0.0,0.0,0.0,0.0,0.0,0.0,0.0,0.0,0.0,0.0,0.0,0.0,0.0,0.0,0.0,0.0,0.0,0.0,0.0,0.0,0.0,0.0,0.0,0.0,0.0,0.0,0.0,0.0,0.0,0.0,0.0,0.0,0.0,0.0,0.0,0.0,0.0,0.0,0.0,0.0,0.0,0.0,0.0,0.0,0.0,0.0,0.0,0.0,0.0,0.0,0.0,0.0,0.0,0.0,0.0,0.0,0.0,0.0,0.0,0.0,0.0,0.0,0.0,0.0,0.0,0.0,0.0,0.0,0.0,0.0,0.0,0.0,0.0,0.0,0.0,0.0,0.0,0.0,0.0,0.0,0.0,0.0,0.0,0.0,0.0,0.0,0.0,0.0,0.0,0.0,0.0,0.0,0.0,0.0,0.0,0.0,0.0,0.0,0.0,0.0,0.0,0.0,0.0,0.0,0.0,0.0,0.0,0.0,0.0,0.0,0.0,0.0,0.0,0.0,0.0,0.0,0.0,0.0,0.0,0.0,0.0,0.0,0.0,0.0,0.0,0.0,0.0,0.0,0.0,0.0,0.0,0.0,0.0,0.0,0.0,0.0,0.0,0.0,0.0,0.0,0.0,0.0,0.0,0.0,0.0,0.0,0.0,0.0,0.0,0.0,0.0,0.0,0.0,0.0,0.0,0.0,0.0,0.0,0.0,0.0,0.0,0.0,0.0,0.0,0.0,0.0,0.0,0.0,0.0,0.0,0.0,0.0,0.0,0.0,0.0,0.0,0.0,0.0,0.0,0.0,0.0,0.0,0.0,0.0,0.0,0.0,0.0,0.0,0.0,0.0,0.0,0.0,0.0,0.0,0.0,0.0,0.0,0.0,0.0,0.0,0.0,0.0,0.0,0.0,0.0,0.0,0.0,0.0,0.0,0.0,0.0,0.0,0.0,0.0,0.0,0.0,0.0,0.0,0.0,0.0,0.0,0.0,0.0,0.0,0.0,0.0,0.0,0.0,0.0,0.9146,0.0,0.0,0.0,0.0,0.0,0.0,0.0,0.0,0.0,0.0,0.0,0.0,0.0,0.0,0.0,0.0,0.0,0.0,0.0,0.0,0.0,0.0,0.0,0.0,0.0,0.0,0.0,0.0,0.0,0.0,0.0,0.0,0.0,0.0,0.0,0.0,0.0,0.0,0.0,0.0,0.0,0.0,0.0,0.0,0.0,0.0,0.0,0.0,0.0,0.0,0.0,0.0,0.0,0.0,0.0,0.0,0.0,0.0,0.0,0.0,0.0,0.0,0.0,0.0,0.0,0.0,0.0,0.0,0.0,0.0,0.0,0.0,0.0,0.0,0.0,0.0,0.0,0.0,0.0,0.0,0.0,0.0,0.0,0.0,0.0,0.0,0.0,0.0,0.0,0.0,0.0,0.0,0.0,0.0,0.0,0.0,0.0,0.0,0.0,0.0,0.0,0.0,0.0,0.0,0.0,0.0,0.0,0.0,0.0,0.0,0.9652,0.951,0.9354,0.9296,0.9207,0.0,0.0,0.0,0.0,0.0,0.0,0.0,0.0,0.0,0.0,0.0,0.0,0.0,0.0,0.0,0.0,0.0,0.0,0.0,0.0,0.0,0.0,0.0,0.0,0.0,0.0,0.0,0.0,0.0,0.0,0.0,0.0,0.0,0.0,0.0,0.0,0.0,0.0,0.0,0.0,0.0,0.0,0.0,0.0,0.0,0.0,0.0,0.0,0.0,0.0,0.0,0.0,0.0,0.0,0.0,0.0,0.0,0.0,0.0,0.0,0.0,0.0,0.0,0.0,0.0,0.0,0.0,0.0,0.0,0.0,0.0,0.0,0.0,0.0,0.0,0.0,0.0,0.0,0.0,0.0,0.0,0.0,0.0,0.0,0.0,0.0,0.0,0.0,0.0,0.0,0.0,0.0,0.0,0.0,0.0,0.0,0.0,0.0,0.0,0.0,0.0,0.0,0.0,0.0,0.0,0.0,0.0,0.0,0.0,0.0,0.0,0.0,0.951,0.9347,0.9214,0.0,0.0,0.0,0.0,0.0,0.0,0.0,0.0,0.0,0.0,0.0,0.0,0.0,0.0,0.0,0.0,0.0,0.0,0.0,0.0,0.0,0.0,0.0,0.0,0.0,0.0,0.0,0.0,0.0,0.0,0.0,0.0,0.0,0.0,0.0,0.0,0.0,0.0,0.0,0.0,0.0,0.0,0.0,0.0,0.0,0.0,0.0,0.0,0.0,0.0,0.0,0.0,0.0,0.0,0.0,0.0,0.0,0.0,0.0,0.0,0.0,0.0,0.0,0.0,0.0,0.0,0.0,0.0,0.0,0.0,0.0,0.0,0.0,0.0,0.0,0.0,0.0,0.0,0.0,0.0,0.0,0.0,0.0,0.0,0.0,0.0,0.0,0.0,0.0,0.0,0.0,0.0,0.0,0.0,0.0,0.0,0.0,0.0,0.0,0.0,0.0,0.0,0.0,0.0,0.0,0.0,0.0,0.0,0.0,0.0,0.9815,0.9802,0.9659,0.0,0.9228,0.0,0.0,0.0,0.0,0.0,0.0,0.0,0.0,0.0,0.0,0.0,0.0,0.0,0.0,0.0,0.0,0.0,0.0,0.0,0.0,0.0,0.0,0.0,0.0,0.0,0.0,0.0,0.0,0.0,0.0,0.0,0.0,0.0,0.0,0.0,0.0,0.0,0.0,0.0,0.0,0.0,0.0,0.0,0.0,0.0,0.0,0.0,0.0,0.0,0.0,0.0,0.0,0.0,0.0,0.0,0.0,0.0,0.0,0.0,0.0,0.0,0.0,0.0,0.0,0.0,0.0,0.0,0.0,0.0,0.0,0.0,0.0,0.0,0.0,0.0,0.0,0.0,0.0,0.0,0.0,0.0,0.0,0.0,0.0,0.0,0.0,0.0,0.0,0.0,0.0,0.0,0.0,0.0,0.0,0.0,0.0,0.0,0.0,0.0,0.0,0.0,0.0,0.0,0.0,0.0,0.0,0.0,0.0,0.0,0.0,0.9822,0.9822,0.9598,0.9374,0.0,0.0,0.0,0.0,0.0,0.0,0.0,0.0,0.0,0.0,0.0,0.0,0.0,0.0,0.0,0.0,0.0,0.0,0.0,0.0,0.0,0.0,0.0,0.0,0.0,0.0,0.0,0.0,0.0,0.0,0.0,0.0,0.0,0.0,0.0,0.0,0.0,0.0,0.0,0.0,0.0,0.0,0.0,0.0,0.0,0.0,0.0,0.0,0.0,0.0,0.0,0.0,0.0,0.0,0.0,0.0,0.0,0.0,0.0,0.0,0.0,0.0,0.0,0.0,0.0,0.0,0.0,0.0,0.0,0.0,0.0,0.0,0.0,0.0,0.0,0.0,0.0,0.0,0.0,0.0,0.0,0.0,0.0,0.0,0.0,0.0,0.0,0.0,0.0,0.0,0.0,0.0,0.0,0.0,0.0,0.0,0.0,0.0,0.0,0.0,0.0,0.0,0.0,0.0,0.0,0.0,0.0,0.0,0.0,0.0,0.9822,0.9822,0.9808,0.9537,0.9384,0.9275,0.0,0.0,0.0,0.0,0.0,0.0,0.0,0.0,0.0,0.0,0.0,0.0,0.0,0.0,0.0,0.0,0.0,0.0,0.0,0.0,0.0,0.0,0.0,0.0,0.0,0.0,0.0,0.0,0.0,0.0,0.0,0.0,0.0,0.0,0.0,0.0,0.0,0.0,0.0,0.0,0.0,0.0,0.0,0.0,0.0,0.0,0.0,0.0,0.0,0.0,0.0,0.0,0.0,0.0,0.0,0.0,0.0,0.0,0.0,0.0,0.0,0.0,0.0,0.0,0.0,0.0,0.0,0.0,0.0,0.0,0.0,0.0,0.0,0.0,0.0,0.0,0.0,0.0,0.0,0.0,0.0,0.0,0.0,0.0,0.0,0.0,0.0,0.0,0.0,0.0,0.0,0.0,0.0,0.0,0.0,0.0,0.0,0.0,0.0,0.0,0.0,0.0,0.0,0.0,0.0,0.0,0.0,0.0,0.9822,0.9822,0.9822,0.9822,0.9537,0.9381,0.0,0.0,0.0,0.0,0.0,0.0,0.0,0.0,0.0,0.0,0.0,0.0,0.0,0.0,0.0,0.0,0.0,0.0,0.0,0.0,0.0,0.0,0.0,0.0,0.0,0.0,0.0,0.0,0.0,0.0,0.0,0.0,0.0,0.0,0.0,0.0,0.0,0.0,0.0,0.0,0.0,0.0,0.0,0.0,0.0,0.0,0.0,0.0,0.0,0.0,0.0,0.0,0.0,0.0,0.0,0.0,0.0,0.0,0.0,0.0,0.0,0.0,0.0,0.0,0.0,0.0,0.0,0.0,0.0,0.0,0.0,0.0,0.0,0.0,0.0,0.0,0.0,0.0,0.0,0.0,0.0,0.0,0.0,0.0,0.0,0.0,0.0,0.0,0.0,0.0,0.0,0.0,0.0,0.0,0.0,0.0,0.0,0.0,0.0,0.0,0.0,0.0,0.0,0.0,0.0,0.0,0.0,0.0,0.0,0.9822,0.9822,0.9869,0.9951,0.9585,0.9381,0.0,0.0,0.0,0.0,0.0,0.0,0.0,0.0,0.0,0.0,0.0,0.0,0.0,0.0,0.0,0.0,0.0,0.0,0.0,0.0,0.0,0.0,0.0,0.0,0.0,0.0,0.0,0.0,0.0,0.0,0.0,0.0,0.0,0.0,0.0,0.0,0.0,0.0,0.0,0.0,0.0,0.0,0.0,0.0,0.0,0.0,0.0,0.0,0.0,0.0,0.0,0.0,0.0,0.0,0.0,0.0,0.0,0.0,0.0,0.0,0.0,0.0,0.0,0.0,0.0,0.0,0.0,0.0,0.0,0.0,0.0,0.0,0.0,0.0,0.0,0.0,0.0,0.0,0.0,0.0,0.0,0.0,0.0,0.0,0.0,0.0,0.0,0.0,0.0,0.0,0.0,0.0,0.0,0.0,0.0,0.0,0.0,0.0,0.0,0.0,0.0,0.0,0.0,0.0,0.0,0.0,0.0,0.0,0.0,0.9897,0.0,0.9998,0.0,0.9707,0.9476,0.0,0.0,0.0,0.0,0.0,0.0,0.0,0.0,0.0,0.0,0.0,0.0,0.0,0.0,0.0,0.0,0.0,0.0,0.0,0.0,0.0,0.0,0.0,0.0,0.0,0.0,0.0,0.0,0.0,0.0,0.0,0.0,0.0,0.0,0.0,0.0,0.0,0.0,0.0,0.0,0.0,0.0,0.0,0.0,0.0,0.0,0.0,0.0,0.0,0.0,0.0,0.0,0.0,0.0,0.0,0.0,0.0,0.0,0.0,0.0,0.0,0.0,0.0,0.0,0.0,0.0,0.0,0.0,0.0,0.0,0.0,0.0,0.0,0.0,0.0,0.0,0.0,0.0,0.0,0.0,0.0,0.0,0.0,0.0,0.0,0.0,0.0,0.0,0.0,0.0,0.0,0.0,0.0,0.0,0.0,0.0,0.0,0.0,0.0,0.0,0.0,0.0,0.0,0.0,0.0,0.0,0.0,0.0,0.991,0.999,1.0202,1.0202,0.9997,0.9835,0.968,0.0,0.0,0.0,0.0,0.0,0.0,0.0,0.0,0.0,0.0,0.0,0.0,0.0,0.0,0.0,0.0,0.0,0.0,0.0,0.0,0.0,0.0,0.0,0.0,0.0,0.0,0.0,0.0,0.0,0.0,0.0,0.0,0.0,0.0,0.0,0.0,0.0,0.0,0.0,0.0,0.0,0.0,0.0,0.0,0.0,0.0,0.0,0.0,0.0,0.0,0.0,0.0,0.0,0.0,0.0,0.0,0.0,0.0,0.0,0.0,0.0,0.0,0.0,0.0,0.0,0.0,0.0,0.0,0.0,0.0,0.0,0.0,0.0,0.0,0.0,0.0,0.0,0.0,0.0,0.0,0.0,0.0,0.0,0.0,0.0,0.0,0.0,0.0,0.0,0.0,0.0,0.0,0.0,0.0,0.0,0.0,0.0,0.0,0.0,0.0,0.0,0.0,0.0,0.0,0.0,0.0,0.0,0.0,0.0,1.0351,1.0304,1.0304,1.0337,1.0005,0.9734,0.0,0.0,0.0,0.0,0.0,0.0,0.0,0.0,0.0,0.0,0.0,0.0,0.0,0.0,0.0,0.0,0.0,0.0,0.0,0.0,0.0,0.0,0.0,0.0,0.0,0.0,0.0,0.0,0.0,0.0,0.0,0.0,0.0,0.0,0.0,0.0,0.0,0.0,0.0,0.0,0.0,0.0,0.0,0.0,0.0,0.0,0.0,0.0,0.0,0.0,0.0,0.0,0.0,0.0,0.0,0.0,0.0,0.0,0.0,0.0,0.0,0.0,0.0,0.0,0.0,0.0,0.0,0.0,0.0,0.0,0.0,0.0,0.0,0.0,0.0,0.0,0.0,0.0,0.0,0.0,0.0,0.0,0.0,0.0,0.0,0.0,0.0,0.0,0.0,0.0,0.0,0.0,0.0,0.0,0.0,0.0,0.0,0.0,0.0,0.0,0.0,0.0,0.0,0.0,0.0,0.0,0.0,0.0,0.0,1.0826,1.0683,1.0595,1.0582,1.0304,1.0005,0.97,0.0,0.0,0.0,0.0,0.0,0.0,0.0,0.0,0.0,0.0,0.0,0.0,0.0,0.0,0.0,0.0,0.0,0.0,0.0,0.0,0.0,0.0,0.0,0.0,0.0,0.0,0.0,0.0,0.0,0.0,0.0,0.0,0.0,0.0,0.0,0.0,0.0,0.0,0.0,0.0,0.0,0.0,0.0,0.0,0.0,0.0,0.0,0.0,0.0,0.0,0.0,0.0,0.0,0.0,0.0,0.0,0.0,0.0,0.0,0.0,0.0,0.0,0.0,0.0,0.0,0.0,0.0,0.0,0.0,0.0,0.0,0.0,0.0,0.0,0.0,0.0,0.0,0.0,0.0,0.0,0.0,0.0,0.0,0.0,0.0,0.0,0.0,0.0,0.0,0.0,0.0,0.0,0.0,0.0,0.0,0.0,0.0,0.0,0.0,0.0,0.0,0.0,0.0,0.0,0.0,0.0,0.0,0.0,1.1409,1.1287,1.1077,1.0772,1.0738,1.0453,0.0,0.0,0.0,0.0,0.0,0.0,0.0,0.0,0.0,0.0,0.0,0.0,0.0,0.0,0.0,0.0,0.0,0.0,0.0,0.0,0.0,0.0,0.0,0.0,0.0,0.0,0.0,0.0,0.0,0.0,0.0,0.0,0.0,0.0,0.0,0.0,0.0,0.0,0.0,0.0,0.0,0.0,0.0,0.0,0.0,0.0,0.0,0.0,0.0,0.0,0.0,0.0,0.0,0.0,0.0,0.0,0.0,0.0,0.0,0.0,0.0,0.0,0.0,0.0,0.0,0.0,0.0,0.0,0.0,0.0,0.0,0.0,0.0,0.0,0.0,0.0,0.0,0.0,0.0,0.0,0.0,0.0,0.0,0.0,0.0,0.0,0.0,0.0,0.0,0.0,0.0,0.0,0.0,0.0,0.0,0.0,0.0,0.0,0.0,0.0,0.0,0.0,0.0,0.0,0.0,0.0,0.0,0.0,0.0,1.1708,1.1898,1.1748,1.1233,1.1002,1.0656,0.0,0.0,0.0,0.0,0.0,0.0,0.0,0.0,0.0,0.0,0.0,0.0,0.0,0.0,0.0,0.0,0.0,0.0,0.0,0.0,0.0,0.0,0.0,0.0,0.0,0.0,0.0,0.0,0.0,0.0,0.0,0.0,0.0,0.0,0.0,0.0,0.0,0.0,0.0,0.0,0.0,0.0,0.0,0.0,0.0,0.0,0.0,0.0,0.0,0.0,0.0,0.0,0.0,0.0,0.0,0.0,0.0,0.0,0.0,0.0,0.0,0.0,0.0,0.0,0.0,0.0,0.0,0.0,0.0,0.0,0.0,0.0,0.0,0.0,0.0,0.0,0.0,0.0,0.0,0.0,0.0,0.0,0.0,0.0,0.0,0.0,0.0,0.0,0.0,0.0,0.0,0.0,0.0,0.0,0.0,0.0,0.0,0.0,0.0,0.0,0.0,0.0,0.0,0.0,0.0,0.0,0.0,0.0,1.1816,1.2108,1.2413,1.2345,1.187,1.1504,1.1077,0.0,0.0,0.0,0.0,0.0,0.0,0.0,0.0,0.0,0.0,0.0,0.0,0.0,0.0,0.0,0.0,0.0,0.0,0.0,0.0,0.0,0.0,0.0,0.0,0.0,0.0,0.0,0.0,0.0,0.0,0.0,0.0,0.0,0.0,0.0,0.0,0.0,0.0,0.0,0.0,0.0,0.0,0.0,0.0,0.0,0.0,0.0,0.0,0.0,0.0,0.0,0.0,0.0,0.0,0.0,0.0,0.0,0.0,0.0,0.0,0.0,0.0,0.0,0.0,0.0,0.0,0.0,0.0,0.0,0.0,0.0,0.0,0.0,0.0,0.0,0.0,0.0,0.0,0.0,0.0,0.0,0.0,0.0,0.0,0.0,0.0,0.0,0.0,0.0,0.0,0.0,0.0,0.0,0.0,0.0,0.0,0.0,0.0,0.0,0.0,0.0,0.0,0.0,0.0,0.0,0.0,0.0,0.0,1.221,1.2522,1.2827,1.2847,1.2549,1.2101,1.1579,0.0,0.0,0.0,0.0,0.0,0.0,0.0,0.0,0.0,0.0,0.0,0.0,0.0,0.0,0.0,0.0,0.0,0.0,0.0,0.0,0.0,0.0,0.0,0.0,0.0,0.0,0.0,0.0,0.0,0.0,0.0,0.0,0.0,0.0,0.0,0.0,0.0,0.0,0.0,0.0,0.0,0.0,0.0,0.0,0.0,0.0,0.0,0.0,0.0,0.0,0.0,0.0,0.0,0.0,0.0,0.0,0.0,0.0,0.0,0.0,0.0,0.0,0.0,0.0,0.0,0.0,0.0,0.0,0.0,0.0,0.0,0.0,0.0,0.0,0.0,0.0,0.0,0.0,0.0,0.0,0.0,0.0,0.0,0.0,0.0,0.0,0.0,0.0,0.0,0.0,0.0,0.0,0.0,0.0,0.0,0.0,0.0,0.0,0.0,0.0,0.0,0.0,0.0,0.0,0.0,0.0,0.0,0.0,1.2264,1.2678,1.2969,1.3044,1.2868,1.2311,1.1728,0.0,0.0,0.0,0.0,0.0,0.0,0.0,0.0,0.0,0.0,0.0,0.0,0.0,0.0,0.0,0.0,0.0,0.0,0.0,0.0,0.0,0.0,0.0,0.0,0.0,0.0,0.0,0.0,0.0,0.0,0.0,0.0,0.0,0.0,0.0,0.0,0.0,0.0,0.0,0.0,0.0,0.0,0.0,0.0,0.0,0.0,0.0,0.0,1.0673,0.0,0.0,0.0,0.0,0.0,0.0,0.0,0.0,0.0,0.0,0.0,0.0,0.0,0.0,0.0,0.0,0.0,0.0,0.0,0.0,0.0,0.0,0.0,0.0,0.0,0.0,0.0,0.0,0.0,0.0,0.0,0.0,0.0,0.0,0.0,0.0,0.0,0.0,0.0,0.0,0.0,0.0,0.0,0.0,0.0,0.0,0.0,0.0,0.0,0.0,0.0,0.0,0.0,0.0,0.0,0.0,0.0,0.0,0.0,1.2562,1.2929,1.3159,1.318,1.3036,1.2508,1.1993,0.0,0.0,0.0,0.0,0.0,0.0,0.0,0.0,0.0,0.0,0.0,0.0,0.0,0.0,0.0,0.0,0.0,0.0,0.0,0.0,0.0,0.0,0.0,0.0,0.0,0.0,0.0,0.0,0.0,0.0,0.0,0.0,0.0,0.0,0.0,0.0,0.0,0.0,0.0,0.0,0.0,0.0,0.0,0.0,0.0,0.0,0.0,0.0,0.0,0.0,0.0,0.0,0.0,0.0,0.0,0.0,0.0,0.0,0.0,0.0,0.0,0.0,0.0,0.0,0.0,0.0,0.0,0.0,0.0,0.0,0.0,0.0,0.0,0.0,0.0,0.0,0.0,0.0,0.0,0.0,0.0,0.0,0.0,0.0,0.0,0.0,0.0,0.0,0.0,0.0,0.0,0.0,0.0,0.0,0.0,0.0,0.0,0.0,0.0,0.0,0.0,0.0,0.0,0.0,0.0,0.0,0.0,1.2528,1.2908,1.32,1.3356,1.3295,1.3084,1.2671,1.2223,1.164,0.0,0.0,0.0,0.0,0.0,0.0,0.0,0.0,0.0,0.0,0.0,0.0,0.0,0.0,0.0,0.0,0.0,0.0,0.0,0.0,0.0,0.0,0.0,0.0,0.0,0.0,0.0,0.0,0.0,0.0,0.0,0.0,0.0,0.0,0.0,0.0,0.0,0.0,1.2772,1.3756,0.0,0.0,0.0,0.0,0.0,0.0,0.0,0.0,1.3039,0.0,0.0,0.0,0.0,0.0,0.0,0.0,0.0,0.0,0.0,0.0,0.0,0.0,0.0,0.0,0.0,0.0,0.0,0.0,0.0,0.0,0.0,0.0,0.0,0.0,0.0,0.0,0.0,0.0,0.0,0.0,0.0,0.0,0.0,0.0,0.0,0.0,0.0,0.0,0.0,0.0,0.0,0.0,0.0,0.0,0.0,0.0,0.0,0.0,0.0,0.0,0.0,0.0,0.0,0.0,0.0,1.2135,1.263,1.3064,1.3356,1.3512,1.3451,1.3139,1.2725,1.2223,1.1633,0.0,0.0,0.0,0.0,0.0,0.0,0.0,0.0,0.0,0.0,0.0,0.0,0.0,0.0,0.0,0.0,0.0,0.0,0.0,0.0,0.0,0.0,0.0,0.0,0.0,0.0,0.0,0.0,0.0,0.0,0.0,0.0,0.0,0.0,0.0,0.0,0.0,0.0,0.0,1.5556,1.6223,0.0,0.0,0.0,0.0,0.0,0.0,0.0,0.0,1.4361,0.0,0.0,0.0,0.0,0.0,0.0,0.0,0.0,0.0,0.0,0.0,0.0,0.0,0.0,0.0,0.0,0.0,0.0,0.0,0.0,0.0,0.0,0.0,0.0,0.0,0.0,0.0,0.0,0.0,0.0,0.0,0.0,0.0,0.0,0.0,0.0,0.0,0.0,0.0,0.0,0.0,0.0,0.0,0.0,0.0,0.0,0.0,0.0,0.0,0.0,0.0,0.0,0.0,0.0,0.0,1.2284,1.2807,1.3214,1.3505,1.3593,1.3485,1.318,1.2739,1.223,0.0,0.0,0.0,0.0,0.0,0.0,0.0,0.0,0.0,0.0,0.0,0.0,0.0,0.0,0.0,0.0,0.0,0.0,0.0,0.0,0.0,0.0,0.0,0.0,0.0,0.0,0.0,0.0,0.0,0.0,0.0,0.0,0.0,0.0,0.0,0.0,0.0,0.0,0.0,0.0,1.7106,1.7719,1.7805,0.0,0.0,0.0,0.0,0.0,0.0,1.6486,1.6066,0.0,0.0,0.0,0.0,0.0,0.0,0.0,0.0,0.0,0.0,0.0,0.0,0.0,0.0,0.0,0.0,0.0,0.0,0.0,0.0,0.0,0.0,0.0,0.0,0.0,0.0,0.0,0.0,0.0,0.0,0.0,0.0,0.0,0.0,0.0,0.0,0.0,0.0,0.0,0.0,0.0,0.0,0.0,0.0,0.0,0.0,0.0,0.0,0.0,0.0,0.0,0.0,0.0,0.0,0.0,1.2535,1.299,1.3363,1.3654,1.3668,1.3512,1.318,1.2739,1.221,0.0,0.0,0.0,0.0,0.0,0.0,0.0,0.0,0.0,0.0,0.0,0.0,0.0,0.0,0.0,0.0,0.0,0.0,0.0,0.0,0.0,0.0,0.0,0.0,0.0,0.0,0.0,0.0,0.0,0.0,0.0,0.0,0.0,0.0,0.0,0.0,0.0,0.0,0.0,0.0,0.0,1.9157,1.9377,1.9463,0.0,0.0,0.0,0.0,1.8952,1.825,0.0,0.0,0.0,0.0,0.0,0.0,0.0,0.0,0.0,0.0,0.0,0.0,0.0,0.0,0.0,0.0,0.0,0.0,0.0,0.0,0.0,0.0,0.0,0.0,0.0,0.0,0.0,0.0,0.0,0.0,0.0,0.0,0.0,0.0,0.0,0.0,0.0,0.0,0.0,0.0,0.0,0.0,0.0,0.0,0.0,0.0,0.0,0.0,0.0,0.0,0.0,0.0,0.0,0.0,0.0,0.0,1.2684,1.3146,1.3519,1.3711,1.3732,1.3607,1.318,1.2739,1.2162,0.0,0.0,0.0,0.0,0.0,0.0,0.0,0.0,0.0,0.0,0.0,0.0,0.0,0.0,0.0,0.0,0.0,0.0,0.0,0.0,0.0,0.0,0.0,0.0,0.0,0.0,0.0,0.0,0.0,0.0,0.0,0.0,0.0,0.0,0.0,0.0,0.0,0.0,0.0,0.0,0.0,2.0307,2.0333,2.0548,2.0778,0.0,0.0,2.0611,2.0318,1.9906,0.0,0.0,0.0,0.0,0.0,0.0,0.0,0.0,0.0,0.0,0.0,0.0,0.0,0.0,0.0,0.0,0.0,0.0,0.0,0.0,0.0,0.0,0.0,0.0,0.0,0.0,0.0,0.0,0.0,0.0,0.0,0.0,0.0,0.0,0.0,0.0,0.0,0.0,0.0,0.0,0.0,0.0,0.0,0.0,0.0,0.0,0.0,0.0,0.0,0.0,0.0,0.0,0.0,0.0,0.0,1.1562,1.2589,1.3044,1.3417,1.3709,1.3722,1.3546,1.318,1.2739,1.2155,0.0,0.0,0.0,0.0,0.0,0.0,0.0,0.0,0.0,0.0,0.0,0.0,0.0,0.0,0.0,0.0,0.0,0.0,0.0,0.0,0.0,0.0,0.0,0.0,0.0,0.0,0.0,0.0,0.0,0.0,0.0,0.0,0.0,0.0,0.0,0.0,0.0,0.0,0.0,0.0,0.0,0.0,2.1097,2.1346,0.0,0.0,0.0,2.149,2.1359,0.0,0.0,0.0,0.0,0.0,0.0,0.0,0.0,0.0,0.0,0.0,0.0,0.0,0.0,0.0,0.0,0.0,0.0,0.0,0.0,0.0,0.0,0.0,0.0,0.0,0.0,0.0,0.0,0.0,0.0,0.0,0.0,0.0,0.0,0.0,0.0,0.0,0.0,0.0,0.0,0.0,0.0,0.0,0.0,0.0,0.0,0.0,0.0,0.0,0.0,0.0,0.0,0.0,0.0,0.0,0.0,0.0,1.2549,1.2963,1.3322,1.362,1.3627,1.3464,1.3125,1.2718,0.0,0.0,0.0,0.0,0.0,0.0,0.0,0.0,0.0,0.0,0.0,0.0,0.0,0.0,0.0,0.0,0.0,0.0,0.0,0.0,0.0,0.0,0.0,0.0,0.0,0.0,0.0,1.0806,0.0,0.0,0.0,0.0,0.0,0.0,0.0,0.0,0.0,0.0,0.0,0.0,0.0,0.0,2.1748,2.1829,2.2017,2.2205,0.0,0.0,2.2178,2.2098,2.1595,2.1241,0.0,0.0,0.0,0.0,0.0,0.0,0.0,0.0,0.0,0.0,0.0,0.0,0.0,0.0,0.0,0.0,0.0,0.0,0.0,0.0,0.0,0.0,0.0,0.0,0.0,0.0,0.0,0.0,0.0,0.0,0.0,0.0,0.0,0.0,0.0,0.0,0.0,0.0,0.0,0.0,0.0,0.0,0.0,0.0,0.0,0.0,0.0,0.0,0.0,0.0,0.0,0.0,0.0,0.0,1.1183,1.2613,1.3017,1.3322,1.3614,1.3627,1.3417,1.299,1.2664,1.2088,0.0,0.0,0.0,0.0,0.0,0.0,0.0,0.0,0.0,0.0,0.0,0.0,0.0,0.0,0.0,0.0,0.0,0.0,0.0,0.0,0.0,0.0,0.0,0.0,0.0,0.0,0.0,0.0,0.0,0.0,0.0,0.0,0.0,0.0,0.0,0.0,0.0,0.0,0.0,0.0,0.0,2.2058,2.2325,2.2619,2.2874,0.0,2.2806,2.2712,2.2432,2.2151,2.1923,2.2042,0.0,0.0,0.0,0.0,0.0,0.0,0.0,0.0,0.0,0.0,0.0,0.0,0.0,0.0,0.0,0.0,0.0,0.0,0.0,0.0,0.0,0.0,0.0,0.0,0.0,0.0,0.0,0.0,0.0,0.0,0.0,0.0,0.0,0.0,0.0,0.0,0.0,0.0,0.0,0.0,0.0,0.0,0.0,0.0,0.0,0.0,0.0,0.0,0.0,0.0,0.0,0.0,0.0,1.1094,1.2447,1.2847,1.3186,1.3471,1.3492,1.3315,1.2969,1.2664,1.2128,0.0,0.0,0.0,0.0,0.0,0.0,0.0,0.0,0.0,0.0,0.0,0.0,0.0,0.0,0.0,0.0,0.0,0.0,0.0,0.0,0.0,0.0,0.0,0.0,0.0,0.0,0.0,0.0,1.4248,1.4753,1.5579,0.0,0.0,0.0,0.0,0.0,0.0,0.0,0.0,0.0,0.0,2.2151,2.2619,2.2792,0.0,0.0,2.2993,2.2969,2.3039,2.2618,2.2411,2.2614,2.2342,0.0,0.0,0.0,0.0,0.0,0.0,0.0,0.0,0.0,0.0,0.0,0.0,0.0,0.0,0.0,0.0,0.0,0.0,0.0,0.0,0.0,0.0,0.0,0.0,0.0,0.0,0.0,0.0,0.0,0.0,0.0,0.0,0.0,0.0,0.0,0.0,0.0,0.0,0.0,0.0,0.0,0.0,0.0,0.0,0.0,0.0,0.0,0.0,0.0,0.0,0.0,0.0,1.1017,1.2352,1.2759,1.3105,1.3397,1.3397,1.3261,1.305,1.2664,1.2155,0.0,0.0,0.0,0.0,0.0,0.0,0.0,0.0,0.0,0.0,0.0,0.0,0.0,0.0,0.0,0.0,0.0,0.0,0.0,0.0,0.0,0.0,0.0,0.0,0.0,0.0,0.0,0.0,1.5182,1.5619,1.6467,0.0,0.0,0.0,0.0,0.0,0.0,0.0,0.0,0.0,0.0,2.2205,2.2779,2.2939,2.3086,2.33,2.3278,2.3268,2.3543,2.3239,2.3102,2.3431,0.0,0.0,0.0,0.0,0.0,0.0,0.0,0.0,0.0,0.0,0.0,0.0,0.0,0.0,0.0,0.0,0.0,0.0,0.0,0.0,0.0,0.0,0.0,0.0,0.0,0.0,0.0,0.1053,0.0,0.0,0.1095,0.0,0.0,0.0,0.0,0.0,0.0,0.0,0.0,0.0,0.0,0.0,0.0,0.0,0.0,0.0,0.0,0.0,0.0,0.0,0.0,0.0,0.0,1.0966,1.2481,1.28,1.3105,1.3383,1.3397,1.3254,1.2969,1.2664,1.2155,1.1409,0.0,0.0,0.0,0.0,0.0,0.0,0.0,0.0,0.0,0.0,0.0,0.0,0.0,0.0,0.0,0.0,0.0,0.0,0.0,0.0,0.0,0.0,0.0,0.0,0.0,0.0,1.538,1.6199,1.677,0.0,0.0,0.0,0.0,0.0,0.0,0.0,0.0,0.0,2.1467,2.1804,2.2205,2.2779,2.3126,2.3313,2.3327,2.3662,2.3858,2.3914,2.4017,2.4156,0.0,0.0,0.0,0.0,0.0,0.0,0.0,0.0,0.0,0.0,0.0,0.0,0.0,0.0,0.0,0.0,0.0,0.0,0.0,0.0,0.0,0.0,0.0,0.0,0.0,0.0,0.0,0.2275,0.1896,0.0,0.0,0.0,0.0,0.0,0.0,0.0,0.0,0.0,0.0,0.0,0.4097,0.4597,0.0,0.0,0.0,0.0,0.0,0.0,0.0,0.0,0.0,0.0,0.0,0.0,1.1181,1.2203,1.2705,1.3051,1.3241,1.3247,1.3159,1.3043,1.2664,1.2101,1.1267,0.0,0.0,0.0,0.0,0.0,0.0,0.0,0.0,0.0,0.0,0.0,0.0,0.0,0.0,0.0,0.0,0.0,0.0,0.0,0.0,0.0,0.0,0.0,0.0,0.0,1.4823,0.0,0.0,0.0,0.0,0.0,0.0,0.0,0.0,0.0,0.0,0.0,2.0989,2.1547,2.1964,2.2485,2.3086,2.326,2.3464,0.0,0.0,0.0,0.0,0.0,0.0,0.0,0.0,0.0,0.0,0.0,0.0,0.0,0.0,2.3153,2.2082,2.17,2.1347,2.0562,0.0,0.0,0.0,0.0,0.0,0.0,0.0,0.0,0.0,0.0,0.0,0.0,0.0,0.0,0.3875,0.3597,0.3201,0.0,0.0,0.0,0.0,0.0,0.0,0.0,0.0,0.5669,0.6174,0.6347,0.6794,0.7224,0.0,0.7621,0.7341,0.0,0.0,0.0,0.0,0.0,0.0,0.0,0.0,1.128,1.2135,1.263,1.2949,1.3091,1.3098,1.303,1.2881,1.2481,1.1918,1.1255,1.0643,1.0148,0.0,0.0,0.0,0.0,0.0,0.0,0.0,0.0,0.0,0.0,0.0,0.0,0.0,0.0,0.0,0.0,0.0,0.0,0.0,0.0,0.0,0.0,0.0,1.5555,0.0,0.0,0.0,0.0,0.0,0.0,0.0,0.0,0.0,1.9973,2.0628,2.1296,2.179,2.2178,2.2632,2.3247,0.0,0.0,0.0,0.0,0.0,0.0,0.0,2.7403,2.7582,2.7949,2.8242,2.8307,2.7965,2.7409,2.6839,0.0,0.0,2.3426,2.2835,2.2317,2.1652,2.1271,2.0903,2.0596,2.0535,2.0535,0.0,0.0,0.0,0.0,0.0,0.0,0.0,0.0,0.5816,0.5689,0.0,0.5195,0.0,0.0,0.0,0.0,0.5828,0.5983,0.0,0.0,0.8,0.8529,0.9085,0.9475,0.9573,0.9463,0.972,0.9843,0.9879,0.8387,0.0,0.0,0.0,0.0,0.0,0.0,1.1405,1.2264,1.2576,1.2807,1.2949,1.3036,1.2881,1.2712,1.2149,1.1647,1.1192,1.0751,1.0304,0.9863,0.9557,0.0,0.0,0.0,0.0,0.0,0.0,0.0,0.0,0.0,0.0,0.0,0.0,0.0,0.0,0.0,0.0,0.0,0.0,0.0,0.0,1.4902,0.0,0.0,0.0,0.0,0.0,0.0,0.0,0.0,0.0,0.0,2.1162,2.1176,2.1456,2.2311,0.0,0.0,0.0,0.0,2.4575,2.5296,2.6414,2.7286,2.7626,2.8681,2.9421,2.9388,0.0,0.0,3.0497,2.9798,2.8897,2.7856,2.7019,2.609,2.4415,2.3554,2.2914,2.2265,2.1817,2.1515,2.1199,2.1136,2.1136,1.1412,0.0,0.0,0.0,0.0,0.93,0.9064,0.8756,0.8475,0.8184,0.7982,0.766,0.0,0.0,0.0,0.0,0.0,0.0,0.8237,0.8957,0.9484,0.9998,1.0508,1.0912,1.1054,1.1013,1.0946,1.1027,1.1315,1.0614,0.998,0.9673,0.0,0.0,0.0,0.0,1.1777,1.2135,1.2528,1.2752,1.2793,1.2793,1.2678,1.242,1.2149,1.1837,1.1497,1.1056,1.0656,1.031,0.991,0.0,0.0,0.0,0.0,0.0,0.0,0.0,0.0,0.0,0.0,0.0,0.0,0.0,0.0,0.0,0.0,0.0,0.0,0.0,1.3934,1.5636,1.6892,0.0,0.0,0.0,0.0,0.0,0.0,0.0,0.0,0.0,2.2245,2.2178,2.2218,0.0,0.0,2.3207,2.3594,2.4232,2.4953,2.5611,2.6964,0.0,2.8735,2.9798,3.0479,3.0139,3.0361,3.0429,3.0105,2.9421,2.8615,2.7761,2.6641,2.5559,2.4873,2.4196,2.3422,2.2646,2.2308,2.2114,2.1802,2.1737,2.1737,1.3094,1.2287,1.1397,1.1027,1.1033,1.1005,1.0913,1.0616,1.0462,1.0231,1.0028,0.9712,0.9574,0.9596,0.8998,0.0,0.0,0.0,0.9464,1.0414,1.0758,1.1364,1.1987,1.2238,1.2368,1.2304,1.2086,1.1992,1.2108,1.1799,1.1364,1.0754,0.0,0.0,1.1074,1.1655,1.1999,1.2155,1.2474,1.2637,1.2637,1.2583,1.2474,1.2291,1.2081,1.183,1.1538,1.1212,1.0867,1.0507,1.012,0.9802,0.0,0.0,0.0,0.0,0.0,0.0,0.0,0.0,0.0,0.0,0.0,0.8689,0.8798,0.0,0.0,0.0,1.0743,1.238,1.4367,1.5856,0.0,0.0,0.0,0.0,0.0,0.0,0.0,2.1029,2.1416,2.1937,2.2752,2.2806,2.2886,2.318,2.3394,2.3607,2.3901,0.0,2.538,2.6215,2.7473,2.8629,2.9438,3.0393,3.0939,3.0926,3.0736,3.0529,3.0112,2.9346,2.8436,2.7614,2.6438,2.5293,2.4805,2.4142,2.3591,2.2993,2.2726,2.2592,2.2392,2.2338,2.2338,1.4231,1.3968,1.2887,1.2374,1.2284,1.2408,1.2384,1.2272,1.1849,1.1771,1.1943,1.1382,1.1191,1.134,1.0346,0.0,1.0562,0.9925,1.034,1.1776,1.1899,1.244,1.3397,1.3397,1.3329,1.3186,1.3037,1.2813,1.2542,1.2379,1.223,1.2149,1.1823,1.1681,1.1667,1.1938,1.2149,1.2284,1.2433,1.2501,1.2501,1.2359,1.2284,1.2271,1.1986,1.1694,1.1402,1.1246,1.0968,1.0548,1.0186,0.995,0.9836,0.0,0.0,0.0,0.0,0.0,0.0,0.0,0.0,0.0,0.0,0.0,0.0,0.0,0.0,0.0,1.1515,0.0,1.4256,1.5844,0.0,0.0,0.0,1.9645,1.9867,2.0641,2.1162,2.1203,0.0,0.0,2.2899,2.3207,2.35,2.3808,2.3821,2.3915,2.4195,2.4888,2.5767,2.6765,2.7825,2.8851,2.9536,3.0337,3.0889,3.1209,3.1064,3.0605,3.0146,2.9234,2.8259,2.7373,2.627,2.5144,2.4339,2.3748,2.3338,2.3311,2.3106,2.2914,2.2819,2.2819,2.2806,1.4373,1.4238,1.3954,1.3694,1.3402,1.3435,1.3429,1.3396,1.3311,1.3166,1.3012,1.2864,1.2627,1.2364,1.1858,1.1676,1.1698,1.1456,1.1676,1.2394,1.2453,1.2784,1.3397,1.3397,1.3383,1.3329,1.3085,1.2922,1.284,1.2583,1.2379,1.2244,1.2271,1.2176,1.1972,1.2142,1.225,1.2291,1.2427,1.2501,1.2494,1.2359,1.2237,1.2121,1.1932,1.1694,1.1402,1.124,1.1063,1.0846,1.0548,1.0263,1.0074,0.9754,0.0,0.0,0.0,0.0,0.0,0.0,0.0,0.0,0.0,0.9164,0.9313,0.0,0.9559,0.0,1.202,1.3719,1.4931,1.6576,0.0,0.0,1.9693,2.0481,2.0775,2.1189,2.1617,2.2058,2.2485,2.2953,2.3487,2.3808,2.4102,2.4382,2.4235,2.4209,2.4476,2.4896,2.5583,2.6444,2.726,2.8042,2.8851,2.9354,2.9783,3.0195,2.9712,2.9122,2.8748,2.797,2.7041,2.607,2.5213,2.4396,2.3685,2.3252,2.3023,2.2996,2.2928,2.2859,2.2859,2.2859,2.2859,1.4489,1.4299,1.4299,1.4204,1.4041,1.4048,1.4048,1.4041,1.3973,1.381,1.358,1.339,1.3159,1.2855,1.2468,1.2308,1.2215,1.2044,1.2143,1.2617,1.2694,1.2982,1.3397,1.3397,1.3397,1.339,1.3105,1.3043,1.2942,1.2651,1.2461,1.2386,1.2461,1.242,1.2271,1.2345,1.2386,1.2386,1.2461,1.2501,1.2494,1.2298,1.2149,1.206,1.1782,1.1525,1.1294,1.1145,1.0995,1.0853,1.0622,1.0419,1.0256,0.9978,0.9713,0.0,0.0,0.0,0.0,0.0,0.0,0.0,0.0,0.0,0.0,0.0,0.9874,1.0635,1.2387,1.4033,1.5449,1.7066,1.8447,1.9498,2.0367,2.0985,2.147,2.1764,2.2058,2.2378,2.2686,2.3169,2.3688,2.3915,2.4168,2.4569,2.4502,2.4449,2.4596,2.4931,2.5446,2.6034,2.6604,2.7245,2.7897,2.813,2.8418,2.8691,2.8331,2.7825,2.7608,2.6852,2.6055,2.528,2.4405,2.3725,2.3354,2.3073,2.2941,2.2859,2.2859,2.2859,2.2859,2.2859,2.2859,1.448,1.4217,1.4122,1.4122,1.4122,1.4122,1.421,1.4292,1.4156,1.4007,1.3817,1.339,1.32,1.3193,1.2667,1.2518,1.2546,1.2213,1.237,1.2816,1.2816,1.2982,1.3397,1.3397,1.3397,1.339,1.3098,1.3043,1.3029,1.2651,1.2501,1.2501,1.2501,1.2501,1.2501,1.2501,1.2501,1.2501,1.2501,1.2501,1.2494,1.221,1.206,1.2047,1.1626,1.1321,1.1165,1.1023,1.0813,1.0724,1.0588,1.0514,1.0487,1.012,0.9897,0.0,0.9639,0.0,0.0,0.0,0.0,0.0,0.0,0.0,0.0,0.9883,1.0311,1.1241,1.2689,1.4185,1.5773,1.733,1.882,2.0241,2.0863,2.1372,2.1951,2.2231,2.2472,2.2472,2.2739,2.3126,2.3621,2.3812,2.3968,2.4396,2.4462,2.4449,2.4516,2.4804,2.5226,2.5653,2.605,2.643,2.6721,2.6808,2.6953,2.7186,2.7085,2.6794,2.6692,2.5968,2.518,2.461,2.3944,2.334,2.3273,2.3033,2.2873,2.2859,2.2859,2.2859,2.2859,2.2859,2.2859,1.4022,1.3679,1.3318,1.3141,1.3141,1.3147,1.3591,1.4299,1.4272,1.4102,1.3824,1.3498,1.3356,1.3356,1.3246,1.3246,1.3273,1.3108,1.3121,1.3238,1.3238,1.3321,1.3397,1.3397,1.3397,1.3383,1.3098,1.3043,1.2956,1.2651,1.2501,1.2501,1.2501,1.2501,1.2501,0.0,0.0,0.0,1.2501,1.2501,1.2488,1.221,1.206,1.2054,1.1626,0.0,1.1234,1.1023,1.0813,1.0731,1.069,0.0,0.0,0.0,0.0,0.0,0.0,0.0,0.0,0.0,0.0,0.0,1.0168,1.0161,1.0188,1.0447,1.0932,1.1757,1.3088,1.4503,1.6075,1.7697,1.8948,1.9863,2.0993,2.1817,2.1949,2.2457,2.2779,2.2779,2.3046,2.3273,2.3394,2.3621,2.3879,2.3941,2.3928,2.3928,2.3955,2.4415,2.4844,2.5212,2.5444,2.558,2.571,2.571,2.571,2.5811,2.5937,2.5819,2.5391,2.5091,2.4556,2.3833,2.3407,2.3233,2.3006,2.2968,2.2859,2.2859,2.2859,2.2859,2.2859,2.2859,2.2859,1.3142,1.2426,1.1982,1.171,0.0,1.171,1.2248,1.2869,1.3673,1.386,1.3824,1.3532,1.3397,1.3397,1.3397,1.3397,1.3397,1.3397,1.3397,1.3397,1.3397,1.3397,1.3397,1.3397,1.3363,1.3281,1.3064,1.2922,1.2834,1.2617,1.2501,1.2501,1.2501,1.2501,1.2501,1.2501,1.2501,1.2501,1.2501,1.2501,1.2488,1.2216,1.206,1.2047,1.1626,0.0,0.0,0.0,0.0,0.0,0.0,0.0,0.0,0.0,0.0,1.0385,1.0317,1.034,1.0347,1.0344,1.0385,1.0385,1.0527,1.0582,1.05,1.0692,1.1132,1.1807,1.2909,1.4177,1.544,1.6926,1.82,1.9278,2.0364,2.1133,2.1569,2.2151,2.2585,2.2667,2.2855,2.3153,2.3313,2.3447,2.3607,2.3741,2.3781,2.3768,2.3794,2.4008,2.4281,2.4499,2.4535,2.4627,2.4627,2.4627,2.4699,2.477,2.4809,2.4778,2.4569,2.4276,2.386,2.3367,2.3207,2.3033,2.2913,2.2859,2.2859,2.2859,2.2859,2.2859,2.2859,2.2859,2.2859,1.209,1.0994,1.0461,0.9927,0.9576,1.0016,1.0639,1.1349,1.2909,0.0,0.0,1.3532,1.3397,1.3397,1.3397,1.3397,1.3397,1.3397,1.3397,1.3397,1.3397,1.3397,1.3397,1.3397,1.3322,1.3173,1.303,1.2881,1.2725,1.2576,1.2501,1.2501,1.2501,1.2501,1.2501,1.2501,1.2501,1.2501,1.2501,1.2501,1.2494,1.2237,1.2088,1.206,1.1653,1.1362,1.1206,1.1063,1.0914,1.0772,1.0765,1.0744,1.0717,1.0602,1.0527,1.0527,1.0419,1.0358,1.0358,1.0466,1.0541,1.0568,1.0806,1.0826,1.0705,1.09,1.118,1.1669,1.2582,1.362,1.4632,1.5904,1.7225,1.8589,1.9379,2.0156,2.0861,2.1622,2.2104,2.2242,2.2529,2.2884,2.3193,2.3233,2.3327,2.3541,2.3554,2.3691,2.3691,2.3714,2.3834,2.3892,2.3897,2.3758,2.3701,2.3758,2.3829,2.4086,2.3941,2.3883,2.4001,2.3685,2.3327,2.3233,2.302,2.2899,2.2873,2.2859,2.2859,2.2859,2.2859,2.2859,2.2859,2.2859,2.2859,1.0655,0.9482,0.868,0.8056,0.7613,0.8056,0.9215,1.089,1.2445,1.3449,1.3824,1.3532,1.3397,1.3397,1.3397,1.3397,1.3397,1.3397,1.3397,1.3397,1.3397,1.3397,1.3397,1.3397,1.3322,1.3173,1.303,1.2881,1.2725,1.2576,1.2501,1.2501,1.2501,1.2501,1.2501,1.2501,1.2501,1.2501,1.2501,1.2501,1.2501,1.2345,1.2196,1.2054,1.1755,1.1518,1.1362,1.1212,1.1063,1.086,1.0914,1.0786,1.0731,1.0704,1.069,1.069,1.067,1.0656,1.0656,1.0677,1.0744,1.0806,1.086,1.0873,1.0853,1.105,1.14,1.1902,1.2344,1.3177,1.439,1.5256,1.6244,1.7419,1.8471,1.932,1.9738,2.0723,2.1484,2.1829,2.2173,2.2529,2.2871,2.2953,2.2966,2.2993,2.3086,2.302,2.3196,2.3517,2.3741,2.3741,2.3554,2.3407,2.338,2.3394,2.3394,2.345,2.3651,2.3621,2.3477,2.341,2.3207,2.2979,2.2968,2.2873,2.2859,2.2859,2.2859,2.2859,2.2859,2.2859,2.2859,2.2859,2.2859,0.8359,0.6981,0.6267,0.5554,0.493,0.618,0.7788,0.9646,1.1014,1.2288,1.3376,1.3365,1.3397,1.3397,1.3397,1.3397,1.3397,1.3397,1.3397,1.3397,1.3397,1.3397,1.3397,1.3397,1.3281,1.3064,1.299,1.284,1.2617,1.2535,1.2501,1.2501,1.2501,1.2501,1.2501,1.2501,1.2501,1.2501,1.2501,1.2501,1.2501,1.2366,1.2216,1.2067,1.185,1.1626,1.1402,1.1328,1.1219,1.107,1.1063,1.1036,1.0962,1.0887,1.0779,1.0779,1.0779,1.0846,1.0846,1.0914,1.0989,1.1063,1.1145,1.1192,1.1185,1.1246,1.1425,1.1782,1.2151,1.2615,1.3246,1.4102,1.5026,1.5947,1.7077,1.8061,1.8843,1.9889,2.0723,2.122,2.1829,2.2379,2.2585,2.2791,2.2859,2.2859,2.2859,2.2859,2.2859,2.3155,2.3287,2.326,2.3166,2.3086,2.3073,2.3073,2.3073,2.3073,2.318,2.3207,2.3086,2.3086,2.302,2.2899,2.2859,2.2859,2.2859,2.2859,2.2859,2.2859,2.2859,2.2859,2.2859,2.2859,2.2806,0.6177,0.448,0.4033,0.3407,0.287,0.4483,0.6359,0.8222,0.9449,1.0999,1.2686,1.3114,1.3321,1.3397,1.3397,1.3397,1.3397,1.3397,1.3397,1.3397,1.3397,1.3397,1.3397,1.3397,1.3247,1.299,1.3043,1.2807,1.2528,1.2501,1.2501,1.2501,1.2501,1.2501,1.2501,1.2501,1.2501,1.2501,1.2501,1.2501,1.2501,1.2393,1.225,1.2067,1.1945,1.1742,1.1463,1.1443,1.1369,1.1226,1.1212,1.1199,1.1165,1.1056,1.0927,1.0927,1.0995,1.0995,1.1002,1.1097,1.1248,1.1212,1.1321,1.1402,1.1436,1.1443,1.1491,1.1599,1.19,1.2115,1.2338,1.3118,1.3967,1.4822,1.5886,1.7017,1.8082,1.9192,2.0156,2.0665,2.1622,2.2242,2.2448,2.2722,2.2859,2.2859,2.2859,2.2859,2.2859,2.2859,2.2859,2.2859,2.2859,2.2886,2.2859,2.2873,2.2873,2.2859,2.2886,2.2913,2.2886,2.2873,2.2873,2.2859,2.2859,2.2859,2.2859,2.2859,2.2859,2.2859,2.2859,2.2859,2.2859,2.2859,2.2766,0.4391,0.3139,0.2601,0.2332,0.2421,0.3409,0.493,0.6786,0.8399,1.0047,1.1835,1.252,1.2982,1.3397,1.3397,1.3397,1.3397,1.3397,1.3397,1.3397,1.3397,1.3397,1.3397,1.3397,1.3247,1.299,1.3043,1.2807,1.2515,1.2501,1.2501,1.2501,1.2501,1.2501,1.2501,1.2501,1.2501,1.2501,1.2501,1.2501,1.2501,1.2488,1.2345,1.2067,1.2047,1.1904,1.1606,1.1599,1.1531,1.1389,1.1369,1.1307,1.1255,1.1151,1.1145,1.1145,1.1145,1.1145,1.1145,1.1227,1.1233,1.1355,1.1389,1.145,1.1572,1.1592,1.1599,1.1619,1.1619,1.1835,1.2194,1.2689,1.3396,1.4474,1.5541,1.6532,1.7449,1.8703,1.9889,2.0665,2.1358,2.2104,2.2585,2.2859,2.2859,2.2859,2.2859,2.2859,2.2859,2.2859,2.2859,2.2859,2.2859,2.2859,2.2859,2.2859,2.2859,2.2859,2.2859,2.2859,2.2859,2.2859,2.2859,2.2859,2.2859,2.2859,2.2859,2.2859,2.2859,2.2859,2.2859,2.2859,2.2859,2.2859,2.2752,0.269,0.1615,0.1436,0.1346,0.1436,0.2333,0.3676,0.5365,0.7265,0.9103,1.0886,1.1933,1.2733,1.3397,1.3397,1.3397,1.3397,1.3397,1.3397,1.3397,1.3397,1.3397,1.3397,1.3397,1.3247,1.3056,1.3043,1.2807,1.2549,1.2501,1.2501,1.2501,1.2501,1.2501,1.2501,1.2501,1.2501,1.2501,1.2501,1.2501,1.2501,1.2501,1.2359,1.2094,1.206,1.1925,1.1653,1.1619,1.1592,1.1531,1.1525,1.1497,1.1436,1.1348,1.1301,1.1294,1.1301,1.1335,1.143,1.143,1.1457,1.1525,1.1525,1.1552,1.1613,1.1619,1.1619,1.1619,1.1619,1.1691,1.1907,1.2402,1.3182,1.4118,1.5186,1.624,1.7238,1.8433,1.9471,2.004,2.1081,2.1897,2.2242,2.2654,2.2859,2.2859,2.2859,2.2859,2.2859,2.2859,2.2859,2.2859,2.2859,2.2859,2.2859,2.2859,2.2859,2.2859,2.2859,2.2859,2.2859,2.2859,2.2859,2.2859,2.2859,2.2859,2.2859,2.2859,2.2859,2.2859,2.2859,2.2859,2.2859,2.2859,2.2739,0.1256,0.0539,0.0539,0.0539,0.0628,0.1525,0.287,0.4468,0.6482,0.8498,1.0548,1.1597,1.2567,1.3314,1.3397,1.3397,1.3397,1.3397,1.3397,1.3397,1.3397,1.3397,1.3397,1.3397,1.3247,1.3003,1.3043,1.2807,1.2535,1.2501,1.2501,1.2501,1.2501,1.2501,1.2501,1.2501,1.2501,1.2501,1.2501,1.2501,1.2501,1.2501,1.2359,1.2094,1.206,1.1925,1.1633,1.1619,1.1619,1.1619,1.1619,1.1619,1.1613,1.1511,1.1457,1.1457,1.145,1.1497,1.1613,1.1619,1.1619,1.1619,1.1619,1.1619,1.1619,1.1619,1.1619,1.1619,1.1619,1.1619,1.1691,1.233,1.3039,1.3761,1.4822,1.5957,1.6885,1.8082,1.9052,1.9611,2.0792,2.176,2.2104,2.2585,2.2859,2.2859,2.2859,2.2859,2.2859,2.2859,2.2859,2.2859,2.2859,2.2859,2.2859,2.2859,2.2859,2.2859,2.2859,2.2859,2.2859,2.2859,2.2859,2.2859,2.2859,2.2859,2.2859,2.2859,2.2859,2.2859,2.2859,2.2859,2.2859,2.2859,2.2739,0.0449,0.009,0.0,0.009,0.018,0.1077,0.2512,0.4387,0.613,0.8412,1.08,1.1771,1.2573,1.3397,1.3397,1.3397,1.3397,1.3397,1.3397,1.3397,1.3397,1.3397,1.3397,1.3397,1.3247,1.2996,1.2963,1.28,1.2515,1.2501,1.2501,1.2501,1.2501,1.2501,1.2501,1.2501,1.2501,1.2501,1.2501,1.2501,1.2501,1.2501,1.2359,1.2094,1.206,1.1918,1.166,1.1619,1.1619,1.1619,1.1619,1.1619,1.1619,1.1606,1.1599,1.1599,1.1599,1.1606,1.1613,1.1619,1.1619,1.1619,1.1619,1.1619,1.1619,1.1619,1.1619,1.1619,1.1619,1.1619,1.1691,1.2259,1.2896,1.3325,1.4679,1.5673,1.6178,1.752,1.8643,1.9401,2.0515,2.1622,2.2654,2.2859,2.2859,2.2859,2.2859,2.2859,2.2859,2.2859,2.2859,2.2859,2.2859,2.2859,2.2859,2.2859,2.2859,2.2859,2.2859,2.2859,2.2859,2.2859,2.2859,2.2859,2.2859,2.2859,2.2859,2.2859,2.2859,2.2859,2.2859,2.2859,2.2859,2.2859,2.2739,0.018,0.0,0.0,0.018,0.0539,0.1525,0.287,0.4476,0.6529,0.8552,1.0467,1.1684,1.2656,1.3397,1.3397,1.3397,1.3397,1.3397,1.3397,1.3397,1.3397,1.3397,1.3397,1.3397,1.3302,1.3112,1.3003,1.28,1.2528,1.2501,1.2501,1.2501,1.2501,1.2501,1.2501,1.2501,1.2501,1.2501,1.2501,1.2501,1.2501,1.2501,1.2366,1.2081,1.206,1.1925,1.1626,1.1619,1.1619,1.1619,1.1619,1.1619,1.1619,1.1619,1.1619,1.1619,1.1619,1.1619,1.1619,1.1619,1.1619,1.1619,1.1619,1.1619,1.1619,1.1619,1.1619,1.1619,1.1619,1.1619,1.1691,1.2115,1.2545,1.3039,1.4102,1.5035,1.5603,1.6725,1.7921,1.8633,2.0028,2.1553,2.231,2.2722,2.2859,2.2859,2.2859,2.2859,2.2859,2.2859,2.2859,2.2859,2.2859,2.2859,2.2859,2.2859,2.2859,2.2859,2.2859,2.2859,2.2859,2.2859,2.2859,2.2859,2.2859,2.2859,2.2859,2.2859,2.2859,2.2859,2.2859,2.2859,2.2859,2.2859,2.2726,0.0,0.0,0.0,0.0269,0.0808,0.1794,0.3137,0.4923,0.7,0.9022,1.0735,1.1992,1.2785,1.3334,1.3397,1.3397,1.3397,1.3397,1.3397,1.3397,1.3397,1.3397,1.3397,1.3397,1.3322,1.3159,1.2969,1.2773,1.2589,1.2528,1.2501,1.2501,1.2501,1.2501,1.2501,1.2501,1.2501,1.2501,1.2501,1.2501,1.2501,1.2501,1.2359,1.2108,1.206,1.1925,1.1633,1.1619,1.1619,1.1619,1.1619,1.1619,1.1619,1.1619,1.1619,1.1619,1.1619,1.1619,1.1619,1.1619,1.1619,1.1619,1.1619,1.1619,1.1619,1.1619,1.1619,1.1619,1.1619,1.1619,1.1619,1.1835,1.2194,1.2617,1.3539,1.4173,1.4457,1.5664,1.7007,1.8342,2.0017,2.1415,2.2173,2.2654,2.2859,2.2859,2.2859,2.2859,2.2859,2.2859,2.2859,2.2859,2.2859,2.2859,2.2859,2.2859,2.2859,2.2859,2.2859,2.2859,2.2859,2.2859,2.2859,2.2859,2.2859,2.2859,2.2859,2.2859,2.2859,2.2859,2.2859,2.2859,2.2859,2.2859,2.2659,0.0,0.0,0.0,0.0269,0.0898,0.1883,0.3585,0.5725,0.7622,0.9642,1.1515,1.2592,1.3056,1.3341,1.3397,1.3397,1.3397,1.3397,1.3397,1.3397,1.3397,1.3397,1.3397,1.3397,1.3322,1.3166,1.2881,1.2745,1.2705,1.2569,1.2501,1.2501,1.2501,1.2501,1.2501,1.2501,1.2501,1.2501,1.2501,1.2501,1.2501,1.2501,1.2359,1.2094,1.206,1.1925,1.1633,1.1619,1.1619,1.1619,1.1619,1.1619,1.1619,1.1619,1.1619,1.1619,1.1619,1.1619,1.1619,1.1619,1.1619,1.1619,1.1619,1.1619,1.1619,1.1619,1.1619,1.1619,1.1619,1.1619,1.1619,1.1619,1.1763,1.2194,1.2904,1.3325,1.3539,1.4386,1.6009,1.8331,2.0086,2.1346,2.2104,2.2516,2.2722,2.2791,2.2791,2.2859,2.2859,2.2859,2.2859,2.2859,2.2859,2.2859,2.2859,2.2859,2.2859,2.2859,2.2859,2.2859,2.2859,2.2859,2.2859,2.2859,2.2859,2.2859,2.2859,2.2859,2.2859,2.2859,2.2859,2.2859,2.2859,2.2806,2.2539,0.0,0.0,0.0,0.0449,0.1347,0.2601,0.4391,0.6451,0.8558,1.0307,1.171,1.268,1.3212,1.3354,1.3397,1.3397,1.3397,1.3397,1.3397,1.3397,1.3397,1.3397,1.3397,1.3397,1.3322,1.3166,1.2983,1.2834,1.2718,1.2583,1.2501,1.2501,1.2501,1.2501,1.2501,1.2501,1.2501,1.2501,1.2501,1.2501,1.2501,1.2501,1.2359,1.2101,1.206,1.1925,1.164,1.1619,1.1619,1.1619,1.1619,1.1619,1.1619,1.1619,1.1619,1.1619,1.1619,1.1619,1.1619,1.1619,1.1619,1.1619,1.1619,1.1619,1.1619,1.1619,1.1619,1.1619,1.1619,1.1619,1.1619,1.1619,1.1691,1.1763,1.2266,1.2545,1.2832,1.4039,1.5735,1.7559,1.9111,2.0225,2.1069,2.1703,2.2173,2.2448,2.2448,2.2516,2.2791,2.2791,2.2859,2.2859,2.2859,2.2859,2.2859,2.2859,2.2859,2.2859,2.2859,2.2859,2.2859,2.2859,2.2859,2.2859,2.2859,2.2859,2.2859,2.2859,2.2859,2.2859,2.2859,2.2859,2.2859,2.2739,2.2539,0.0,0.0,0.018,0.0808,0.1884,0.3406,0.5375,0.7431,0.9571,1.1132,1.2244,1.3066,1.3336,1.3361,1.3397,1.3397,1.3397,1.3397,1.3397,1.3397,1.3397,1.3397,1.3397,1.3397,1.3356,1.3247,1.3105,1.2963,1.2813,1.2664,1.2562,1.2508,1.2501,1.2501,1.2501,1.2501,1.2501,1.2501,1.2501,1.2501,1.2501,1.2501,1.2386,1.2176,1.2094,1.1938,1.1714,1.1653,1.1619,1.1619,1.1619,1.1619,1.1619,1.1619,1.1619,1.1619,1.1619,1.1619,1.1619,1.1619,1.1619,1.1619,1.1619,1.1619,1.1619,1.1619,1.1619,1.1619,1.1619,1.1619,1.1619,1.1619,1.1619,1.1619,1.1835,1.2122,1.2545,1.3682,1.5168,1.6725,1.8061,1.9192,2.0098,2.0723,2.1276,2.1622,2.1829,2.1897,2.2242,2.2448,2.2585,2.2722,2.2791,2.2859,2.2859,2.2859,2.2859,2.2859,2.2859,2.2859,2.2859,2.2859,2.2859,2.2859,2.2859,2.2859,2.2859,2.2859,2.2859,2.2859,2.2859,2.2859,2.2859,2.2859,2.2686,0.0,0.0,0.0539,0.1256,0.2421,0.4212,0.6356,0.8676,1.055,1.2021,1.3038,1.3502,1.3604,1.3464,1.3417,1.3397,1.3397,1.3397,1.3397,1.3397,1.3397,1.3397,1.3397,1.3397,1.339,1.3356,1.3227,1.3098,1.2969,1.2793,1.2657,1.2542,1.2515,1.2501,1.2501,1.2501,1.2501,1.2501,1.2501,1.2501,1.2501,1.2501,1.2427,1.2284,1.2155,1.2006,1.1823,1.1687,1.1619,1.1619,1.1619,1.1619,1.1619,1.1619,1.1619,1.1619,1.1619,1.1619,1.1619,1.1619,1.1619,1.1619,1.1619,1.1619,1.1619,1.1619,1.1619,1.1619,1.1619,1.1619,1.1619,1.1619,1.1619,1.1619,1.1619,1.1972,1.2681,1.3396,1.4466,1.5806,1.7077,1.8061,1.9041,1.9599,2.0098,2.0445,2.0792,2.0931,2.1276,2.1622,2.2104,2.231,2.2448,2.2654,2.2654,2.2859,2.2859,2.2859,2.2859,2.2859,2.2859,2.2859,2.2859,2.2859,2.2859,2.2859,2.2859,2.2859,2.2859,2.2859,2.2859,2.2859,2.2859,2.2859,2.2766,0.0,0.0,0.0539,0.1436,0.287,0.4749,0.6895,0.9215,1.1177,1.2507,1.3233,1.3627,1.3743,1.3566,1.3451,1.3397,1.3397,1.3397,1.3397,1.3397,1.3397,1.3397,1.3397,1.3397,1.3397,1.3376,1.3254,1.3152,1.3098,1.2874,1.2718,1.2664,1.2556,1.2508,1.2501,1.2501,1.2501,1.2501,1.2501,1.2501,1.2501,1.2501,1.2433,1.2305,1.225,1.2088,1.185,1.1694,1.1619,1.1619,1.1619,1.1619,1.1619,1.1619,1.1619,1.1619,1.1619,1.1619,1.1619,1.1619,1.1619,1.1619,1.1619,1.1619,1.1619,1.1619,1.1619,1.1619,1.1619,1.1619,1.1619,1.1619,1.1619,1.1619,1.1619,1.1835,1.233,1.2832,1.3611,1.4742,1.5655,1.6503,1.7288,1.7991,1.8552,1.8912,1.9332,1.975,2.0086,2.0641,2.1126,2.1622,2.1897,2.2242,2.2516,2.2722,2.2859,2.2859,2.2859,2.2859,2.2859,2.2859,2.2859,2.2859,2.2859,2.2859,2.2859,2.2859,2.2859,2.2859,2.2859,2.2859,2.2859,2.2859,2.2739,0.009,0.0359,0.1077,0.2153,0.3676,0.5733,0.7877,0.9932,1.1716,1.2978,1.3639,1.3807,1.3824,1.3627,1.3539,1.3458,1.3403,1.3397,1.3397,1.3397,1.3397,1.3397,1.3397,1.3397,1.3397,1.3397,1.3308,1.3234,1.3159,1.299,1.2861,1.2732,1.2644,1.2569,1.2501,1.2501,1.2501,1.2501,1.2501,1.2501,1.2501,1.2501,1.2467,1.2372,1.2325,1.2149,1.1864,1.1748,1.1687,1.164,1.1619,1.1619,1.1619,1.1619,1.1619,1.1619,1.1619,1.1619,1.1619,1.1619,1.1619,1.1619,1.1619,1.1619,1.1619,1.1619,1.1619,1.1619,1.1619,1.1619,1.1619,1.1619,1.1619,1.1619,1.1619,1.1763,1.2122,1.2402,1.2975,1.3745,1.4386,1.4955,1.5664,1.623,1.6654,1.7147,1.757,1.8131,1.8681,1.9379,2.0074,2.0503,2.1138,2.1553,2.1966,2.2242,2.2585,2.2654,2.2859,2.2859,2.2859,2.2859,2.2859,2.2859,2.2859,2.2859,2.2859,2.2859,2.2859,2.2859,2.2859,2.2859,2.2859,2.2859,2.2726,0.0269,0.0808,0.1794,0.3049,0.4659,0.6981,0.9037,1.0911,1.2337,1.3432,1.3948,1.4082,1.3926,1.3675,1.3675,1.3573,1.3437,1.3451,1.3417,1.341,1.3397,1.3397,1.3397,1.3397,1.3397,1.3397,1.3397,1.3322,1.3227,1.318,1.303,1.2847,1.2766,1.2657,1.2562,1.2522,1.2501,1.2501,1.2501,1.2501,1.2501,1.2501,1.2488,1.2461,1.2345,1.2182,1.1979,1.1864,1.1796,1.1653,1.1626,1.1619,1.1619,1.1619,1.1619,1.1619,1.1619,1.1619,1.1619,1.1619,1.1619,1.1619,1.1619,1.1619,1.1619,1.1619,1.1619,1.1619,1.1619,1.1633,1.1667,1.166,1.1701,1.1721,1.1694,1.1811,1.2072,1.2129,1.2402,1.3047,1.3182,1.3611,1.403,1.4386,1.4688,1.5489,1.5908,1.6477,1.7177,1.7824,1.8476,1.9181,1.9947,2.0931,2.1276,2.1691,2.2035,2.2379,2.2722,2.2859,2.2859,2.2859,2.2859,2.2859,2.2859,2.2859,2.2859,2.2859,2.2859,2.2859,2.2859,2.2859,2.2859,2.2859,2.2779,0.0269,0.0808,0.1794,0.3406,0.5554,0.7606,0.9749,1.1893,1.2964,1.3742,1.4136,1.4129,1.4034,1.396,1.3838,1.3715,1.3587,1.3566,1.3526,1.3403,1.3397,1.3397,1.3397,1.3397,1.3397,1.3397,1.3397,1.3376,1.3329,1.3234,1.3146,1.3057,1.2854,1.2718,1.2678,1.2569,1.2501,1.2501,1.2501,1.2501,1.2501,1.2501,1.2501,1.2488,1.2372,1.2277,1.2189,1.2074,1.1945,1.1803,1.1615,1.1633,1.1619,1.1619,1.1619,1.1619,1.1619,1.1619,1.1619,1.1619,1.1619,1.1633,1.164,1.1619,1.1619,1.1633,1.1633,1.1619,1.1619,1.1687,1.1775,1.1898,1.1925,1.1925,1.1932,1.1971,1.1876,1.1839,1.2,1.2338,1.2481,1.2624,1.3111,1.3412,1.3674,1.3994,1.4469,1.4894,1.5606,1.6315,1.6952,1.7722,1.8552,1.946,2.0306,2.0931,2.176,2.2173,2.2585,2.2859,2.2859,2.2859,2.2859,2.2859,2.2859,2.2859,2.2859,2.2859,2.2859,2.2859,2.2859,2.2859,2.2859,2.2859,2.2859,0.0718,0.1525,0.269,0.448,0.6538,0.8413,1.0377,1.2165,1.323,1.3856,1.4197,1.4204,1.4143,1.4068,1.398,1.3871,1.3736,1.3654,1.3546,1.3431,1.3397,1.3397,1.3397,1.3397,1.3397,1.3397,1.3397,1.3397,1.337,1.3315,1.3247,1.3173,1.3003,1.2915,1.2827,1.2678,1.2623,1.2589,1.2535,1.2501,1.2501,1.2501,1.2501,1.2494,1.2427,1.2366,1.2277,1.2216,1.2094,1.1945,1.1803,1.1687,1.1633,1.1619,1.1619,1.1619,1.1619,1.1619,1.1619,1.1619,1.1647,1.1714,1.1714,1.1762,1.1803,1.1823,1.1823,1.1823,1.1837,1.187,1.1932,1.1993,1.2054,1.206,1.2067,1.2026,1.1938,1.1809,1.1687,1.1863,1.1907,1.2093,1.2323,1.2641,1.2881,1.3228,1.3339,1.3772,1.4383,1.5087,1.5569,1.6258,1.7056,1.7991,1.9041,2.0098,2.1346,2.1897,2.2379,2.2654,2.2859,2.2859,2.2859,2.2859,2.2859,2.2859,2.2859,2.2859,2.2859,2.2859,2.2859,2.2859,2.2859,2.2859,2.2859,0.1256,0.2332,0.3764,0.5554,0.752,0.9393,1.1088,1.2432,1.3325,1.3945,1.421,1.4299,1.4217,1.4129,1.4109,1.4021,1.3865,1.3688,1.3553,1.3471,1.341,1.3403,1.3397,1.3397,1.3397,1.3397,1.3397,1.3397,1.3397,1.339,1.3322,1.322,1.3173,1.3085,1.2976,1.2813,1.2712,1.2691,1.2569,1.2501,1.2501,1.2501,1.2501,1.2494,1.2488,1.244,1.2366,1.2318,1.225,1.2101,1.1972,1.1837,1.1714,1.1626,1.1619,1.1619,1.1647,1.1674,1.1687,1.1701,1.1762,1.1857,1.1864,1.1918,1.2006,1.202,1.2013,1.204,1.2047,1.2081,1.2101,1.2155,1.2155,1.2149,1.2142,1.2121,1.2081,1.1972,1.187,1.1748,1.1835,1.1955,1.1983,1.2164,1.2261,1.2419,1.2529,1.276,1.3386,1.3819,1.4383,1.4957,1.5756,1.6936,1.8061,1.9401,2.0653,2.1509,2.2048,2.2529,2.2804,2.2859,2.2859,2.2859,2.2859,2.2859,2.2859,2.2859,2.2859,2.2859,2.2859,2.2859,2.2859,2.2859,2.2859,0.1256,0.2332,0.4122,0.6267,0.8498,1.0372,1.1976,1.3318,1.3856,1.421,1.4299,1.4299,1.4285,1.4258,1.4258,1.417,1.3987,1.379,1.3641,1.3573,1.3498,1.3437,1.3424,1.3431,1.341,1.3397,1.3397,1.3397,1.3397,1.3397,1.3376,1.3336,1.3241,1.3241,1.3078,1.2888,1.2773,1.2759,1.2617,1.2528,1.2528,1.2508,1.2501,1.2501,1.2501,1.2481,1.2467,1.2454,1.24,1.2271,1.223,1.2128,1.1965,1.1769,1.1667,1.1674,1.1748,1.1796,1.1809,1.1904,1.1979,1.202,1.202,1.2026,1.2074,1.2081,1.2115,1.2128,1.2189,1.225,1.2257,1.2325,1.2406,1.242,1.2393,1.2359,1.2271,1.221,1.2142,1.2013,1.1993,1.1979,1.2006,1.204,1.219,1.234,1.2464,1.2629,1.2986,1.3162,1.3244,1.3816,1.4424,1.5781,1.7208,1.8622,1.9959,2.0898,2.159,2.2349,2.2625,2.2804,2.2859,2.2859,2.2859,2.2859,2.2859,2.2859,2.2859,2.2859,2.2859,2.2859,2.2859,2.2859,2.2859,0.1795,0.3137,0.5017,0.7163,0.9393,1.1088,1.2514,1.3584,1.4122,1.4299,1.4299,1.4299,1.4299,1.4299,1.4299,1.4217,1.4055,1.3946,1.3817,1.3743,1.3661,1.358,1.3532,1.3519,1.3464,1.3424,1.3397,1.3403,1.3397,1.3397,1.3397,1.3383,1.3315,1.3295,1.3247,1.3085,1.2963,1.2908,1.2739,1.261,1.2603,1.2549,1.2501,1.2501,1.2501,1.2501,1.2501,1.2501,1.2474,1.24,1.2332,1.2257,1.2142,1.1999,1.185,1.1864,1.1911,1.1952,1.1952,1.2033,1.2081,1.2169,1.2182,1.2223,1.2264,1.2298,1.2277,1.2298,1.2325,1.24,1.24,1.2461,1.2494,1.2501,1.2501,1.2467,1.242,1.24,1.2338,1.225,1.2135,1.2101,1.2169,1.221,1.2264,1.2325,1.2386,1.2546,1.2692,1.2705,1.2692,1.3118,1.3817,1.4863,1.6316,1.7602,1.9127,2.0192,2.1147,2.1982,2.2579,2.2799,2.2857,2.2859,2.2859,2.2859,2.2859,2.2859,2.2859,2.2859,2.2859,2.2859,2.2859,2.2859,2.2859,0.2153,0.3675,0.5736,0.797,1.0021,1.1716,1.2875,1.3679,1.4122,1.4299,1.4299,1.4299,1.4299,1.4299,1.4285,1.4231,1.4116,1.4089,1.3987,1.3899,1.3831,1.3763,1.3702,1.3654,1.3607,1.3485,1.3464,1.3431,1.3403,1.3397,1.3397,1.3397,1.3397,1.3397,1.3349,1.3207,1.3193,1.3085,1.2888,1.2732,1.2657,1.2569,1.2501,1.2501,1.2501,1.2501,1.2501,1.2501,1.2501,1.2461,1.2406,1.2338,1.2311,1.2216,1.2155,1.2149,1.2203,1.2183,1.2115,1.2162,1.2237,1.2318,1.2332,1.2393,1.244,1.2454,1.2474,1.2501,1.2494,1.2488,1.2474,1.2494,1.2501,1.2501,1.2501,1.2494,1.2488,1.2481,1.2474,1.2372,1.2244,1.2237,1.2305,1.2332,1.2379,1.2393,1.2447,1.2454,1.2587,1.2484,1.2484,1.2777,1.3367,1.426,1.5372,1.6549,1.8113,1.9475,2.058,2.1533,2.2256,2.2776,2.2809,2.2924,2.2859,2.2859,2.2859,2.2859,2.2859,2.2859,2.2859,2.2859,2.2859,2.2859,2.2859,0.2064,0.3228,0.6004,0.8234,1.011,1.1982,1.3325,1.4122,1.421,1.4299,1.4299,1.4299,1.4299,1.4299,1.4299,1.4285,1.4238,1.415,1.4082,1.4034,1.3939,1.3871,1.3817,1.3732,1.3736,1.3614,1.3593,1.3519,1.3451,1.3417,1.3397,1.3397,1.3397,1.3397,1.3383,1.3275,1.318,1.3125,1.2895,1.2684,1.2576,1.2528,1.2515,1.2501,1.2501,1.2501,1.2501,1.2501,1.2501,1.2494,1.2488,1.2474,1.2474,1.2467,1.2454,1.2413,1.2345,1.2264,1.2277,1.2338,1.24,1.244,1.2454,1.2481,1.2494,1.2501,1.2501,1.2501,1.2501,1.2501,1.2501,1.2501,1.2501,1.2501,1.2501,1.2501,1.2501,1.2501,1.2501,1.2494,1.2366,1.2393,1.2447,1.2467,1.2481,1.2494,1.2501,1.2501,1.2467,1.2359,1.2277,1.2585,1.2904,1.3668,1.4496,1.5686,1.7005,1.856,1.9798,2.0971,2.1815,2.2461,2.2867,2.2902,2.2881,2.2873,2.2859,2.2859,2.2859,2.2859,2.2859,2.2859,2.2859,2.2859,2.2859,0.1795,0.314,0.5375,0.761,0.9754,1.1716,1.3059,1.3856,1.421,1.4299,1.4299,1.4299,1.4299,1.4299,1.4299,1.4299,1.4285,1.4224,1.4197,1.419,1.4116,1.4048,1.3987,1.396,1.3892,1.3763,1.3668,1.36,1.3519,1.3444,1.3397,1.3397,1.3397,1.3397,1.3397,1.3336,1.3308,1.3247,1.3085,1.2868,1.2698,1.2623,1.2589,1.2508,1.2501,1.2501,1.2501,1.2501,1.2501,1.2501,1.2501,1.2501,1.2501,1.2501,1.2494,1.2494,1.2447,1.2413,1.242,1.2474,1.2494,1.2501,1.2501,1.2494,1.2501,1.2501,1.2501,1.2501,1.2501,1.2501,1.2501,1.2501,1.2501,1.2501,1.2501,1.2501,1.2501,1.2501,1.2501,1.2501,1.2501,1.2501,1.2501,1.2501,1.2494,1.2494,1.2501,1.2501,1.2454,1.2366,1.2374,1.2381,1.2646,1.2992,1.3784,1.4744,1.6093,1.7542,1.8842,2.0055,2.1354,2.2013,2.2466,2.2784,2.2839,2.2871,2.2886,2.2859,2.2859,2.2859,2.2859,2.2859,2.2859,2.2859,2.2859,0.1257,0.2511,0.4659,0.6895,0.913,1.0999,1.2432,1.3413,1.3945,1.421,1.4299,1.4299,1.4299,1.4299,1.4299,1.4299,1.4299,1.4299,1.4299,1.4299,1.4285,1.4224,1.4156,1.4116,1.4048,1.3892,1.3763,1.3668,1.3587,1.3492,1.3397,1.3397,1.3397,1.3397,1.3397,1.3383,1.337,1.3288,1.32,1.2996,1.2773,1.2718,1.263,1.2549,1.2501,1.2501,1.2501,1.2501,1.2501,1.2501,1.2501,1.2501,1.2501,1.2501,1.2501,1.2501,1.2481,1.2481,1.2481,1.2494,1.2501,1.2501,1.2501,1.2501,1.2501,1.2501,1.2501,1.2501,1.2501,1.2501,1.2501,1.2501,1.2501,1.2501,1.2501,1.2501,1.2501,1.2501,1.2501,1.2501,1.2501,1.2501,1.2501,1.2501,1.2501,1.2501,1.2501,1.2501,1.2454,1.2393,1.2372,1.2408,1.2526,1.2752,1.3341,1.4243,1.5419,1.646,1.7778,1.9106,2.036,2.1401,2.2047,2.2364,2.2667,2.2855,2.2844,2.2886,2.2859,2.2859,2.2859,2.2859,2.2859,2.2859,2.2859,0.0359,0.1077,0.3854,0.6088,0.8056,1.0016,1.1621,1.2875,1.3413,1.3945,1.4299,1.4299,1.4299,1.4299,1.4299,1.4299,1.4299,1.4299,1.4299,1.4299,1.4292,1.4285,1.4251,1.4231,1.419,1.4048,1.3878,1.3736,1.3627,1.3485,1.3417,1.3397,1.3397,1.3397,1.3397,1.3397,1.3342,1.3281,1.3214,1.3064,1.2861,1.2759,1.2691,1.2556,1.2508,1.2501,1.2501,1.2501,1.2501,1.2501,1.2501,1.2501,1.2501,1.2501,1.2501,1.2501,1.2501,1.2501,1.2501,1.2501,1.2501,1.2501,1.2501,1.2501,1.2501,1.2501,1.2501,1.2501,1.2501,1.2501,1.2501,1.2501,1.2501,1.2501,1.2501,1.2501,1.2501,1.2501,1.2501,1.2501,1.2501,1.2501,1.2501,1.2501,1.2501,1.2501,1.2501,1.2501,1.2501,1.2454,1.2467,1.2454,1.2461,1.2678,1.307,1.3823,1.4533,1.5438,1.6606,1.8055,1.9479,2.0388,2.1257,2.2094,2.2435,2.2623,2.2884,2.2844,2.2886,2.2873,2.2859,2.2859,2.2859,2.2859,2.2859,0.0269,0.0808,0.2243,0.4033,0.6267,0.8502,1.0199,1.1621,1.2698,1.3591,1.4299,1.4299,1.4299,1.4299,1.4299,1.4299,1.4299,1.4299,1.4299,1.4299,1.4299,1.4299,1.4299,1.4292,1.4265,1.4163,1.3973,1.3824,1.3749,1.3519,1.3424,1.3397,1.3397,1.3397,1.3397,1.3397,1.3356,1.3336,1.3295,1.3193,1.3064,1.299,1.2888,1.2664,1.2644,1.2583,1.2522,1.2501,1.2501,1.2508,1.2508,1.2508,1.2501,1.2501,1.2501,1.2501,1.2501,1.2501,1.2501,1.2501,1.2501,1.2501,1.2501,1.2501,1.2501,1.2501,1.2501,1.2501,1.2501,1.2501,1.2501,1.2501,1.2501,1.2501,1.2501,1.2501,1.2501,1.2501,1.2501,1.2501,1.2501,1.2501,1.2501,1.2501,1.2501,1.2501,1.2501,1.2501,1.2501,1.2501,1.2501,1.2501,1.2501,1.2501,1.2811,1.3197,1.366,1.4507,1.5505,1.6864,1.8214,1.9372,2.0303,2.1185,2.2094,2.2409,2.261,2.2842,2.2899,2.2886,2.2873,2.2859,2.2859,2.2859,2.2859,0.018,0.0539,0.0988,0.2512,0.4749,0.6806,0.8684,1.0377,1.1804,1.323,1.4299,1.4299,1.4299,1.4299,1.4299,1.4299,1.4299,1.4299,1.4299,1.4299,1.4299,1.4299,1.4299,1.4299,1.4285,1.4224,1.4014,1.3745,1.3725,1.3539,1.3431,1.3397,1.3397,1.3397,1.3397,1.3397,1.3397,1.3397,1.339,1.3322,1.3186,1.3152,1.3064,1.2834,1.28,1.2766,1.2698,1.2684,1.263,1.2603,1.2576,1.2549,1.2522,1.2501,1.2501,1.2501,1.2501,1.2501,1.2501,1.2501,1.2501,1.2501,1.2501,1.2501,1.2501,1.2501,1.2501,1.2501,1.2501,1.2501,1.2501,1.2501,1.2501,1.2501,1.2501,1.2501,1.2501,1.2501,1.2501,1.2501,1.2501,1.2501,1.2501,1.2501,1.2501,1.2501,1.2501,1.2501,1.2501,1.2501,1.2501,1.2501,1.2501,1.2501,1.2579,1.2888,1.3197,1.3583,1.4584,1.5505,1.6742,1.8026,1.9266,2.0252,2.1089,2.1877,2.2448,2.2837,2.2905,2.2899,2.2899,2.2926,2.2859,2.2859,2.2859,0.0,0.009,0.0539,0.1795,0.3588,0.5107,0.7074,0.9304,1.0994,1.2603,1.4122,1.4299,1.4299,1.4299,1.4299,1.4299,1.4299,1.4299,1.4299,1.4299,1.4299,1.4299,1.4299,1.4299,1.4299,1.4224,1.4034,1.3878,1.3745,1.358,1.3451,1.3403,1.3397,1.3397,1.3397,1.3397,1.3397,1.3397,1.3397,1.3315,1.3234,1.3207,1.3112,1.2996,1.2956,1.2929,1.2874,1.2861,1.2807,1.2745,1.2725,1.2678,1.2589,1.2576,1.2569,1.2556,1.2535,1.2515,1.2501,1.2501,1.2501,1.2501,1.2501,1.2501,1.2501,1.2501,1.2501,1.2501,1.2501,1.2501,1.2501,1.2501,1.2501,1.2501,1.2501,1.2501,1.2501,1.2501,1.2501,1.2501,1.2501,1.2501,1.2501,1.2501,1.2501,1.2501,1.2501,1.2501,1.2501,1.2501,1.2501,1.2501,1.2501,1.2501,1.2501,1.2501,1.2733,1.312,1.366,1.4584,1.5573,1.6809,1.8065,1.9223,2.0411,2.1474,2.2278,2.2944,2.3038,2.3193,2.3046,2.3075,2.2926,2.2953,2.306,0.0,0.0,0.018,0.0808,0.1884,0.3588,0.5554,0.7784,1.0461,1.2609,1.3679,1.4122,1.4299,1.4299,1.4299,1.4299,1.4299,1.4299,1.4299,1.4299,1.4299,1.4299,1.4299,1.4299,1.4299,1.4245,1.4082,1.3919,1.3752,1.362,1.3492,1.3431,1.3397,1.3397,1.3397,1.3397,1.3397,1.3397,1.3397,1.3376,1.3329,1.3308,1.3247,1.3112,1.3105,1.3071,1.3003,1.3003,1.2956,1.2895,1.2881,1.284,1.2786,1.2773,1.2786,1.2759,1.2732,1.2596,1.2542,1.2501,1.2501,1.2501,1.2501,1.2501,1.2501,1.2501,1.2501,1.2501,1.2501,1.2501,1.2501,1.2501,1.2501,1.2501,1.2501,1.2501,1.2501,1.2501,1.2501,1.2501,1.2501,1.2501,1.2501,1.2501,1.2501,1.2501,1.2501,1.2501,1.2501,1.2501,1.2501,1.2501,1.2501,1.2501,1.2501,1.2501,1.2501,1.2811,1.3197,1.3814,1.4806,1.5803,1.7065,1.8396,1.9776,2.1152,2.2117,2.296,2.3398,2.3527,2.3474,2.3394,2.3354,2.342,2.3527,0.0,0.0,0.0,0.018,0.0718,0.2333,0.457,0.7249,1.0288,1.2337,1.3318,1.3856,1.4122,1.4299,1.4299,1.4299,1.4299,1.4299,1.4299,1.4299,1.4299,1.4299,1.4299,1.4299,1.4299,1.4258,1.4143,1.3994,1.3838,1.3695,1.3546,1.3431,1.3397,1.3397,1.3397,1.3397,1.3397,1.3397,1.3397,1.3397,1.3383,1.3376,1.3349,1.3275,1.3241,1.3214,1.3146,1.3105,1.3085,1.3051,1.303,1.309,1.299,1.3043,1.3043,1.2922,1.2874,1.2732,1.263,1.2589,1.2576,1.2508,1.2501,1.2501,1.2501,1.2501,1.2501,1.2501,1.2501,1.2501,1.2501,1.2501,1.2501,1.2501,1.2501,1.2501,1.2501,1.2501,1.2501,1.2501,1.2501,1.2501,1.2501,1.2501,1.2501,1.2501,1.2501,1.2501,1.2501,1.2501,1.2501,1.2501,1.2501,1.2501,1.2501,1.2501,1.2501,1.2501,1.2888,1.3274,1.3814,1.4806,1.6186,1.7559,1.8888,2.0288,2.2043,2.3044,2.351,2.3917,2.4075,2.3968,2.3834,2.3821,2.3861,0.0,0.0,0.0,0.0,0.0,0.1615,0.4301,0.7788,0.9838,1.1444,1.2875,1.3407,1.3856,1.4299,1.4299,1.4299,1.4299,1.4299,1.4299,1.4299,1.4299,1.4299,1.4299,1.4299,1.4299,1.4251,1.417,1.4048,1.3858,1.3695,1.3553,1.3431,1.3403,1.3397,1.3397,1.3397,1.3397,1.3397,1.3397,1.3397,1.3397,1.3397,1.3383,1.3356,1.3349,1.3349,1.3322,1.3329,1.3275,1.3227,1.318,1.3098,1.3037,1.3063,1.3056,1.2969,1.2969,1.2881,1.2773,1.2739,1.2657,1.2576,1.2542,1.2522,1.2501,1.2501,1.2501,1.2501,1.2501,1.2501,1.2501,1.2501,1.2501,1.2501,1.2501,1.2501,1.2501,1.2501,1.2501,1.2501,1.2501,1.2501,1.2501,1.2501,1.2501,1.2501,1.2501,1.2501,1.2501,1.2501,1.2501,1.2501,1.2501,1.2501,1.2501,1.2501,1.2501,1.2501,1.2501,1.2888,1.3351,1.396,1.5344,1.6644,1.7864,1.9478,2.1742,2.3102,2.3793,2.4074,2.4129,2.4256,2.4056,2.4022,2.4022,0.0,0.0,0.0,0.0,0.0,0.1167,0.3227,0.5999,0.8498,1.0555,1.1888,1.3141,1.3768,1.4299,1.4299,1.4299,1.4299,1.4299,1.4299,1.4299,1.4299,1.4299,1.4299,1.4299,1.4299,1.4285,1.4231,1.4129,1.3973,1.377,1.3553,1.3424,1.3403,1.3403,1.3397,1.3397,1.3397,1.3397,1.3397,1.3397,1.3397,1.3397,1.3397,1.3397,1.3397,1.3397,1.3397,1.3397,1.3349,1.3342,1.3329,1.3295,1.3288,1.3268,1.3254,1.3125,1.3098,1.3051,1.2929,1.2895,1.2827,1.2705,1.2664,1.2589,1.2542,1.2515,1.2515,1.2501,1.2501,1.2501,1.2501,1.2501,1.2501,1.2501,1.2515,1.2542,1.2549,1.2576,1.2569,1.2535,1.2535,1.2501,1.2501,1.2501,1.2501,1.2501,1.2501,1.2501,1.2501,1.2501,1.2501,1.2501,1.2501,1.2501,1.2501,1.2501,1.2501,1.2501,1.2501,1.2656,1.312,1.3806,1.4737,1.5956,1.7559,1.9606,2.1861,2.2769,2.3141,2.3661,2.3806,2.4061,2.4289,2.4243,2.4262,0.0,0.0,0.0,0.0,0.0,0.0808,0.2242,0.4212,0.6981,0.9037,1.0728,1.2248,1.3413,1.4033,1.421,1.4299,1.4299,1.4299,1.4299,1.4299,1.4299,1.4299,1.4299,1.4299,1.4299,1.4299,1.4278,1.4204,1.4034,1.3797,1.3566,1.3505,1.3451,1.3403,1.3397,1.3397,1.3397,1.3397,1.3397,1.3397,1.3397,1.3397,1.3397,1.3397,1.3397,1.3397,1.3397,1.3397,1.3397,1.3397,1.3397,1.3397,1.3397,1.339,1.3376,1.3268,1.3261,1.318,1.3078,1.3044,1.2956,1.2868,1.282,1.2779,1.2671,1.2603,1.2549,1.2501,1.2501,1.2501,1.2501,1.2501,1.2501,1.2501,1.2549,1.2596,1.263,1.2664,1.2644,1.2596,1.2562,1.2515,1.2501,1.2501,1.2501,1.2501,1.2501,1.2501,1.2501,1.2501,1.2501,1.2501,1.2501,1.2501,1.2501,1.2501,1.2501,1.2501,1.2501,1.2656,1.2965,1.3505,1.4276,1.5727,1.7483,1.9229,2.0812,2.1648,2.216,2.2682,2.3215,2.3548,2.3953,2.4382,2.4442,0.0,0.0,0.0,0.0,0.0,0.0449,0.1256,0.2421,0.5104,0.7427,0.9393,1.1271,1.2698,1.3591,1.4122,1.4299,1.4299,1.4299,1.4299,1.4299,1.4299,1.4299,1.4299,1.4299,1.4299,1.4299,1.4278,1.4217,1.4041,1.3851,1.3715,1.3634,1.3505,1.3437,1.3403,1.3403,1.3397,1.3397,1.3397,1.3397,1.3397,1.3397,1.3397,1.3397,1.3397,1.3397,1.3397,1.3397,1.3397,1.3397,1.3397,1.3397,1.3397,1.3397,1.339,1.3383,1.3363,1.3308,1.3227,1.3193,1.3112,1.303,1.3056,1.2935,1.2834,1.2732,1.2664,1.2644,1.2664,1.2664,1.2664,1.2664,1.2664,1.2678,1.2712,1.2739,1.2766,1.2786,1.2766,1.2712,1.2623,1.2576,1.2501,1.2501,1.2501,1.2501,1.2501,1.2501,1.2501,1.2501,1.2501,1.2501,1.2501,1.2501,1.2501,1.2501,1.2501,1.2501,1.2501,1.2501,1.2733,1.3197,1.3737,1.5267,1.6873,1.7864,1.9143,2.0048,2.0887,2.1475,2.2085,2.2843,2.3438,2.3883,2.4414,0.0,0.0,0.0,0.0,0.0,0.009,0.0718,0.1705,0.3495,0.5999,0.8769,1.0728,1.2337,1.3413,1.4033,1.4299,1.4299,1.4299,1.4299,1.4299,1.4299,1.4299,1.4299,1.4299,1.4299,1.4299,1.4278,1.4231,1.4095,1.3973,1.3838,1.3661,1.3566,1.3519,1.3424,1.3417,1.3397,1.3397,1.3397,1.3397,1.3397,1.3397,1.3397,1.3397,1.3397,1.3397,1.3397,1.3397,1.3397,1.3397,1.3397,1.3397,1.3397,1.3397,1.3397,1.3397,1.3397,1.3363,1.3342,1.3315,1.3247,1.3173,1.3112,1.3044,1.3056,1.2895,1.2847,1.2847,1.2834,1.2827,1.282,1.282,1.2827,1.2847,1.2881,1.2895,1.2908,1.2901,1.2901,1.2813,1.2718,1.2637,1.2556,1.2515,1.2501,1.2501,1.2501,1.2501,1.2501,1.2501,1.2501,1.2501,1.2501,1.2501,1.2501,1.2501,1.2501,1.2501,1.2501,1.2501,1.2501,1.2965,1.3583,1.4814,1.6118,1.6873,1.7635,1.8547,1.9369,1.9973,2.08,2.1487,2.216,2.2608,2.3587,0.0,0.0,0.0,0.0,0.0,0.0,0.0449,0.1257,0.2421,0.4568,0.7427,0.966,1.1621,1.2964,1.3679,1.421,1.421,1.4299,1.4299,1.4299,1.4299,1.4299,1.4299,1.4299,1.4299,1.4299,1.4292,1.4245,1.4163,1.4075,1.3939,1.3804,1.3729,1.3593,1.3492,1.3451,1.3403,1.3397,1.3397,1.3397,1.3397,1.3397,1.3397,1.3397,1.3397,1.3397,1.3397,1.3397,1.3397,1.3397,1.3397,1.3397,1.3397,1.3397,1.3397,1.3397,1.3397,1.3397,1.3397,1.3383,1.3363,1.3288,1.3268,1.3214,1.322,1.3139,1.3024,1.3003,1.2922,1.2901,1.2901,1.2901,1.2901,1.2915,1.301,1.3071,1.3091,1.3105,1.3071,1.3017,1.2915,1.282,1.2745,1.2657,1.2637,1.2596,1.2583,1.2528,1.2522,1.2562,1.2542,1.2535,1.2562,1.2522,1.2501,1.2501,1.2501,1.2501,1.2501,1.2501,1.2579,1.2888,1.3505,1.4276,1.4968,1.542,1.6186,1.7102,1.7626,1.8148,1.9132,2.0124,2.0725,2.1325,2.216,0.0,0.0,0.0,0.0,0.0,0.0,0.0269,0.0808,0.1795,0.3406,0.5823,0.8502,1.0555,1.2077,1.3141,1.3768,1.421,1.4299,1.4299,1.4299,1.4299,1.4299,1.4299,1.4299,1.4299,1.4299,1.4299,1.4299,1.4272,1.4183,1.4102,1.4027,1.3865,1.3668,1.36,1.3519,1.3444,1.341,1.3397,1.3397,1.3397,1.3397,1.3397,1.3397,1.3397,1.3397,1.3397,1.3397,1.3397,1.3397,1.3397,1.3397,1.3397,1.3397,1.3397,1.3397,1.3397,1.3397,1.3397,1.3397,1.339,1.339,1.3397,1.3397,1.3383,1.3322,1.3207,1.3139,1.3057,1.3024,1.3024,1.303,1.303,1.3037,1.3152,1.3234,1.3254,1.3268,1.322,1.3173,1.3085,1.299,1.2901,1.282,1.2773,1.2732,1.2678,1.261,1.2589,1.2664,1.2698,1.2684,1.2691,1.2637,1.2535,1.2522,1.2528,1.2501,1.2501,1.2501,1.2579,1.2733,1.2965,1.3274,1.3814,1.4361,1.4814,1.5573,1.6024,1.6483,1.7474,1.8461,1.9067,1.9736,2.05,0.0,0.0,0.0,0.0,0.0,0.0,0.0269,0.0808,0.1795,0.3139,0.4838,0.7163,0.9665,1.2254,1.3141,1.3856,1.421,1.4299,1.4299,1.4299,1.4299,1.4299,1.4299,1.4299,1.4299,1.4299,1.4299,1.4299,1.4299,1.4258,1.419,1.4075,1.4055,1.3865,1.3641,1.358,1.3546,1.3492,1.3431,1.3431,1.341,1.341,1.3397,1.3397,1.3397,1.3397,1.3397,1.3397,1.3397,1.3397,1.3397,1.3397,1.3397,1.3397,1.3397,1.3397,1.3397,1.3397,1.3397,1.3397,1.3397,1.3397,1.3397,1.3397,1.339,1.339,1.3322,1.3322,1.3268,1.3268,1.3268,1.3268,1.3268,1.3268,1.3336,1.3342,1.3349,1.3336,1.3308,1.3247,1.3173,1.3085,1.3003,1.2949,1.2929,1.2895,1.2868,1.2807,1.2786,1.282,1.2847,1.2834,1.282,1.2684,1.2562,1.2576,1.2576,1.2535,1.2535,1.2589,1.2589,1.2508,1.274,1.3056,1.3184,1.3549,1.3998,1.44,1.4661,1.5198,1.6033,1.6788,1.7398,1.8082,1.8754]}]]